GFSSGP_con_mlcape_000.txt.gz
CAPE
1202 1348 1663 1716 668 50 30 54 85 125 182 127 24 47 89 71 52 86 140 261 232 268 353 241 302 283 428 558 648 822 794 729 970 842 970 1012 1579 1892 2149 2178 2075 1993 1984 1933 1901 1747 1697 1625 1648
1531 1486 1435 998 49 47 83 107 131 169 148 176 186 148 124 60 77 88 210 251 234 198 252 211 432 680 428 563 925 891 846 1132 1005 947 990 1275 1590 1788 2111 2028 1967 1993 1875 1836 1792 1709 1664 1647 1715
924 1187 1120 30 0 52 75 177 268 246 113 132 273 235 176 113 154 152 225 260 308 380 332 462 596 663 620 637 1073 1587 1366 1374 1529 1286 1227 1363 1559 2103 2101 1888 1844 1821 1814 1761 1624 1486 1565 1732 1869
964 925 710 25 0 0 44 238 429 383 258 172 168 191 203 198 262 335 380 406 434 551 697 261 428 583 682 879 1155 1313 1617 1630 1722 1492 1496 1675 1970 1892 1728 1733 1837 1786 1780 1760 1692 1668 1749 1707 1943
725 279 20 1 0 0 0 264 403 365 297 169 159 164 212 438 346 430 581 629 707 673 861 537 787 894 807 1002 1431 1694 1401 1670 1652 1771 1659 1926 1747 1786 1740 1968 1959 1779 1717 1778 1731 1854 1892 1937 2033
304 65 50 9 0 0 0 240 376 438 462 331 206 360 444 401 451 654 824 812 777 864 841 1086 1196 1212 1389 1505 1783 1657 1731 1844 1890 1840 1845 1861 1798 1889 1961 1899 1805 1776 1751 1725 1562 1611 1765 1783 1866
147 64 60 55 0 0 0 107 207 405 522 277 206 429 602 377 663 944 1029 955 825 946 1057 1255 1164 1570 1949 1968 2016 1834 1805 1697 1537 1744 1845 1611 1751 1767 2008 1878 1490 1794 1782 1768 1821 1391 1300 1487 1427
155 55 33 61 67 0 0 76 184 132 426 295 251 349 480 356 655 889 984 915 933 1120 1311 1539 1619 1587 1447 1516 2138 2104 1780 1251 1438 1725 1680 1717 1563 1327 1250 685 1662 1533 1479 1606 1622 1448 1358 1183 1106
104 84 44 46 72 15 42 66 275 266 417 404 395 248 290 271 523 740 955 891 1146 1156 1297 1418 1562 1608 1598 1164 1312 1554 1421 1537 1560 1400 1560 688 1165 1365 1201 1053 1009 1604 1505 1401 1439 1272 1182 936 1110
28 108 62 15 53 83 96 103 377 448 405 373 540 370 254 256 531 693 900 1095 1099 1179 1236 1194 1360 1503 1620 1310 1515 1488 1074 805 750 773 1003 975 1288 1552 1025 1197 982 1303 1346 1133 1036 858 980 1185 902
0 62 42 23 21 108 99 180 351 176 272 248 489 481 304 294 512 653 783 927 969 1102 1169 1463 1211 1607 1509 1408 1411 1380 1122 1016 1042 1407 1349 1092 1244 1280 1535 1422 1271 1002 832 1453 1299 1195 1020 1185 973
0 0 0 20 11 114 174 210 246 164 116 160 348 523 414 436 436 520 672 799 844 902 982 1117 1267 1322 1379 1584 1358 1274 1077 1058 953 987 1360 1348 1203 1413 1680 1475 1512 1585 1214 1304 1286 1011 1175 1153 882
0 0 0 0 0 32 218 248 229 240 221 285 492 658 474 487 408 441 488 626 702 887 955 1049 1237 1460 1587 1706 1172 1152 1045 950 842 838 1144 1060 1013 1406 1500 1409 1364 1263 1286 1127 1062 1111 1139 1060 797
0 0 0 0 0 50 282 395 359 262 143 599 625 704 579 571 539 567 504 557 657 746 821 1058 1205 1466 1548 1515 1348 1164 1122 1023 971 769 757 1164 1048 1202 1191 1152 1057 1181 1282 1009 1018 1181 1053 857 539
0 0 0 0 17 159 253 454 350 371 404 859 783 742 664 641 666 673 607 607 712 784 796 1044 1438 1635 1924 1949 1695 1515 1264 1092 991 888 1191 1301 1273 1217 1087 1167 987 1061 1189 1413 1123 1176 953 459 278
0 0 2 1 84 252 262 89 319 480 562 944 870 779 649 682 686 701 712 702 705 837 946 1120 1158 1357 1709 1672 1535 1379 1093 1114 1127 946 1206 1585 1442 1414 1305 1185 993 962 967 1081 995 870 470 268 161
0 0 0 92 140 363 293 101 388 540 604 708 802 602 602 682 779 840 821 734 716 985 1180 1246 1198 1098 1300 1523 1522 1430 1310 1519 1467 1479 1347 1228 1332 1149 1307 1071 1045 1155 926 933 679 522 333 81 15
0 0 11 9 134 264 266 123 445 591 560 426 816 628 538 548 654 831 850 854 950 1117 1400 1461 1323 1275 1572 1661 1730 1361 1417 1382 1175 1321 1786 1553 1523 1265 1291 1115 1030 1066 867 711 655 446 116 140 11
0 11 23 19 128 207 152 121 190 650 529 457 642 750 606 424 525 727 967 1088 1122 1278 1587 1783 1635 1705 1994 1807 1083 1142 1003 1139 1159 1153 1895 1709 1610 1542 1477 1045 1115 1175 1046 599 314 75 21 2 31
0 0 16 56 108 115 89 117 143 211 580 393 400 672 883 639 527 842 1070 1027 1057 1342 1691 1942 1993 1914 2040 1592 1385 1142 1155 1142 1309 1479 1601 1770 1705 1713 1478 1339 1248 1267 276 451 111 20 3 11 20
0 0 6 62 110 124 80 101 59 50 346 432 365 333 703 797 629 684 836 990 1039 1230 1714 1958 2192 2265 2232 1425 1482 1840 1652 1630 1563 1558 1837 2155 2170 2100 1964 1825 1156 986 110 1 35 17 8 4 131
0 0 1 36 62 54 89 41 18 48 218 354 491 384 276 730 764 769 719 886 979 1105 1463 1957 2357 2564 2419 2117 1679 1709 1562 1111 807 1062 976 1664 2242 2026 1910 1678 1265 168 0 0 17 5 1 17 14
0 0 0 0 53 66 105 60 18 24 34 173 440 502 263 140 545 714 761 655 939 1042 1285 1685 2302 2593 2592 2315 2368 2166 2053 1124 896 1011 1520 1759 1713 1985 1242 1630 504 92 0 69 23 2 11 13 6
0 0 0 0 12 32 51 38 0 1 2 11 121 362 416 133 129 447 577 570 741 922 1132 1368 1941 2580 2746 2749 2722 2570 1947 1628 915 1353 1067 638 691 1166 1304 1536 517 42 0 48 15 0 2 0 0
0 0 0 0 4 13 30 21 0 0 0 0 0 68 418 244 93 198 430 567 737 873 1028 1301 1677 2280 2597 2657 2547 2652 2567 2330 1998 1869 1176 441 376 437 814 1546 563 99 137 35 0 0 2 1 4
0 0 0 0 1 2 0 0 0 0 0 0 0 16 200 372 113 120 292 471 736 858 1031 1281 1532 2128 2458 2480 2600 2784 2780 2537 2292 2114 1243 772 396 164 266 1318 469 169 99 69 0 0 1 12 11
0 0 0 2 7 0 0 0 0 0 0 0 6 45 93 299 235 95 232 420 624 832 1103 1427 1788 2099 2253 2286 2535 2771 2875 2680 1929 1785 2080 1267 911 243 685 715 383 106 127 19 0 0 1 0 0
0 0 0 0 0 1 0 0 0 0 0 0 1 52 112 241 300 125 184 325 535 802 1021 1402 1725 2019 2174 2151 2323 2421 2558 2738 2527 2344 2167 1347 1298 954 574 435 146 84 90 21 20 0 0 0 0
0 0 0 0 0 0 0 0 0 0 0 0 0 48 92 173 399 338 194 249 573 663 840 1269 1695 1959 2171 2186 2229 2185 2155 2305 2642 2539 2826 2470 1744 895 582 444 109 109 73 26 20 12 0 0 0
0 0 0 0 0 0 0 0 0 0 0 0 0 0 0 107 356 519 462 444 501 759 712 952 1331 1775 2080 2162 2394 2240 2143 2151 2415 2700 2545 1715 1247 418 358 268 174 64 45 43 70 18 0 0 0

GFSSGP_con_mlcape_003.txt.gz
CAPE
588 1014 1365 1278 204 0 17 132 27 119 299 144 118 139 70 10 109 140 87 257 172 150 89 241 311 516 577 459 472 704 800 1154 1190 1302 1520 1760 2049 2269 2102 1940 1877 1871 1817 1733 1689 1652 1569 1529 1433
1114 1524 1923 1601 410 17 13 87 92 173 83 180 213 160 81 56 208 248 214 125 187 88 126 260 384 383 493 691 720 748 888 1143 1095 1155 1425 1485 1880 2054 1878 1801 1769 1708 1773 1717 1619 1526 1579 1654 1677
1802 1521 1331 1047 25 25 116 198 162 180 193 281 235 233 280 27 227 306 257 221 119 230 462 449 736 553 851 1279 1153 1023 1172 1252 1195 1373 1357 1404 1824 1975 1699 1656 1651 1732 1803 1686 1536 1633 1682 1725 1933
1282 1074 964 25 0 55 250 180 148 131 157 208 301 290 162 77 189 182 235 325 506 632 664 615 864 785 1218 1592 1714 1394 1582 1792 1583 1370 1384 1693 1910 1688 1519 1748 1694 1668 1731 1737 1708 1721 1756 1783 1976
1071 707 383 3 0 24 210 228 198 205 201 275 344 378 301 460 397 316 325 375 567 829 529 604 1082 1135 1394 1633 1809 1822 1649 1732 1699 1601 1664 1910 1795 1723 1792 1848 1601 1525 1597 1483 1741 1892 1907 1739 1960
703 107 23 15 0 0 56 191 192 247 256 226 446 371 650 576 506 492 563 583 657 861 707 736 1113 1322 1523 1737 1886 1447 1632 1639 1907 1828 1833 1848 1835 1821 1868 1662 1589 1594 1672 1684 1760 1553 1512 1679 1748
576 252 23 22 0 0 6 49 106 110 253 260 470 686 642 663 678 626 829 781 717 928 931 1139 1181 1470 1876 1909 1722 1864 1921 1960 1801 1949 1937 1724 1737 1751 1671 1438 1249 1590 1831 1770 1857 1523 1407 1570 1483
114 20 45 103 11 0 0 25 0 57 257 235 529 656 587 831 771 993 870 837 696 953 1098 1111 1280 1408 1372 1524 1874 1920 1870 1562 1536 1853 1663 1258 1297 1163 784 926 1581 1506 1401 1583 1706 1241 1057 926 1008
0 23 80 31 27 0 0 1 0 70 91 132 287 469 648 798 859 919 967 848 923 1183 1181 1199 1261 1492 1654 1764 1968 1991 1553 1183 1501 1385 1410 631 1151 1221 1425 1428 909 1415 1674 1364 1323 999 716 1092 1300
1 16 28 15 24 21 4 3 1 0 51 143 219 521 703 822 785 875 949 1167 1058 1056 1099 1085 1310 1472 1488 995 1556 1100 716 669 713 700 811 1079 1214 1541 1157 1356 873 1117 1161 1082 1009 735 924 1308 1436
1 24 31 31 32 46 10 19 8 27 0 123 248 365 567 790 797 855 848 956 741 722 836 1311 1467 1587 1739 1495 1157 1177 1073 945 850 1050 1326 1030 1216 1420 1448 1674 1650 1757 970 1770 1469 1368 1301 984 911
0 10 10 65 1 90 27 32 18 1 34 49 236 254 422 687 785 796 868 903 899 897 799 1107 1589 1682 1521 1452 1109 1072 875 758 819 988 1375 1448 1303 1342 1333 1577 1408 1634 1262 1251 1322 1078 1113 1172 1128
0 8 14 3 1 43 84 38 9 4 0 21 306 226 308 557 727 774 731 730 791 865 959 996 1175 1297 1497 1802 856 868 817 651 807 901 1150 1205 990 1624 1595 1438 1239 1357 1209 1209 888 970 1014 906 875
0 2 1 1 7 8 71 33 17 5 0 92 366 308 310 443 594 703 733 730 722 743 805 882 1237 1497 1603 1653 1594 1218 994 943 666 791 753 1310 1343 1250 1448 1436 1211 1041 1123 1162 797 1245 1037 768 477
0 0 0 0 0 1 11 6 0 3 55 119 367 431 306 386 414 561 618 709 719 790 853 925 1070 1420 1618 1675 1651 1178 1053 729 865 649 921 1044 1237 1268 1619 1279 1155 993 1173 1536 1186 1049 807 465 25
0 0 6 37 0 2 0 17 8 49 0 58 274 510 391 341 353 461 518 530 622 712 805 930 1007 1125 1501 1953 1789 1566 1066 1229 847 973 833 1312 1537 1738 1761 1234 1026 1054 1067 1052 1069 761 253 17 8
0 0 0 5 0 19 0 53 133 221 9 46 101 366 463 403 427 488 502 494 533 750 897 1029 1160 1141 1478 2220 1858 1517 1410 1327 1327 1404 1489 1702 1696 1709 1762 1233 1007 1274 1129 976 894 623 141 3 2
1 0 43 112 1 77 3 93 237 243 220 0 23 80 340 357 403 508 565 523 567 660 971 1242 1233 1289 1457 1668 1561 1547 1388 1490 1523 1385 1624 1647 1707 1891 1844 1285 1342 1348 1078 796 582 393 0 0 5
3 32 15 17 8 29 74 50 127 277 239 116 15 6 97 235 393 431 607 599 570 676 1002 1380 1560 1794 1651 1566 1653 1456 1188 1269 1223 963 1675 2309 1844 1758 1763 1536 1357 1115 1139 715 132 19 2 14 27
0 5 33 20 20 2 73 124 122 481 318 189 85 36 29 71 184 454 626 647 574 834 1105 1487 1753 2015 1875 1738 1737 1687 1334 993 886 903 1305 1783 1731 1587 1559 1594 1042 1020 768 672 194 5 0 13 36
0 0 16 41 90 18 85 44 96 124 396 357 152 110 61 49 44 334 519 653 733 952 1222 1784 2260 2415 2297 2123 1788 1696 1624 1502 1524 1178 1570 1904 2017 1999 2061 1843 1709 1623 596 0 130 0 0 0 44
0 0 3 36 16 45 15 96 52 57 85 349 360 209 120 70 70 134 580 791 760 916 1297 1799 2485 2563 2664 2408 1877 1704 1243 786 419 476 629 1347 2114 1934 1950 1924 1263 1250 0 79 0 0 0 0 3
0 0 3 18 78 11 32 60 11 6 42 91 344 382 213 76 137 173 456 727 781 861 1181 1680 2517 2848 2765 2604 2076 1505 1381 710 880 474 1252 1225 2272 1555 1164 1042 1447 755 0 7 0 0 0 30 0
0 0 3 14 41 52 92 66 72 8 27 93 136 363 445 309 112 431 374 557 684 839 1084 1517 2592 3083 3210 2937 2494 1873 1719 1245 662 636 1268 1147 846 1279 952 718 1306 542 0 23 5 1 3 2 7
0 0 0 3 16 7 38 90 3 103 27 30 37 60 250 500 241 274 612 640 733 911 1161 1504 2324 3336 3302 2920 2772 2514 2207 1923 1719 1737 1408 886 347 543 1399 906 1652 552 54 22 2 0 10 7 6
0 0 0 0 7 9 11 21 33 26 9 30 44 14 67 342 437 150 421 709 956 925 1397 1558 2015 3066 3431 3070 2999 3068 2903 2161 1627 1686 1516 936 606 423 691 1160 1133 713 52 83 27 0 0 7 2
0 0 0 1 19 13 13 11 3 9 44 35 13 0 11 63 362 291 207 499 768 818 1264 1596 2017 2666 3111 2536 3393 3304 3165 2833 1612 1691 1806 1654 1006 453 213 746 782 519 101 149 31 0 5 0 0
0 0 0 0 1 9 21 17 14 10 0 0 9 2 2 18 336 365 214 338 585 728 1095 1605 2058 2656 2616 2635 3140 3107 3114 3218 2702 2394 2168 1709 1381 803 599 806 711 402 131 231 94 18 0 0 0
0 0 0 0 0 1 13 23 11 17 4 0 0 0 13 26 190 472 284 268 431 523 762 1257 1735 2289 2673 2749 2575 2660 2707 2819 2859 2570 2200 2207 1496 1664 804 955 583 173 161 166 115 62 13 33 21
0 0 0 0 0 0 1 20 12 0 0 0 1 3 14 15 83 313 420 261 326 537 486 755 1110 1461 2267 2673 2911 2868 2810 2675 2627 2697 2551 2570 2021 1771 961 732 596 61 77 54 104 87 7 4 2

GFSSGP_con_mlcape_006.txt.gz
CAPE
315 601 863 962 67 11 81 24 145 87 70 125 41 7 121 300 190 1 102 163 120 109 131 413 500 634 756 668 1168 1471 1440 1251 1453 1678 1948 2009 2071 1955 1924 1894 1886 1852 1789 1711 1612 1576 1594 1412 1194
471 1010 1297 8 10 2 125 68 102 77 134 197 137 36 67 232 86 46 201 224 83 71 112 241 670 662 770 685 700 945 1176 1305 1321 1553 1669 1972 2032 1752 1656 1633 1664 1774 1709 1515 1497 1550 1618 1707 1453
813 1296 1056 802 178 55 69 12 202 238 102 164 103 202 85 424 136 197 119 166 50 187 325 431 553 626 739 587 712 1002 1232 1297 1382 1437 1462 1920 1813 1565 1565 1577 1655 1708 1656 1592 1601 1605 1534 1658 1771
1218 1640 1448 1042 174 58 201 124 108 94 313 239 262 103 164 168 325 76 201 144 243 578 522 652 708 866 1020 1040 1124 1209 1316 1364 1352 1321 1554 1779 1583 1436 1630 1590 1497 1516 1510 1525 1624 1672 1668 1679 1830
1649 1044 670 283 71 289 158 175 130 51 271 248 75 51 176 372 191 199 231 323 631 500 578 600 1012 1322 1343 1421 1249 1395 1632 1642 1425 1472 1706 1607 1572 1505 1708 1461 1355 1362 1530 1516 1622 1467 1604 1533 1764
16 680 271 1 0 24 70 267 119 99 321 235 229 325 399 168 178 330 357 455 647 376 636 745 1198 1398 1493 1662 1786 1654 1726 1780 1676 1550 1606 1555 1557 1556 1621 1308 1266 1338 1518 1625 1699 1375 1434 1530 1338
0 243 123 48 0 4 18 45 41 76 216 288 420 360 383 290 414 449 476 654 584 774 804 964 1107 1536 1659 1747 1611 1737 1713 1844 1735 1509 1500 1389 1489 1473 1475 1229 966 1344 1418 1492 1591 1078 1005 1192 982
132 238 14 10 1 0 0 18 19 25 276 195 636 358 460 474 617 718 607 681 863 679 961 1219 1313 1284 1452 1537 1822 1669 1623 1510 1586 1571 1283 1126 1383 1435 1138 839 1243 1070 1057 1210 1149 680 692 897 994
61 6 35 12 1 0 0 0 39 141 107 441 462 338 552 755 839 759 809 806 795 834 1129 1039 1172 1412 1445 1387 1565 1838 1556 1226 1494 1227 937 877 1025 1137 1361 1429 1517 997 1265 938 608 385 807 1069 1201
34 19 11 0 3 0 0 0 0 0 7 173 385 475 544 875 754 774 756 691 1022 769 1144 993 1130 1540 1449 1134 1559 1562 944 673 914 884 655 647 1004 1292 1682 1612 1102 940 1384 1059 731 828 1006 1543 1565
5 0 1 17 5 1 0 0 0 0 1 65 679 594 542 829 953 930 941 769 788 892 790 903 998 1218 1462 1735 1319 1181 909 909 905 1071 1317 1121 1372 1026 820 937 0 1165 966 597 1112 1460 1209 902 897
5 0 5 2 10 35 0 5 0 3 11 24 451 760 646 696 769 735 768 623 854 948 1242 1743 1614 1415 1741 1517 1225 1416 1227 995 1111 1151 1056 1291 1814 1358 673 939 859 1090 726 1038 1077 1174 1001 1048 801
0 17 9 12 0 8 4 3 7 7 23 2 113 548 685 644 602 641 555 729 688 471 1348 1438 1607 1499 1701 1585 1013 882 1185 669 934 1307 1409 1028 1328 1262 767 1627 1401 1319 1407 1086 1016 935 1103 763 848
0 0 1 10 0 2 71 28 0 0 4 2 41 244 543 673 598 590 473 575 778 616 670 1076 1839 1671 1622 1530 1627 1517 656 829 637 887 1742 1217 1548 1250 1093 1329 922 1065 1208 1175 1048 1069 997 1086 931
0 0 0 0 0 7 1 14 0 0 0 3 55 74 247 531 672 647 453 543 669 653 841 1264 1583 1454 1248 1852 1701 1701 1394 517 727 660 1503 1487 1376 1591 1765 1593 1260 1260 1149 1529 1167 796 535 317 318
0 0 0 0 0 0 0 55 0 0 0 0 97 49 89 252 414 674 650 550 538 721 861 1075 786 1653 1444 1670 1689 1176 983 1106 1101 1319 834 1261 1374 1678 1758 1638 1152 573 1120 980 893 875 535 217 1
0 0 0 0 0 0 0 66 48 38 0 0 9 94 57 170 266 458 533 650 653 816 1135 1032 1160 1298 1822 1319 1716 1696 1638 1351 1113 1182 1258 1359 1354 1546 1500 1558 1097 1100 1283 1022 754 440 323 0 0
0 0 0 8 13 1 0 38 47 15 38 1 0 30 108 99 136 328 379 470 641 812 1182 1194 1092 1489 1764 2020 1930 1896 1633 1178 1270 1543 1596 1403 1432 1654 1377 1648 1396 1418 1202 738 375 294 13 0 0
0 0 0 0 21 0 46 38 0 0 112 0 21 0 40 140 181 294 391 445 471 892 1227 1277 1267 1480 2210 2259 1666 1415 1221 1367 1128 1019 1071 1617 2058 1681 1638 1642 1232 1140 1090 629 322 6 0 3 7
0 0 1 4 25 4 34 99 10 113 169 112 0 7 4 3 92 295 485 430 517 737 1002 1582 1554 1890 1646 1924 1834 1604 1431 1167 1402 1633 1640 1855 1739 1839 1395 1436 1204 1123 968 718 332 23 0 1 3
0 0 0 0 4 2 5 31 120 159 118 56 53 7 0 15 10 293 472 517 590 784 1158 1462 1944 2053 2095 1849 1900 1662 1388 1632 1338 1573 1635 2249 2009 1816 1197 1616 1535 1025 419 227 199 26 0 0 57
0 0 0 0 6 4 9 0 45 10 381 123 72 51 31 6 19 120 508 699 710 826 1129 1713 2095 2193 2550 1699 2088 1521 1404 1532 1146 1448 1258 1847 1796 1833 1763 1696 1619 1274 170 151 42 0 0 18 6
0 0 0 0 0 4 106 41 7 91 277 346 205 104 87 60 20 27 498 645 766 875 1387 1739 2324 2411 2676 2386 2143 1892 1581 1066 633 407 1197 1842 1786 1746 1889 1733 1514 877 72 94 44 21 0 134 0
0 0 0 0 0 0 11 9 1 30 17 5 210 297 167 174 91 70 317 576 798 939 1532 1616 2562 2893 2807 2904 2020 2000 1401 1326 972 1285 1373 1690 1787 1717 1246 1056 1213 650 43 258 73 51 79 1 58
0 0 0 0 0 0 3 18 11 19 16 3 0 49 307 313 221 158 244 684 928 1059 1344 1820 2391 2930 3040 3006 2701 1950 1942 1260 1427 1506 1651 1537 1045 1571 1263 815 1366 752 126 163 120 132 171 65 0
0 0 0 0 0 0 0 0 22 53 18 15 1 0 209 430 393 282 442 612 1017 1073 1296 1735 2412 2821 3323 3008 3030 2573 1938 1940 1661 1913 1282 1549 676 592 1167 922 1445 1225 350 115 106 152 67 50 33
0 0 0 0 0 0 1 9 2 8 84 0 0 9 41 365 477 379 536 732 1026 1128 1257 1654 2437 3039 3489 3415 3372 3181 2571 2324 2018 1957 1843 1549 952 1084 1360 1155 1550 1153 548 250 219 53 60 78 80
0 0 0 0 0 0 0 0 19 9 68 8 0 0 5 34 486 558 472 961 1093 1245 1255 1750 2045 3053 3680 3532 3530 3427 3312 2598 2349 1783 1873 1362 1639 868 830 1309 942 1237 500 375 286 55 113 36 0
0 0 0 0 0 0 0 0 23 95 28 101 23 2 0 0 309 372 615 666 1162 1412 1406 1636 1964 2819 3458 3641 3415 3423 3402 3211 2497 3088 2639 1896 1696 1189 951 601 1138 1024 751 441 294 39 19 4 0
0 0 0 0 0 0 0 0 0 8 68 16 5 0 0 2 33 151 654 620 929 1207 1339 1610 2017 2527 3115 3353 3317 3362 3397 3455 3218 2545 3057 2371 2564 1715 1043 1175 1192 1145 505 494 321 25 0 162 84

GFSSGP_con_mlcape_009.txt.gz
CAPE
229 298 325 488 9 14 15 53 124 60 66 32 4 50 104 107 9 0 10 24 28 35 259 227 667 1115 1320 1319 1467 1315 1405 1649 1744 1528 1470 1573 1589 1745 1905 1869 1780 1722 1708 1550 1566 1566 1424 1229 1187
217 399 2 0 0 2 12 13 0 166 49 1 32 140 96 27 1 4 56 89 53 73 356 501 838 927 1180 1415 1489 1119 1239 1590 1599 1460 1485 1596 1670 1755 1647 1662 1729 1674 1544 1516 1511 1524 1726 1580 1286
496 767 155 97 13 0 0 13 125 213 47 117 52 60 215 35 43 66 58 47 9 82 230 592 840 541 959 1202 1253 1258 1213 1372 1383 1647 1806 1786 1587 1543 1562 1585 1624 1597 1609 1585 1559 1558 1601 1766 1501
475 420 2 184 132 74 3 109 36 271 239 169 152 208 44 153 160 107 133 15 106 195 379 965 784 814 692 1008 1313 1152 1142 1328 1339 1481 1850 1555 1454 1543 1423 1419 1459 1477 1511 1638 1640 1736 1562 1577 1723
767 222 303 258 215 52 91 108 220 253 271 223 158 167 169 55 53 154 72 404 340 333 529 811 888 893 843 1130 1168 1127 1170 1260 1359 1621 1640 1618 1466 1608 1373 1315 1296 1408 1457 1602 1579 1258 1380 1031 1306
0 38 239 71 253 112 87 141 234 119 161 237 238 276 152 93 122 107 298 413 422 370 523 937 1224 1309 1189 1118 1243 1462 1515 1396 1476 1622 1532 1508 1398 1447 1235 1184 1254 1423 1635 1565 1392 1047 1097 887 740
0 1 111 13 11 135 192 186 284 219 300 289 320 201 156 177 132 310 503 531 316 498 565 1016 1289 1469 1494 1527 1457 1689 1782 1668 1601 1557 1423 1337 1213 1251 1126 999 926 1113 1185 1426 1169 806 831 882 744
152 92 38 10 44 12 85 49 192 260 463 389 244 160 228 256 339 357 542 461 634 665 692 810 1223 1439 1464 1687 1671 1600 1714 1824 1625 1538 1310 986 1076 1219 1036 1075 893 869 635 783 1031 830 824 876 981
110 61 14 25 41 1 23 141 368 379 450 342 368 292 488 384 400 510 588 561 677 781 827 796 1040 1231 1373 1242 1558 1770 1652 1492 1558 1467 1149 521 896 993 1103 915 1379 1275 929 531 658 773 912 1053 1370
0 18 8 5 11 0 5 192 232 563 594 376 496 561 547 661 573 487 599 648 688 881 1008 946 932 962 1039 1223 1622 1276 1028 866 823 608 332 617 613 749 1173 1016 353 602 517 851 817 851 1192 1436 1159
0 0 6 11 1 2 5 0 0 282 442 408 476 629 646 757 663 615 629 684 691 927 972 961 1127 1170 1024 988 897 1044 620 464 679 761 825 563 1007 574 128 179 2 243 563 554 672 914 1115 1118 413
0 1 0 7 21 9 1 0 0 0 377 463 580 852 850 725 634 494 601 624 841 783 757 949 1203 983 1345 1208 800 919 649 506 644 883 953 1436 1051 410 127 30 469 592 301 831 521 734 1149 712 782
0 1 0 21 46 46 24 0 0 3 500 637 588 679 806 732 630 527 424 634 581 575 925 953 759 1285 1361 939 722 892 824 790 779 1019 957 715 1139 651 379 474 582 682 747 695 661 1038 773 841 789
0 0 21 11 0 94 42 0 4 56 727 740 662 458 680 830 739 668 395 543 518 1078 1070 1007 1065 1092 1276 1158 1326 1069 1212 1031 983 1194 944 999 1221 981 899 999 806 1037 1238 1094 863 622 571 341 255
0 0 0 2 0 10 90 0 0 31 166 681 701 624 572 682 705 543 523 449 748 996 1333 1253 1182 976 969 1202 1464 1405 1392 555 537 817 1403 1237 1041 985 1442 1245 873 1172 1176 1275 686 590 248 19 42
0 0 0 0 0 0 19 4 38 0 56 297 428 574 629 592 549 402 347 581 310 753 1239 1287 1410 937 1161 1188 1332 1343 1144 1138 531 1227 1311 1249 1163 1459 1568 910 1079 634 879 919 708 617 431 63 0
0 0 0 0 0 0 1 0 0 0 27 84 192 252 462 573 598 596 412 404 511 581 1037 1249 1331 1050 1094 1085 898 1183 755 720 1065 965 1174 1533 1382 1328 988 1109 947 769 1038 805 427 343 144 0 0
0 0 0 0 0 0 0 0 0 0 0 51 79 23 135 268 457 607 436 460 608 678 950 1003 1195 1333 1067 666 1121 1293 990 874 1552 1226 967 855 902 990 914 993 1089 1062 930 392 242 169 6 0 0
0 0 0 0 3 5 0 1 11 4 0 0 82 11 42 78 119 497 561 491 613 859 780 809 821 1538 1355 1143 1083 1099 1061 1459 1117 788 1240 1193 944 1169 1277 941 1109 1254 852 332 259 9 0 0 0
0 0 0 0 2 7 1 0 0 0 0 0 7 41 31 61 55 264 384 469 541 723 882 782 665 1280 1563 1388 1337 1112 1327 1253 1027 911 704 1073 1447 1495 1121 934 892 861 1030 421 90 3 0 0 0
0 0 0 0 0 2 37 4 8 0 0 0 7 2 36 62 87 129 238 325 381 631 889 900 709 841 1719 1742 1554 1279 1206 1054 1170 1200 1265 1553 1559 1223 1226 1029 952 863 555 384 77 0 0 0 0
0 0 0 0 0 0 36 4 20 8 91 129 48 0 4 57 107 126 261 290 352 583 788 1012 994 996 1275 1673 1612 1508 1106 929 1076 1298 1139 1187 1681 1502 1138 1112 1182 890 124 46 0 23 0 0 0
0 0 0 0 0 22 0 0 0 97 40 1 16 0 0 0 32 123 329 309 386 479 717 1128 1166 1129 1475 1365 1479 1268 1099 880 1157 1326 1212 1240 1916 1620 1469 1446 1395 871 1 3 24 1 0 25 0
0 0 0 0 0 0 0 0 0 35 9 7 35 0 0 0 0 72 270 424 384 656 875 1108 1416 1462 1733 1498 1613 1477 1326 1039 1063 718 894 1299 1556 1151 1201 1231 1074 669 43 9 33 39 0 62 49
0 0 0 0 0 0 0 0 0 34 41 26 99 31 37 1 0 0 245 501 510 725 900 1347 1458 1582 1921 1799 1379 1809 1673 1291 735 440 1137 1328 1199 1415 1502 1472 973 492 44 32 33 17 43 16 45
0 0 0 0 0 0 0 0 0 5 19 63 169 210 92 69 15 5 155 443 662 697 1081 1431 1677 1647 2019 2004 1927 1495 2021 1414 919 1365 1597 1211 1144 1381 1199 1019 755 440 85 159 62 66 33 43 0
0 0 0 0 0 0 0 0 0 0 16 75 48 100 53 13 57 15 93 392 661 736 1207 1380 2040 2067 2172 2378 2283 1996 1731 1696 1446 1272 1474 1449 1177 1352 1155 933 838 639 352 60 86 57 1 146 20
0 0 0 0 0 0 0 0 0 0 5 26 31 39 43 2 17 94 134 366 652 791 1087 1452 1913 2228 2497 2342 2550 2238 2139 1648 1547 1505 1039 1884 1050 791 874 1058 1013 1005 529 114 109 49 15 7 30
0 0 0 0 0 0 0 0 0 0 6 105 41 26 36 4 43 178 195 345 717 932 1138 1409 1911 2443 2611 2785 2690 2470 2181 2072 1702 1734 1349 1582 1495 1066 957 879 1201 1027 563 256 178 62 14 52 1
0 0 0 0 0 0 0 0 0 0 15 142 81 40 31 1 29 143 295 467 889 1061 1074 1386 2189 2429 2680 2844 2907 2719 2555 2556 2151 1606 1927 1818 1506 1317 1168 1036 782 997 751 389 228 126 68 15 48

GFSSGP_con_mlcape_012.txt.gz
CAPE
412 488 263 220 24 32 9 63 108 39 1 29 11 14 13 38 0 0 0 0 0 0 31 138 587 994 1310 1455 1326 1399 1361 1170 1625 1558 1540 1693 1652 1858 1840 1793 1808 1735 1581 1600 1687 1556 1347 1281 1179
589 309 27 1 9 1 14 60 36 134 121 131 121 42 22 1 0 0 0 0 0 5 45 282 922 1189 1356 1433 1442 1564 1614 1532 1617 1700 1794 1728 1728 1788 1731 1789 1713 1626 1597 1570 1569 1729 1794 1485 1193
55 72 93 91 26 21 39 16 141 48 94 21 153 88 2 4 2 0 0 19 32 74 201 434 1040 1304 1412 1254 1500 1594 1682 1383 1456 1581 1410 1415 1541 1700 1660 1604 1607 1646 1628 1662 1667 1682 1649 1754 1334
2 0 5 271 89 39 131 214 446 226 177 178 92 0 42 31 35 27 64 17 41 154 420 1082 1208 1372 1395 1417 1453 1485 1417 1351 1771 1720 1482 1492 1656 1574 1480 1509 1542 1598 1674 1635 1686 1604 1461 1454 1519
9 86 79 79 147 147 221 0 259 344 311 214 1 42 32 74 43 68 22 30 83 122 476 1119 998 1324 1439 1519 1478 1404 1163 1242 1550 1670 1460 1476 1666 1448 1387 1340 1418 1560 1550 1660 1336 1189 1181 1041 1246
234 191 97 4 4 153 260 111 342 323 294 162 53 30 23 69 84 55 60 124 243 311 689 976 1113 893 1388 1357 1356 1243 1129 1192 1605 1560 1541 1424 1588 1364 1126 1157 1310 1462 1704 1632 1141 916 1068 1038 1006
2 1 38 1 27 212 330 368 269 321 238 217 134 31 91 146 140 187 225 285 305 425 663 946 1010 908 1140 1398 1364 1376 1302 1330 1471 1405 1333 1420 1378 1265 944 844 1089 1211 1351 1425 1077 721 831 914 737
43 9 2 0 6 35 236 272 295 247 386 320 131 46 129 182 141 317 371 374 319 409 749 975 1189 1089 1317 1244 1589 1720 1767 1521 1334 1372 1209 1204 1318 1211 1361 992 908 975 982 1146 864 603 803 970 1019
137 68 0 0 10 77 297 337 343 468 290 232 335 102 141 154 286 408 303 390 367 408 655 971 1130 1246 1275 1424 1550 1650 1698 1690 1479 1359 1047 836 1016 1063 905 1139 1125 1228 1279 685 664 673 958 1210 1215
413 22 0 32 14 60 193 328 536 350 262 357 251 226 171 312 393 455 452 452 575 443 450 780 1119 1068 1278 1451 1354 1366 1361 1266 1199 976 569 669 739 690 1052 977 479 292 813 956 847 1006 1159 1216 841
5 0 0 12 32 133 344 441 540 324 345 235 223 271 346 349 367 430 485 586 636 502 555 647 812 971 1047 824 1149 960 883 619 512 288 194 502 694 511 586 133 22 31 328 500 588 729 906 1082 431
0 0 0 20 25 56 261 429 638 389 363 328 271 365 387 403 433 475 504 594 669 765 780 671 630 704 539 444 945 497 295 154 283 522 620 486 658 347 3 4 353 400 533 263 601 625 864 929 282
0 0 0 1 52 3 6 339 523 521 527 550 497 527 506 445 434 436 457 532 759 862 828 763 797 718 635 628 390 440 124 218 366 475 702 920 794 471 123 304 417 503 588 472 568 639 844 832 542
0 0 0 0 9 42 0 21 61 347 621 629 481 521 639 547 511 414 459 532 678 843 786 939 943 794 881 1158 577 407 525 395 391 583 785 924 655 496 337 348 632 799 792 749 824 699 474 141 22
0 0 0 0 0 8 1 7 33 633 631 688 641 621 627 615 538 381 385 504 674 611 743 851 987 914 1058 1075 613 672 879 901 646 772 925 914 987 658 703 743 643 858 762 950 642 400 172 11 7
0 0 0 0 0 0 10 27 441 699 691 784 818 846 768 672 554 377 217 311 534 624 733 800 1043 1084 1131 967 1082 1308 1299 769 828 852 1020 974 985 892 1071 970 953 771 595 708 619 486 313 41 0
0 0 0 0 0 4 7 6 182 711 659 607 643 851 787 744 662 556 326 357 457 758 889 887 875 932 1015 1002 1196 1255 986 818 722 929 999 1096 996 1091 1019 780 668 657 687 580 386 337 140 4 0
0 0 0 0 0 1 3 1 0 741 677 599 599 493 520 695 851 549 475 250 491 834 1044 1022 1003 704 833 774 997 906 833 685 934 925 933 1115 1223 1302 946 783 799 564 818 573 252 112 3 0 0
0 0 0 0 0 0 0 2 1 252 524 527 591 535 412 478 471 423 220 300 347 687 1007 1086 1043 727 779 879 935 681 667 679 522 1189 736 991 1120 1072 821 729 905 857 866 414 153 6 0 0 0
0 0 0 0 0 0 4 1 0 19 84 219 297 376 396 354 370 389 292 353 341 582 888 1113 955 836 816 811 795 718 737 805 528 1172 909 809 788 755 847 812 836 1035 845 467 140 0 0 0 0
0 0 0 0 0 0 4 25 5 0 5 18 82 110 207 138 221 294 394 329 424 573 679 758 934 1042 967 961 765 864 799 748 964 1064 947 904 1007 938 1038 1113 779 678 756 473 74 4 0 0 0
0 0 0 0 0 0 1 0 18 0 0 0 13 36 88 78 48 102 351 323 364 491 578 641 819 1119 1181 1183 1052 986 882 739 994 984 989 1145 1191 1051 1266 840 631 465 431 267 86 0 0 0 0
0 0 0 0 0 0 0 0 0 8 0 0 0 9 89 42 40 11 199 321 326 414 582 579 537 1123 1233 1326 1224 1103 1070 870 751 830 958 1067 1272 1369 1100 1011 783 576 205 95 10 0 0 0 0
0 0 0 0 0 0 0 0 0 0 0 0 0 1 10 37 26 4 70 181 275 366 580 655 594 680 1146 1332 1381 1324 1194 990 711 661 867 1132 1341 1317 1211 1007 1056 735 161 17 0 0 0 0 1
0 0 0 0 0 0 0 0 0 0 0 0 6 7 0 3 37 1 4 95 143 259 520 788 754 665 900 1260 1270 1255 1169 1053 797 597 903 1261 1293 1213 1380 1204 1157 724 178 0 0 0 0 1 4
0 0 0 0 0 0 0 0 0 0 0 0 16 7 0 0 7 15 10 70 83 215 520 783 905 829 978 1047 1199 1278 1247 1085 897 705 896 996 1147 1413 1223 1091 917 556 230 10 0 0 0 0 4
0 0 0 0 0 0 0 0 0 0 0 0 4 15 0 0 0 0 34 68 145 240 494 753 1037 999 1096 1195 1066 1227 1326 1209 1079 1037 1161 924 1067 1147 1037 1012 1027 646 211 49 1 0 0 0 0
0 0 0 0 0 0 0 0 0 0 0 0 1 10 9 1 0 0 1 108 258 236 548 888 1095 1089 1236 1363 1315 1234 1313 1440 1319 1149 1177 1357 1221 1167 1040 1141 1047 660 209 158 40 6 5 0 26
0 0 0 0 0 0 0 0 0 0 0 0 0 15 28 19 16 0 9 98 258 367 736 1015 1208 1220 1439 1612 1558 1572 1458 1341 1548 1468 1396 1280 1185 975 1079 1029 943 597 321 196 85 9 5 0 6
0 0 0 0 0 0 0 0 0 0 0 0 0 6 140 127 34 40 22 71 266 524 858 1000 1433 1403 1483 1697 1785 1703 1785 1742 1418 1370 1380 1408 1331 1160 1148 1037 1022 785 513 303 199 77 5 0 0

GFSSGP_con_mlcape_015.txt.gz
CAPE
573 528 200 107 42 12 7 50 66 0 0 25 1 1 0 0 0 0 0 0 0 0 8 30 197 1060 1304 1328 1436 1225 1269 1248 1233 1382 1527 1589 1735 1781 1740 1736 1719 1648 1641 1735 1700 1460 1334 1278 1282
612 71 15 0 0 0 16 73 51 53 104 45 50 31 16 2 0 0 0 0 0 3 61 143 538 1018 1281 1415 1460 1273 1622 1472 1465 1513 1649 1678 1767 1700 1748 1730 1655 1629 1620 1599 1649 1912 1731 1413 1092
248 140 36 10 0 0 17 35 127 166 106 72 77 16 4 1 2 0 2 0 0 24 142 571 839 1162 1215 1439 1466 1796 1869 1592 1486 1620 1625 1675 1651 1627 1604 1587 1647 1682 1684 1700 1722 1673 1679 1167 671
61 14 5 73 0 1 37 140 147 119 148 44 22 4 11 7 2 19 6 0 0 73 307 992 1135 1191 1185 1429 1580 1684 1534 1560 1532 1482 1482 1531 1537 1533 1590 1656 1716 1690 1696 1679 1705 1538 1546 1020 588
10 14 41 34 55 3 55 125 342 176 224 135 17 4 4 69 52 16 64 57 30 123 521 1120 1240 1348 1251 1315 1460 1377 1508 1756 1612 1521 1436 1537 1491 1452 1469 1503 1613 1564 1602 1651 1321 1401 1325 1125 1190
79 108 18 0 10 87 36 23 446 411 211 70 29 31 71 117 31 76 82 66 85 179 831 1079 1276 1306 1396 1255 1306 1351 1288 1362 1599 1552 1424 1608 1637 1400 1419 1442 1509 1577 1629 1547 1207 1140 915 625 1072
160 0 1 1 64 197 217 51 410 354 192 51 41 51 110 86 92 48 74 151 164 269 764 958 1138 1240 1396 1367 1362 1337 1213 1239 1529 1578 1421 1424 1724 1345 1234 1183 1276 1238 1315 1229 1018 905 890 633 679
279 0 4 6 189 213 407 327 428 306 203 132 59 24 32 128 122 122 192 252 282 408 532 778 836 859 1211 1357 1279 1299 1266 1248 1518 1388 1308 1500 1608 1436 1366 1049 993 1237 896 777 803 865 967 959 625
29 66 0 0 16 68 396 390 368 375 261 116 179 116 102 189 206 211 272 324 362 467 453 626 694 794 1110 1226 1232 1441 1477 1423 1504 1425 1178 1237 1299 1210 1157 1264 1102 1607 1293 645 668 808 963 688 759
385 52 0 0 0 152 394 392 369 391 212 267 301 166 225 229 273 307 353 389 305 350 516 687 685 783 995 1095 1239 1458 1498 1510 1378 1127 881 1123 764 744 820 1053 960 578 1033 853 864 886 847 804 602
191 13 0 0 0 210 403 411 490 358 213 244 119 142 255 333 348 352 431 401 245 315 517 778 870 977 914 773 1018 1229 1165 1174 1021 786 560 756 565 867 1001 584 281 0 354 417 578 599 791 724 311
0 0 1 0 0 252 418 485 564 287 156 311 84 140 225 390 418 363 432 407 360 333 388 650 849 837 731 716 830 863 764 699 460 303 434 371 657 435 388 0 50 68 295 300 340 510 572 682 453
0 0 0 0 0 28 456 625 589 411 536 353 240 178 232 374 436 395 441 436 510 335 340 474 698 634 622 430 405 501 290 344 126 138 266 285 398 506 233 34 363 331 442 421 454 575 753 836 255
0 0 0 0 0 82 486 705 700 557 586 452 266 278 346 345 398 440 446 451 534 440 437 485 501 412 443 239 109 248 314 151 51 193 512 679 785 647 163 28 311 490 553 572 674 756 555 96 29
0 0 0 0 0 32 212 541 565 665 672 541 390 391 400 370 396 453 437 431 543 639 653 426 364 374 311 105 60 78 118 182 117 291 519 611 815 645 279 161 508 662 595 764 781 435 114 11 9
0 0 0 0 0 0 5 18 465 643 723 609 549 509 458 458 447 427 440 438 537 591 670 542 625 410 419 390 503 409 253 511 470 399 489 750 923 699 513 607 623 686 562 800 497 459 252 48 2
0 0 0 0 0 0 0 0 205 600 720 627 640 633 590 528 545 434 418 406 386 484 622 665 803 683 608 721 910 740 391 684 899 853 766 848 927 836 765 846 752 502 584 526 404 265 182 0 0
0 0 0 0 0 0 0 0 308 567 667 619 633 626 668 577 545 503 386 373 414 419 507 579 758 844 730 704 935 819 962 821 574 581 733 822 934 934 849 792 572 470 628 497 358 202 0 0 0
0 0 0 0 0 0 0 0 162 483 691 720 727 693 729 625 584 545 367 273 342 429 474 525 611 750 789 732 828 799 999 762 654 779 863 962 992 1013 914 758 624 568 539 584 278 70 0 0 0
0 0 0 0 0 0 0 0 22 378 481 588 698 730 730 667 657 618 436 341 158 322 587 584 574 706 711 745 807 834 790 766 646 571 860 811 938 1008 949 739 638 707 743 589 197 36 0 0 0
0 0 0 0 0 0 0 0 0 403 513 581 563 545 626 554 499 631 496 409 216 287 572 678 649 739 632 600 650 632 631 585 626 622 627 819 846 936 898 653 629 707 791 620 260 40 0 0 0
0 0 0 0 0 0 0 0 0 17 428 464 491 481 429 370 361 439 532 321 260 301 458 666 754 766 618 518 479 578 632 357 441 583 566 1037 891 768 710 769 787 716 675 417 255 19 0 0 10
0 0 0 0 0 0 0 0 0 0 0 60 185 260 315 295 247 269 356 318 242 217 455 678 763 767 679 497 548 621 555 413 455 498 592 876 945 898 817 799 866 525 320 442 190 33 0 0 0
0 0 0 0 0 0 0 0 0 0 0 0 0 7 60 134 176 212 236 291 295 265 415 593 657 728 753 607 676 666 619 608 597 355 543 822 892 1013 1017 967 857 549 309 209 126 20 0 0 0
0 0 0 0 0 0 0 0 0 0 0 0 0 0 0 3 65 81 116 197 278 372 520 555 504 699 817 786 808 789 771 678 626 601 642 626 811 953 1193 1067 950 716 411 214 56 0 0 0 0
0 0 0 0 0 0 0 0 0 0 0 0 0 0 0 0 4 16 43 57 208 246 445 509 498 589 903 971 922 919 878 772 735 714 671 542 792 1002 1204 1159 1032 859 492 154 29 0 0 0 0
0 0 0 0 0 0 0 0 0 0 0 0 0 0 0 0 0 5 21 7 80 169 215 498 509 472 775 976 1010 950 960 936 850 793 766 754 713 1096 1188 1093 1152 929 684 171 34 1 0 0 0
0 0 0 0 0 0 0 0 0 0 0 0 0 0 0 0 0 2 23 23 20 87 141 369 557 531 502 776 986 1002 938 981 931 830 792 772 754 963 1000 1099 1159 857 584 254 73 1 0 0 0
0 0 0 0 0 0 0 0 0 0 0 0 0 0 0 0 0 0 25 30 27 49 66 284 580 610 586 662 846 929 1001 1036 991 903 901 783 870 939 953 983 1163 764 560 339 115 8 0 0 0
0 0 0 0 0 0 0 0 0 0 0 0 0 0 0 0 0 0 8 18 56 59 72 262 502 700 667 761 883 879 863 996 1111 965 953 903 1047 1030 1127 1050 1005 789 625 488 282 101 38 0 0

GFSSGP_con_mlcape_018.txt.gz
CAPE
415 498 189 19 14 3 1 46 57 4 5 16 0 4 9 12 4 0 0 2 0 0 0 28 84 521 1366 1472 1447 1456 1292 1356 1586 1544 1546 1625 1624 1663 1639 1622 1632 1646 1740 1546 1441 1478 1394 1302 1048
649 241 36 0 0 0 1 35 28 18 6 1 8 15 27 4 0 1 0 0 1 0 32 49 323 1198 1438 1380 1424 1552 1477 1510 1606 1545 1591 1701 1626 1670 1714 1624 1530 1525 1505 1496 1409 1514 1143 1054 734
236 176 58 14 0 5 14 20 65 58 74 68 10 5 0 1 0 0 0 4 0 0 37 134 642 1219 1417 1324 1566 1755 1576 1544 1544 1550 1698 1596 1601 1650 1538 1534 1592 1600 1596 1693 1642 1463 1168 911 694
213 20 6 67 13 23 0 54 77 74 44 39 4 0 0 2 0 4 0 0 16 26 191 709 1187 1249 1369 1399 1933 1905 1549 1407 1526 1545 1523 1573 1537 1505 1590 1704 1724 1739 1718 1642 1574 1469 1214 890 665
65 21 58 53 27 52 21 215 89 63 144 14 27 0 0 23 29 3 4 5 17 89 549 972 1196 1218 1393 1545 1806 1640 1502 1545 1390 1426 1547 1520 1476 1494 1545 1590 1671 1682 1735 1476 1334 1273 1086 971 897
65 92 40 41 21 131 43 29 324 166 84 15 0 0 22 65 14 15 17 24 74 178 697 982 1219 1259 1410 1406 1615 1575 1586 1659 1490 1397 1488 1449 1368 1392 1382 1445 1613 1722 1700 1416 1089 941 792 931 940
102 4 43 34 34 153 176 5 354 159 97 25 4 2 54 37 60 67 51 61 108 341 684 878 1138 1113 1288 1307 1403 1284 1383 1644 1515 1505 1402 1525 1546 1296 1290 1305 1388 1323 1428 1116 953 766 715 691 847
202 1 42 4 101 153 303 221 280 268 135 46 32 7 17 37 97 100 106 94 129 417 674 797 975 1084 1247 1274 1278 1271 1266 1479 1477 1470 1495 1549 1713 1486 1216 998 1022 1279 957 923 745 786 746 534 650
212 155 0 0 128 142 315 300 354 281 114 73 55 33 38 73 95 143 138 134 165 385 574 729 781 920 1123 1167 1261 1331 1343 1378 1421 1447 1399 1520 906 976 925 1259 1138 1422 1084 691 652 775 446 591 505
344 90 0 0 3 3 283 371 408 364 160 106 80 75 69 93 122 123 129 117 158 212 383 541 582 663 1027 1186 1037 1222 1221 1274 1299 1207 1080 1239 872 727 768 1077 1034 459 983 939 832 621 579 639 382
456 7 5 0 0 0 223 387 440 392 108 86 45 118 81 129 134 173 202 181 186 233 322 486 491 651 877 920 873 1180 1195 1299 1144 1041 852 856 666 559 1020 729 591 2 227 344 541 452 636 612 165
48 0 3 0 0 0 167 400 462 408 120 121 142 101 125 150 172 222 263 289 274 279 288 381 494 562 814 698 683 959 989 948 875 785 654 504 536 573 498 299 0 0 121 348 249 439 560 530 299
0 0 0 0 0 0 197 304 389 458 361 335 204 125 129 172 241 280 302 337 319 286 341 490 601 553 658 577 524 611 696 535 421 438 417 326 283 506 240 50 204 198 332 368 429 458 746 700 253
0 0 0 0 0 0 11 255 463 503 393 315 166 144 160 206 270 292 347 368 318 228 273 475 567 669 693 479 295 330 497 322 292 172 181 207 223 449 468 174 138 343 329 414 670 705 425 31 33
0 0 0 0 0 0 46 312 353 473 410 346 171 165 212 306 329 272 355 393 385 308 250 336 438 564 541 329 201 189 262 254 150 61 82 394 577 585 605 141 116 482 525 641 715 449 131 9 0
0 0 0 0 0 17 105 15 400 520 492 428 216 164 211 321 377 340 359 399 428 410 287 278 345 389 338 220 165 18 110 228 70 0 141 438 559 589 620 312 242 513 549 496 517 415 307 66 0
0 0 0 0 0 0 46 0 129 578 540 513 354 225 269 303 360 383 365 401 378 457 369 366 378 295 203 136 95 6 16 49 108 201 241 381 544 670 659 484 593 652 452 562 469 307 154 0 0
0 0 0 0 0 0 10 0 5 544 573 572 490 337 357 316 251 348 390 364 351 476 517 486 372 322 171 153 168 107 298 392 266 515 719 743 746 783 598 461 668 508 429 403 252 202 0 0 0
0 0 0 0 0 0 0 0 23 224 495 560 550 455 410 353 342 378 354 385 334 414 473 437 460 501 400 247 344 471 739 662 400 621 488 610 684 790 787 629 636 370 429 458 296 95 0 0 0
0 0 0 0 0 0 0 0 0 187 191 288 481 520 475 469 462 445 394 304 294 282 249 353 448 549 624 532 451 622 704 636 748 670 553 640 741 798 833 718 678 483 503 406 308 80 0 0 0
0 0 0 0 0 0 0 0 0 81 411 516 502 512 482 517 432 393 423 285 208 243 224 272 365 473 606 654 529 491 572 592 740 652 613 634 736 816 861 748 699 583 556 598 454 102 0 0 0
0 0 0 0 0 0 0 0 0 0 134 386 497 573 519 527 567 447 357 295 158 131 174 247 332 419 481 609 576 471 480 542 641 681 585 528 680 685 780 882 745 589 591 586 502 90 0 0 0
0 0 0 0 0 0 0 0 0 0 31 212 414 483 596 561 529 503 399 363 293 105 89 251 320 389 448 497 571 505 433 454 376 436 503 524 560 712 698 724 660 634 672 509 337 109 0 0 0
0 0 0 0 0 0 0 0 0 0 0 57 279 388 388 405 454 497 456 416 336 222 85 217 367 390 504 462 502 475 384 327 270 365 279 350 550 722 834 732 704 679 648 382 238 135 1 0 0
0 0 0 0 0 0 0 0 0 0 0 0 0 83 220 345 332 319 268 296 394 201 147 222 404 453 521 470 437 417 388 321 332 377 347 364 387 655 816 863 789 713 638 358 202 109 4 0 0
0 0 0 0 0 0 0 0 0 0 0 0 0 0 5 69 193 268 264 164 206 226 151 237 412 476 556 506 456 453 434 369 416 434 411 434 204 457 809 844 910 879 717 438 197 93 0 0 0
0 0 0 0 0 0 0 0 0 0 0 0 0 0 0 0 0 31 170 163 126 128 150 254 382 460 542 575 522 487 489 468 473 501 478 539 461 525 613 767 887 941 779 555 329 116 5 0 0
0 0 0 0 0 0 0 0 0 0 0 0 0 0 0 0 0 0 0 17 48 98 121 237 353 393 449 610 653 633 606 595 586 598 565 571 621 712 622 823 1003 970 771 566 404 147 17 0 0
0 0 0 0 0 0 0 0 0 0 0 0 0 0 0 0 0 0 0 2 9 30 97 181 354 414 403 648 760 767 737 749 726 671 643 659 716 747 828 767 985 958 796 661 528 263 89 11 0
0 0 0 0 0 0 0 0 0 0 0 0 0 0 0 0 0 0 0 0 1 3 19 107 275 418 403 476 805 858 857 870 811 733 721 695 726 764 847 751 942 915 756 719 651 497 187 60 0

GFSSGP_con_mlcape_024.txt.gz
CAPE
49 200 249 99 56 137 144 160 115 32 64 68 20 152 114 9 32 162 79 8 229 65 122 489 895 1004 994 1133 1494 1686 1703 1603 1688 1493 1487 1626 1561 1528 1723 1444 1627 1612 1574 1597 1558 1474 1278 1212 1256
149 311 238 120 120 98 160 212 124 96 114 82 90 104 87 7 25 75 135 111 183 215 241 451 652 1084 1359 1590 1645 1598 1532 1600 1603 1614 1634 1605 1428 1561 1556 1389 1422 1633 1514 1569 1498 1268 1287 1176 1073
487 339 218 175 177 69 90 258 224 105 87 124 186 269 319 171 53 106 117 129 177 231 338 576 1116 1542 1644 1689 1600 1577 1537 1588 1672 1667 1642 1664 1554 1545 1500 1275 1094 1449 1670 1570 1352 1204 985 907 810
370 264 92 219 156 112 140 260 190 180 197 169 192 225 72 49 51 57 69 88 153 246 353 636 1468 1515 1552 1554 1560 1591 1581 1647 1688 1662 1668 1708 1566 1641 1280 1413 1021 1413 1484 1465 1331 1070 1140 807 716
371 84 227 285 135 124 231 376 334 299 262 206 171 129 36 63 74 37 76 103 113 240 423 725 1488 1408 1544 1658 1623 1566 1606 1621 1686 1610 1587 1568 1613 1550 1424 1448 1582 1621 1345 1238 1066 1116 1264 885 1016
430 329 241 66 73 194 229 343 361 393 276 214 133 77 171 124 80 72 88 93 180 303 375 567 1394 1445 1613 1800 1613 1543 1513 1581 1622 1580 1562 1546 1530 1506 1586 1663 1684 1527 1210 1139 984 913 1065 939 965
435 275 154 108 107 223 235 375 370 330 381 193 116 239 199 129 96 86 136 130 161 297 170 362 681 1005 1413 1765 1452 1459 1499 1535 1623 1639 1599 1418 1360 1382 1325 1419 1393 1380 1194 1026 922 868 814 903 798
353 317 185 120 163 270 352 462 498 483 386 132 138 128 180 193 157 147 175 171 232 335 202 216 438 526 1019 1094 1518 1573 1573 1605 1576 1562 1502 1292 949 1049 1178 813 1130 1171 1037 953 814 728 667 643 692
390 439 162 91 176 169 399 612 530 508 231 123 144 160 206 232 174 198 238 234 285 383 253 150 242 430 661 720 950 1277 1524 1628 1442 1195 1199 854 1336 1498 1440 893 1076 1018 918 765 563 397 393 378 274
396 403 110 39 5 0 102 522 683 424 276 146 239 196 236 216 237 244 308 363 507 311 297 157 115 290 473 376 611 587 425 378 593 516 949 1310 1298 1592 1376 1159 853 544 837 778 595 437 443 415 103
232 333 80 26 5 0 35 526 754 380 237 222 376 289 293 242 274 274 278 254 267 305 230 246 184 295 364 251 490 464 475 532 895 1165 975 1209 1531 1483 1285 1243 1270 602 454 1030 656 724 623 371 331
136 124 199 45 0 0 0 237 692 510 268 299 469 356 351 296 279 261 215 185 184 266 283 330 374 329 294 310 361 358 288 380 540 651 1064 1268 1361 1367 1379 996 961 838 782 1116 815 838 623 806 1029
94 29 1 4 0 0 0 19 259 571 440 390 540 386 375 333 283 232 181 165 147 211 242 281 377 508 402 447 220 124 264 286 422 748 751 954 1344 1513 1474 1293 1113 1252 911 956 895 751 527 1070 867
4 21 0 0 0 0 0 0 153 384 573 472 512 380 410 378 323 258 203 200 194 202 247 326 439 553 579 569 515 395 546 529 643 469 296 1004 1341 1467 1316 1356 1127 1211 1203 1241 761 603 987 289 433
0 0 0 0 0 0 0 0 68 299 723 731 641 502 431 393 358 303 223 249 267 274 293 356 573 678 799 865 954 872 548 603 481 227 382 785 1226 1675 1675 1469 1191 990 1185 965 898 830 945 256 33
0 0 0 0 0 0 0 18 64 368 709 888 833 692 509 418 323 278 255 277 328 454 593 656 619 673 844 846 966 737 495 459 219 53 116 726 1277 1868 1964 1465 1064 1258 1275 928 773 677 569 402 103
0 0 0 0 0 0 0 11 20 356 633 840 959 840 667 489 344 294 345 369 504 817 893 1005 992 848 991 1080 1019 927 554 453 163 85 89 823 1229 1581 1821 1433 1204 1546 1434 1006 745 865 671 171 21
0 0 0 0 0 0 0 1 5 125 348 611 999 914 725 534 461 390 444 442 598 831 1039 1086 1090 1093 1154 1100 1162 810 393 329 244 224 245 634 1172 1508 1925 1651 1058 1051 1423 1067 1126 895 558 98 0
0 0 0 0 0 0 0 0 0 42 338 391 873 982 840 720 574 489 565 610 683 773 995 1017 982 1116 1277 1016 827 491 190 242 221 192 602 1190 1609 1915 2175 1699 1143 1039 1216 1084 871 958 602 78 0
0 0 0 0 0 0 0 0 0 3 267 407 747 909 931 861 689 615 615 610 528 747 931 1168 1081 1183 1375 1085 756 382 188 160 261 350 775 1374 1780 2159 2190 1730 1354 1170 1188 1162 1166 730 311 93 0
0 0 0 0 0 0 0 0 0 0 3 122 441 786 834 858 809 667 616 567 508 661 983 1151 1281 1219 1363 981 809 564 411 379 446 623 1026 1356 1873 2009 2245 1766 1390 1454 1365 1247 1582 1167 719 133 4
0 0 0 0 0 0 0 0 1 0 0 1 106 462 721 845 864 826 637 518 501 639 931 1182 1409 1480 1546 1249 725 675 487 584 653 921 705 1046 1807 1790 1899 2072 1859 1759 1465 1554 1519 1285 978 767 17
0 0 0 0 0 0 0 0 0 0 0 0 9 142 598 711 892 940 819 489 395 633 837 1135 1471 1740 1607 1564 993 885 837 846 899 811 862 1365 1601 1931 1749 1969 1898 1873 1684 1727 1916 1644 1425 787 139
0 0 0 0 0 0 0 0 0 0 0 0 26 157 531 694 803 961 1007 642 447 600 931 1112 1531 1958 1853 1690 1547 1484 1400 1151 952 1105 970 1126 1293 1446 1687 1786 1528 1633 1890 1993 2042 1916 1492 1063 356
0 0 0 0 0 0 0 0 0 0 0 0 0 2 444 670 783 875 1089 1001 627 660 856 1136 1447 1873 1834 1668 1662 1712 1631 1672 1524 1555 1404 1198 961 960 1243 1815 1982 1887 2134 1966 2060 2112 1469 1399 679
0 0 0 0 0 0 0 0 0 0 0 0 0 0 68 638 792 797 1038 1159 1071 799 1034 1110 1375 1732 1854 1714 1812 2040 2049 1657 1660 1690 1478 1457 1080 1016 1080 1553 1840 1912 1902 2114 2140 2083 1702 1329 1033
0 0 0 0 0 0 0 0 0 0 0 0 0 0 0 350 730 826 868 1097 1244 1201 1216 1375 1509 1828 1862 1674 1948 2038 2102 1936 1457 1652 1916 1580 1608 1261 1361 1498 1890 1862 1969 2045 2142 1957 1849 1337 1208
0 0 0 0 0 0 0 0 0 0 0 0 0 0 0 17 473 674 864 941 1190 1371 1379 1450 1567 1610 1704 1798 1844 1818 1901 2136 2014 2099 1935 1890 1689 1678 1365 1774 1772 1774 1928 2078 2186 1824 1851 1686 1141
0 0 0 0 0 0 0 0 0 0 0 0 0 0 0 0 69 344 578 795 940 1225 1494 1580 1632 1664 1671 1848 1979 1918 1833 1851 2000 1989 2211 2274 1944 1971 1960 1890 1844 1692 1898 2105 2275 2099 1630 1849 1469
0 0 0 0 0 0 0 0 0 0 0 0 0 0 0 0 0 7 95 341 755 1012 1286 1463 1610 1643 1684 1725 2086 2066 2065 1988 1828 2052 2117 2299 2100 2157 2155 2068 2025 1809 1747 2023 2211 2243 1598 1866 1648

GFSSGP_con_mlcape_027.txt.gz
CAPE
1 185 226 301 104 127 89 183 106 117 126 108 135 166 116 79 424 129 0 0 0 0 48 559 836 739 933 1158 1618 1729 1616 1552 1677 1569 1455 1394 1342 1358 1354 1363 1601 1613 1575 1486 1373 1317 1194 1305 1163
50 260 279 298 97 44 161 69 55 149 187 132 194 172 52 39 183 50 106 0 0 0 125 239 939 994 1230 1557 1642 1659 1493 1545 1602 1638 1625 1244 1431 1426 1328 1456 1667 1546 1495 1433 1228 1206 1181 1123 1029
228 311 318 222 218 58 93 103 109 187 189 223 398 398 376 204 158 86 225 166 103 156 321 427 789 1128 1510 1676 1630 1489 1389 1605 1720 1572 1448 1521 1528 1382 1550 1182 1509 1682 1536 1390 1199 1061 961 891 851
400 536 243 491 62 79 179 147 212 237 297 339 390 295 219 185 295 296 213 306 108 243 267 562 1200 1531 1720 1657 1515 1443 1462 1654 1725 1538 1283 1568 1594 1422 1566 1229 1407 1422 1403 1324 1090 1176 1011 910 850
199 131 406 350 99 102 102 213 245 265 334 286 396 390 247 99 127 235 281 279 249 309 361 749 1540 1700 1652 1486 1458 1485 1580 1699 1462 1433 1493 1653 1579 1465 1530 1749 1633 1312 1251 1183 1232 1371 1231 1302 1325
588 381 23 52 44 65 130 209 213 273 394 200 401 205 263 127 216 197 217 233 351 319 91 742 1301 1457 1460 1465 1459 1577 1541 1582 1451 1514 1552 1592 1579 1624 1659 1657 1585 1233 1199 1186 1131 1223 1057 920 999
531 183 133 80 49 40 55 194 293 362 312 249 234 540 228 105 157 192 152 176 334 258 115 298 581 1113 1724 1580 1515 1496 1434 1461 1426 1477 1455 1418 1407 1329 1327 1399 1399 1253 1158 1115 1084 1054 983 776 572
443 384 224 28 14 39 33 44 135 435 401 223 584 365 246 206 190 189 149 162 264 288 71 97 333 538 1023 866 1305 1342 1374 1433 1476 1504 1385 1218 1144 1072 876 793 1025 1203 1063 1027 871 756 653 674 400
263 326 253 49 9 94 90 16 99 317 205 271 353 405 316 252 168 152 160 216 307 252 48 90 191 472 787 440 1015 1294 1362 1410 1399 1058 746 883 1254 1354 1281 1016 800 887 980 620 490 457 675 743 429
131 180 176 32 26 50 98 66 17 266 220 240 286 479 357 340 238 277 282 309 310 330 81 99 105 267 431 225 630 613 483 354 659 737 507 1072 1299 1406 1358 871 512 814 811 611 330 326 466 738 317
74 122 40 49 15 28 55 286 137 40 135 247 395 532 451 410 477 593 497 544 496 334 144 109 177 237 232 338 274 248 210 360 617 816 1059 1381 1245 1158 675 907 389 542 653 558 524 543 735 233 264
0 98 101 40 13 15 48 290 378 119 63 99 402 552 507 462 460 454 524 556 401 304 204 81 201 259 195 290 203 127 144 251 376 502 1041 1434 1329 1066 1056 1352 1062 1006 977 1081 898 926 652 686 443
0 26 77 142 29 16 10 59 350 308 87 93 455 548 536 560 530 433 378 400 417 263 203 169 203 398 448 400 175 151 141 93 231 626 699 987 1209 1277 1207 1190 1325 1173 1111 965 636 871 879 735 633
2 1 51 19 18 12 1 13 109 450 224 234 388 538 549 595 574 494 403 344 338 302 235 243 414 557 564 553 492 176 177 280 262 311 430 1044 1363 1275 1445 1232 1208 977 1206 909 829 746 763 307 357
6 1 3 36 0 0 0 6 79 412 500 440 565 484 546 565 524 490 390 309 276 284 314 333 444 639 692 644 733 485 328 321 299 313 369 929 1365 1623 1852 1345 945 1262 1420 1323 1041 936 328 168 25
0 0 2 0 0 0 0 8 13 293 699 584 624 493 545 510 515 492 439 397 316 326 390 453 401 526 641 680 860 685 427 345 325 164 177 625 1313 1728 1952 1273 1148 1190 1162 806 626 652 119 179 46
0 0 0 3 0 1 0 13 32 192 628 754 685 675 405 516 494 536 487 424 393 458 511 534 601 643 851 1095 1010 888 647 479 284 81 32 884 1311 1700 1917 1275 1376 1535 1199 652 508 494 390 21 13
0 0 0 0 49 8 18 6 14 243 374 545 794 785 681 423 432 519 534 419 467 543 758 926 880 1080 1271 1176 1329 888 640 500 249 84 41 1286 1387 1657 1939 1405 1419 1433 971 1047 962 1025 172 38 0
0 0 0 7 35 10 9 37 45 75 174 241 697 864 861 671 424 382 470 465 496 696 1062 1303 1350 1568 1467 1321 1043 793 552 427 168 181 217 516 1099 1554 1990 1545 1501 1302 1415 1251 964 751 320 22 0
0 0 0 0 0 18 9 6 28 43 99 188 439 792 905 848 604 374 440 453 501 638 1030 1565 1634 1866 1722 1425 1217 811 656 238 200 197 486 865 1380 1825 1696 1635 1388 1380 1234 1253 1212 972 542 10 0
0 0 0 0 0 0 3 5 11 23 59 191 389 738 780 859 835 577 467 466 465 621 1047 1551 1748 1899 1904 1659 1396 1104 723 481 346 377 389 938 1502 1732 2012 1591 1374 1387 1627 1007 1552 1061 656 258 0
0 0 0 0 0 0 0 1 4 7 23 85 182 555 796 788 892 863 576 516 482 634 903 1521 1893 1918 1994 1938 1185 896 527 326 245 371 482 888 1463 1524 1833 1602 1254 1534 1277 1117 1497 1119 946 304 2
0 0 0 0 0 0 0 0 27 6 4 14 20 158 661 625 849 921 846 528 436 471 700 1196 2009 2043 1826 1933 1581 1069 760 264 389 467 837 873 1697 1623 1560 1865 1587 1555 1708 1488 1263 1421 1190 794 429
0 0 0 0 0 0 0 0 0 20 24 28 26 22 149 377 648 923 994 627 435 372 553 1056 1941 2218 2148 2157 1607 1779 968 525 599 722 875 939 972 1741 1853 1606 2067 1816 1907 1649 1899 1877 1624 1273 351
0 0 0 0 0 0 0 0 0 0 1 13 9 17 39 118 541 864 1039 837 486 443 588 982 1907 2413 2485 2442 2082 1757 1708 1053 1781 1753 858 817 812 760 1565 1803 2019 1728 2129 1897 2012 2275 1886 1608 1102
0 0 0 0 0 0 0 0 0 0 0 2 14 21 88 129 524 837 1059 1075 703 577 824 1082 1787 2521 2704 2480 2387 2167 2250 1765 1355 1516 1131 1048 798 735 1109 2183 2009 2078 2100 2094 2207 2094 1996 1672 1480
0 0 0 0 0 0 0 0 0 0 0 0 0 0 14 73 346 795 1021 1208 1060 711 1057 1312 1738 2411 2736 2530 2674 2622 2474 2105 1653 1570 1804 1885 1578 1047 1481 1962 2220 2152 2174 2285 2317 1817 2239 1874 1740
0 0 0 0 0 0 0 0 0 0 0 0 0 0 0 3 235 682 933 1197 1322 1083 1068 1454 1806 2416 2687 2499 2666 2716 2871 2819 2305 2300 2387 1865 1959 1944 1894 1623 1873 2147 2234 2381 2434 1895 2092 2202 1787
0 0 0 0 0 0 0 0 0 0 0 0 0 0 0 0 116 593 909 1081 1320 1345 1202 1335 1783 2216 2630 2561 2555 2451 2578 2639 2781 2488 2694 2502 2586 2731 1972 2438 2146 2262 2351 2496 2583 2186 1863 2299 2135
0 0 0 0 0 0 0 0 0 0 0 0 0 0 0 0 11 430 688 842 931 1260 1462 1524 1604 1733 2501 2531 2729 2628 2601 2573 2633 2719 2507 2869 2738 2759 3068 2625 2685 2607 2428 2509 2616 2575 1635 2196 2249

GFSSGP_con_mlcape_030.txt.gz
CAPE
49 107 126 140 79 25 64 21 55 125 216 200 299 233 191 436 347 5 0 0 0 0 47 486 738 804 1185 1534 1629 1506 1580 1603 1378 1390 1351 1418 1500 1262 1431 1556 1585 1554 1430 1420 1367 1215 1291 1185 984
52 219 259 173 39 0 61 154 126 115 116 212 152 130 267 281 0 0 0 0 0 0 0 240 783 1046 1336 1394 1593 1495 1478 1382 1553 1200 1344 1386 1342 1424 1453 1643 1463 1424 1365 1257 1142 1151 1085 1034 1032
56 328 245 263 107 60 48 33 158 208 299 382 436 466 282 70 0 0 0 0 0 0 0 434 972 1217 1439 1583 1535 1429 1450 1636 1576 1371 1494 1327 1452 1464 1244 1420 1600 1400 1295 1135 1097 954 908 861 817
382 295 308 204 41 105 315 286 188 278 367 337 236 247 50 0 13 0 0 0 0 30 200 549 854 1377 1543 1514 1455 1384 1574 1536 1576 1361 1519 1547 1439 1412 1192 1291 1242 1272 1184 1079 1216 1104 999 926 921
484 204 196 189 97 139 259 290 176 221 311 412 477 165 184 303 256 0 0 0 6 208 545 296 978 1456 1492 1429 1401 1418 1499 1549 1579 1526 1608 1528 1417 1536 1682 1441 1175 1219 1202 1254 1338 1221 1138 1200 1074
490 4 22 95 19 149 205 312 348 311 462 535 241 101 126 228 171 49 120 25 198 407 279 715 1362 1634 1414 1385 1432 1445 1585 1374 1479 1532 1596 1699 1701 1671 1674 1440 1161 1158 1152 1106 1043 764 586 774 201
79 0 1 115 2 127 261 419 422 393 154 561 317 229 156 189 186 218 137 85 47 185 281 884 1256 1424 1368 1365 1505 1426 1486 1399 1460 1406 1447 1422 1381 1398 1408 1378 1244 1126 1046 949 777 741 725 452 429
425 5 50 40 0 15 174 240 340 357 288 520 304 121 180 242 264 227 206 230 322 11 278 577 730 705 860 1114 1436 1346 1388 1320 1314 1341 1275 1301 1148 997 984 1042 1144 1077 968 704 767 818 780 974 892
368 284 178 106 51 23 5 323 381 183 392 613 561 183 227 176 145 186 158 331 186 120 75 208 306 852 919 817 1087 1221 1262 1253 1134 897 1018 679 1030 773 1283 998 648 945 878 705 687 551 501 393 978
174 75 0 58 28 17 51 2 90 110 196 436 452 249 245 282 217 213 200 289 386 59 0 71 222 520 599 231 856 994 780 767 886 632 4 37 784 486 1239 590 708 836 690 648 678 710 770 286 258
75 74 1 13 55 56 23 10 147 26 98 643 455 280 316 275 287 256 320 236 335 49 5 95 235 472 238 356 471 812 615 650 611 622 0 57 691 792 902 707 584 682 163 477 152 410 1052 811 325
30 80 0 16 113 45 52 15 72 50 36 501 546 323 399 319 308 355 346 386 216 43 59 67 258 400 225 445 88 402 360 301 910 505 982 1069 470 784 1158 989 1089 708 845 803 692 901 838 720 697
8 91 91 5 34 15 60 54 23 11 39 372 586 424 410 412 451 453 536 351 429 304 97 177 268 193 491 737 91 142 246 149 640 933 662 784 368 1460 1320 1542 681 624 480 0 746 1009 896 858 1
12 20 28 22 142 38 0 54 48 50 22 281 481 491 427 477 576 572 636 530 559 533 85 303 511 350 973 481 780 489 221 85 349 510 711 987 1355 1290 1280 1231 856 1106 727 472 759 485 17 168 202
2 13 18 34 90 21 12 13 24 94 67 75 374 481 452 491 425 476 771 450 502 155 263 325 554 470 736 598 846 490 380 189 33 722 856 768 1319 1585 1047 1385 928 1128 1450 1212 1212 759 188 13 88
0 0 17 29 49 8 0 1 112 44 122 131 251 388 452 467 441 458 436 301 459 225 151 472 440 628 489 715 868 682 429 188 408 247 544 727 1213 1742 1675 1125 847 468 1321 867 617 789 522 313 180
0 0 0 30 13 0 0 0 3 188 122 339 156 305 400 487 499 528 348 377 368 332 515 644 363 740 637 1021 1050 584 612 691 392 314 400 420 1208 1485 1838 1259 1327 1403 529 992 659 567 722 31 6
0 0 0 0 36 3 3 11 0 39 175 362 469 220 329 359 454 542 435 396 419 537 722 749 459 847 803 952 1008 916 932 531 552 267 155 549 1265 1586 1776 1570 1457 1337 700 1313 1050 847 48 12 0
0 0 0 0 0 45 4 43 7 42 30 242 429 487 271 353 370 570 464 415 559 756 841 682 957 1264 1233 1193 1064 1173 568 703 464 400 548 1081 1366 1703 1868 1554 922 1215 942 1234 910 642 212 0 0
0 0 0 0 1 2 22 1 22 60 8 49 325 265 499 322 332 530 528 430 477 712 1079 888 1029 1329 1595 1410 1405 1091 1045 846 521 259 589 1217 991 1701 1513 1543 1307 1360 1284 1389 1250 1092 431 0 0
0 0 0 0 0 9 4 3 14 40 38 28 185 234 471 518 403 413 561 495 422 843 1209 1439 1420 1995 1642 1736 1814 1345 1300 916 409 363 635 681 1272 1446 1723 1374 1401 1320 1299 788 1329 1254 811 97 0
0 0 0 0 0 0 1 7 17 17 5 11 37 311 239 616 548 432 585 526 532 824 1364 1831 1856 2105 1869 1897 1658 1461 1007 674 671 397 588 749 973 1796 2131 1736 1647 1459 1569 1126 894 1590 864 376 48
0 0 0 0 0 0 1 1 3 21 9 15 46 204 316 610 693 587 564 591 646 741 1433 1974 2122 2137 2345 1532 2106 1385 1070 899 458 675 658 742 1284 1419 1752 1923 1715 1714 1353 1303 1166 1508 894 1488 82
0 0 0 0 0 0 0 0 1 4 1 10 33 46 403 503 782 892 695 673 629 830 1247 1776 2192 2048 2196 2144 1487 1972 1231 899 666 418 657 1240 1847 1625 1802 2151 1903 1785 1435 1636 1247 1370 1759 956 1057
0 0 0 0 0 0 0 0 0 0 9 0 1 9 104 565 746 1101 1000 850 710 840 1201 1417 2271 2141 2016 2232 1621 1782 1869 809 1180 977 741 1289 977 1863 1789 1833 2221 1777 1738 1870 1621 1698 2015 1317 1209
0 0 0 0 0 0 0 0 0 0 1 1 13 14 55 217 602 1021 1240 1087 833 791 981 1353 2204 2231 2245 2080 2298 1631 2477 1632 752 1941 1114 1049 1235 1015 1912 1544 2102 2091 2047 1810 2374 2064 1918 2124 1317
0 0 0 0 0 0 0 0 0 0 0 0 12 73 59 78 222 797 1253 1290 1038 810 969 1252 1929 2380 2511 2125 2506 2210 1657 2425 1085 1201 1798 1609 1139 1400 1358 1807 1773 1879 2012 2238 1847 2248 2357 2068 1927
0 0 0 0 0 0 0 0 0 0 0 0 0 3 27 53 132 695 1140 1452 1225 901 989 1142 1766 2420 2561 2678 2463 2620 2052 2182 2170 1075 1702 1427 1812 1118 1776 2203 2093 2261 2338 2642 2367 2483 2021 2125 2269
0 0 0 0 0 0 0 0 0 0 0 0 0 0 1 105 245 571 1209 1480 1472 1125 1087 1176 1372 2282 2760 2794 2733 2654 2772 2136 1992 2201 1746 2322 1537 2562 1436 2820 2549 2390 2389 2474 2658 2368 2171 2239 2066
0 0 0 0 0 0 0 1 0 0 0 0 0 0 0 9 364 506 887 1409 1680 1427 1222 1285 1520 2003 2678 3072 3058 2856 2820 2992 2512 1769 2118 2351 2908 1878 2855 2267 2388 2625 2429 2500 2529 2623 1937 2326 2335

GFSSGP_con_mlcape_033.txt.gz
CAPE
50 0 4 64 150 18 11 12 58 73 61 362 160 317 186 72 40 0 1 0 0 0 298 597 904 1109 1191 1177 898 1674 1281 1522 1361 1443 1541 1378 1301 1603 1675 1742 1551 1595 1483 1353 1407 1378 1207 1037 1018
41 71 139 174 45 7 8 23 115 112 65 31 257 321 111 0 0 3 0 0 0 0 231 553 827 1003 1116 1126 1152 1421 1331 1302 1256 1404 1487 1358 1488 1667 1706 1509 1483 1419 1331 1271 1268 1193 1152 1110 990
68 289 151 137 103 0 68 130 132 186 207 236 368 188 65 0 3 1 0 0 0 0 244 647 846 1058 1236 1347 1227 1378 1544 1504 1464 1546 1444 1519 1501 1551 1541 1676 1403 1331 1239 1205 1068 1031 971 935 777
55 199 149 44 47 69 102 157 206 334 469 271 91 0 0 0 0 0 0 0 0 0 241 922 1077 1209 1320 1258 1330 1574 1317 1639 1357 1583 1537 1574 1402 1353 1441 1337 1419 1276 1244 1348 1163 1032 983 882 716
357 151 93 92 53 120 153 168 273 335 421 312 49 0 1 0 0 0 0 0 0 80 351 672 1275 1330 1253 1191 1386 1502 1489 1652 1493 1641 1454 1508 1727 1708 1452 1342 1413 1390 1473 1477 1282 1321 1274 1074 714
385 24 0 0 10 17 166 224 318 511 516 212 106 34 215 0 0 0 0 0 22 326 239 830 1260 1404 1138 1275 1426 1578 1276 1449 1550 1686 1763 1670 1648 1763 1527 1360 1382 1364 1259 1247 1205 923 1110 939 810
130 0 0 0 4 49 129 327 284 445 316 230 102 202 195 0 0 0 0 0 274 116 312 1039 1459 1417 1197 1319 1435 1451 1283 1449 1449 1516 1567 1546 1527 1454 1514 1391 1351 1256 1199 1145 1003 887 692 721 622
53 0 0 0 0 0 37 327 250 370 397 188 115 147 68 0 0 0 0 70 292 441 594 978 1297 1051 1060 1306 1364 1296 1071 1376 1375 1200 1270 1295 1224 1218 1108 1073 1172 1145 1037 816 558 551 487 505 730
437 23 4 20 5 1 1 231 302 591 370 250 233 163 170 87 111 62 41 94 42 401 496 839 777 767 831 1132 1173 1116 998 1229 1070 1038 919 441 752 1094 1015 961 965 832 720 573 341 215 626 476 176
232 165 64 182 35 14 2 38 218 449 315 270 224 247 133 198 182 81 141 132 61 186 317 426 437 584 689 688 823 540 510 681 562 596 0 144 338 322 1121 465 701 589 422 394 420 655 534 793 270
271 178 164 34 18 42 43 2 14 426 241 254 219 259 272 311 216 268 275 124 93 51 99 181 419 747 392 468 176 330 348 541 717 2 9 51 478 721 893 404 656 480 61 331 282 298 756 556 521
49 101 97 32 13 7 28 23 44 150 358 240 171 279 271 216 234 203 171 265 79 16 15 103 277 544 211 198 104 385 382 421 674 89 237 248 374 692 804 563 387 469 379 499 712 866 903 534 218
12 48 12 17 26 6 20 2 2 401 380 290 220 214 186 196 213 212 255 248 149 12 0 41 159 465 257 93 9 216 260 334 717 344 400 435 29 619 742 954 684 604 580 107 171 718 262 391 61
0 42 27 46 57 42 6 3 15 543 331 252 292 241 208 262 152 210 311 218 172 22 0 48 115 476 202 86 0 13 337 192 708 698 492 684 762 993 864 812 481 484 243 77 375 348 0 32 51
0 7 72 37 0 73 82 52 21 610 435 335 405 295 212 288 225 180 124 105 95 65 23 52 22 240 390 457 769 561 457 79 451 714 793 1020 732 1248 894 547 732 726 806 549 725 285 157 39 61
2 0 5 8 24 62 96 56 66 387 539 456 404 381 334 310 413 306 120 62 104 91 85 50 16 95 324 127 471 433 156 186 299 592 450 787 1056 1235 967 974 672 755 952 1096 847 482 317 235 112
0 0 0 0 1 50 23 44 125 175 328 558 502 427 402 405 435 473 349 150 111 173 115 111 159 53 374 168 425 440 248 293 565 650 449 458 889 1419 1431 995 745 1021 545 653 527 642 507 81 62
0 0 0 0 0 55 36 1 100 124 183 235 287 468 428 382 380 487 448 401 189 134 76 131 193 67 240 267 467 306 82 377 614 678 286 330 562 1108 1356 1290 939 618 439 618 858 356 5 0 0
0 0 0 0 0 4 20 7 177 186 191 84 71 248 460 419 376 228 302 214 146 130 102 180 369 364 211 354 308 240 43 377 554 220 613 343 733 1123 1511 1336 1032 942 634 974 502 30 58 0 0
0 0 0 0 0 0 11 15 197 199 84 14 0 65 252 417 382 389 217 224 214 282 276 221 478 490 300 469 238 750 696 445 603 132 864 572 976 1298 1443 1062 1024 892 948 927 502 791 248 0 0
0 0 0 0 0 0 9 26 112 195 52 21 16 20 230 350 337 383 272 264 316 374 242 335 258 612 415 612 520 531 924 782 637 282 401 1005 973 1367 1316 1268 1095 1315 1090 1074 776 876 227 0 0
0 0 0 0 0 0 0 15 20 94 59 41 78 250 224 103 262 370 279 285 412 556 416 384 422 870 829 842 978 689 392 847 743 324 195 1002 810 1016 1266 1343 1003 1282 951 681 603 796 444 221 0
0 0 0 0 0 0 0 0 0 16 86 106 258 340 116 144 304 316 348 382 365 691 662 434 578 936 1132 1111 1046 883 818 863 703 401 219 472 673 972 1352 1568 1175 1108 1415 1098 697 905 990 730 173
0 0 0 0 0 0 0 0 0 1 18 64 145 335 256 292 232 278 447 386 334 700 964 905 687 1072 1141 1180 1293 1126 1154 765 797 515 260 579 698 673 1092 1855 1569 1181 1162 1050 843 985 1111 651 919
0 0 0 0 0 0 0 0 0 0 12 46 148 267 227 30 6 468 475 367 432 754 1095 1332 1154 1297 1388 1090 1140 1503 1207 964 591 524 439 564 963 850 958 1373 1681 1556 1227 1215 1169 952 1409 753 865
0 0 0 0 0 0 0 0 0 0 0 18 88 142 94 131 418 533 445 446 457 570 1074 1734 1529 1413 1667 1467 975 932 1845 1241 760 886 539 546 865 1227 1159 1278 1828 1623 1420 1231 1389 1229 1323 1554 609
0 0 0 0 0 0 0 0 0 0 0 0 1 52 179 579 820 510 508 526 392 634 936 1480 1779 1557 1699 1749 1515 954 1114 2007 974 469 1083 872 1108 931 1349 1372 1629 1771 1535 1203 1572 1632 1377 1737 1497
0 0 0 0 0 0 0 0 0 0 0 0 0 0 74 756 487 721 635 595 502 555 876 1134 1908 1680 1615 1602 1701 1403 931 1316 1914 879 485 1421 848 1046 1106 1403 1560 1646 1706 1517 1299 1996 2139 1608 1834
0 0 0 0 0 0 0 0 0 0 0 0 0 0 0 153 869 1053 839 778 703 591 917 1078 1509 1878 1848 1697 1522 1669 1317 1096 1730 1762 777 640 1594 1455 865 1572 1554 1595 1624 1850 1599 1334 1788 2062 1825
0 0 0 0 0 0 0 0 0 0 0 0 0 0 2 34 797 1272 1163 1074 911 736 884 1012 1258 1849 1911 1962 1733 1858 1878 1628 1121 1917 1782 433 1219 1353 1967 1649 1871 1929 1667 1615 1931 1723 1809 1824 1757

GFSSGP_con_mlcape_036.txt.gz
CAPE
27 5 0 22 19 7 14 26 41 63 73 132 146 82 26 4 7 0 0 0 0 126 481 887 1115 1204 1172 1016 1507 1376 1510 1471 1624 1534 1550 1710 1724 1769 1752 1778 1672 1461 1507 1560 1497 1305 1165 1256 885
2 11 41 115 24 0 3 42 35 111 98 191 216 101 60 0 0 2 0 0 3 261 599 920 1144 1216 942 1562 1334 1419 1272 1420 1685 1407 1575 1751 1583 1404 1581 1736 1474 1556 1556 1474 1449 1378 1353 1189 1069
34 176 32 106 1 0 13 1 104 239 280 262 112 12 0 1 6 1 0 0 21 208 477 855 1162 1193 1172 1318 1219 1404 1400 1511 1453 1660 1612 1548 1601 1661 1632 1464 1424 1468 1354 1248 1231 1165 1130 1052 947
112 285 92 43 19 19 7 23 171 57 183 149 2 0 0 0 0 0 0 0 0 131 527 1109 1236 1356 1343 1038 1689 1489 1494 1639 1442 1630 1545 1441 1483 1625 1435 1511 1420 1402 1482 1328 1212 1139 1010 1007 886
139 104 53 35 14 49 61 155 249 281 226 66 0 0 3 0 0 0 0 0 0 115 742 1153 1356 1503 1267 1387 1467 1474 1564 1659 1587 1613 1765 1837 1586 1510 1550 1561 1547 1637 1570 1466 1410 1370 1226 1035 481
137 3 1 1 0 0 13 123 324 321 192 9 0 0 0 0 0 0 0 0 80 241 593 1360 1432 1559 1164 1332 1509 1461 1771 1522 1812 1707 1569 1793 1945 1571 1543 1538 1488 1397 1344 1188 955 1038 828 480 661
37 0 0 0 20 26 20 115 198 322 144 5 0 0 0 0 0 0 0 0 263 368 573 1135 1332 1339 1215 1398 1482 1309 1470 1532 1610 1671 1679 1676 1637 1656 1495 1501 1423 1340 1282 1206 811 502 382 424 431
74 0 0 0 0 5 172 95 381 421 264 136 9 0 0 0 0 0 0 242 273 245 612 901 1253 1130 1125 1348 1285 1333 1449 1404 1307 1283 1310 1244 1341 1417 1282 1079 1332 1034 831 842 784 521 469 136 319
88 0 0 0 2 0 0 59 297 291 173 162 186 73 0 0 0 0 0 167 270 284 636 1012 1007 863 1013 1151 1143 1095 1162 1228 1101 1180 1002 939 775 851 1155 816 1056 789 393 361 555 751 863 478 139
234 0 0 0 28 21 42 14 189 246 298 238 205 0 0 0 0 4 81 328 390 221 624 798 670 536 825 1048 952 574 652 836 867 726 247 269 402 463 848 849 938 806 291 247 556 484 650 726 294
226 27 11 13 56 28 31 49 367 368 346 293 126 6 0 0 11 99 191 385 460 306 520 527 323 470 484 383 258 180 254 346 369 216 0 54 250 452 720 554 640 216 108 301 162 474 720 586 527
117 210 182 65 56 25 17 125 477 288 157 220 91 60 27 64 147 156 232 171 322 282 280 233 289 417 290 59 0 0 54 192 470 8 0 162 357 479 600 300 138 289 197 297 518 582 688 606 34
35 55 94 112 62 19 6 63 2 160 323 229 104 158 114 97 173 262 260 98 158 154 93 120 340 356 134 0 0 13 145 306 468 52 17 234 227 431 589 600 279 379 387 201 144 414 390 215 43
7 20 9 38 23 12 9 0 100 444 322 195 104 130 218 218 312 310 227 146 97 79 59 98 249 253 115 0 0 19 164 228 314 327 227 304 116 620 688 663 470 501 332 184 23 320 11 39 55
0 0 0 10 1 0 14 0 56 408 283 239 206 197 200 285 332 279 231 197 58 31 49 68 153 261 69 30 0 0 96 158 276 445 295 434 555 773 567 541 326 341 271 183 286 255 43 47 50
0 0 0 5 31 14 24 11 468 343 263 221 177 151 125 210 243 251 216 162 195 26 22 40 130 314 4 50 25 22 1 112 341 480 392 647 417 1000 806 459 458 508 463 628 313 332 146 63 70
0 0 0 0 17 29 34 40 561 342 305 256 175 144 122 180 133 114 219 147 171 69 0 0 63 335 71 224 425 407 160 212 308 464 356 780 1132 1019 730 733 517 421 608 518 375 364 328 118 98
0 0 0 0 0 15 55 16 364 371 378 304 248 201 178 166 156 88 113 136 100 96 38 9 0 323 212 325 190 180 75 138 493 572 315 682 662 1310 898 743 618 737 296 467 522 160 0 0 15
0 0 0 0 0 0 1 99 301 473 327 415 380 349 274 237 139 151 105 90 77 79 85 14 0 52 337 186 72 38 0 1 165 473 355 353 426 805 1185 860 885 503 427 515 252 16 0 0 1
0 0 0 0 0 0 0 88 350 479 332 375 414 411 400 391 268 213 204 137 108 75 112 37 0 0 169 40 25 26 0 0 60 326 353 240 444 566 985 974 814 818 559 506 430 271 0 0 0
0 0 0 0 0 0 0 64 128 238 364 393 371 317 344 358 311 293 200 246 139 91 120 69 13 0 19 59 79 132 23 0 43 290 339 333 523 708 993 884 874 742 782 666 490 496 136 0 0
0 0 0 0 0 0 0 15 94 128 167 98 104 50 132 272 275 256 179 280 158 157 66 123 97 38 57 213 91 57 0 44 219 276 266 379 558 874 1044 981 880 831 1048 892 639 688 214 19 0
0 0 0 0 0 0 0 0 35 97 48 2 0 1 75 205 296 184 104 103 99 140 99 128 225 209 201 381 183 131 118 357 522 449 341 392 611 964 1035 918 873 714 1024 742 619 639 350 335 0
0 0 0 0 0 0 0 0 0 44 29 20 39 0 16 179 318 272 186 98 125 174 146 176 422 300 288 437 375 270 261 212 330 587 458 296 624 735 989 967 925 893 985 883 693 577 867 607 442
0 0 0 0 0 0 0 0 0 0 31 36 14 10 44 207 309 276 267 190 151 307 236 256 306 587 464 461 572 498 450 423 206 490 449 309 372 584 765 985 1098 1298 1104 1034 956 739 927 616 806
0 0 0 0 0 0 0 0 0 0 3 34 26 46 150 248 188 296 312 269 198 396 426 289 365 513 678 585 590 707 688 597 478 557 524 363 365 463 529 914 1198 1473 1338 1094 860 878 867 1114 540
0 0 0 0 0 0 0 0 0 0 0 0 12 103 329 244 156 135 326 322 246 418 594 505 433 485 831 746 829 972 913 852 708 655 534 428 461 674 636 667 946 1103 1476 1252 1086 918 954 1093 1214
0 0 0 0 0 0 0 0 0 0 0 0 0 65 362 426 248 188 318 397 312 467 640 751 716 589 884 960 824 848 1075 1252 942 755 705 702 603 672 911 950 1078 1138 1365 1444 1259 1169 1093 1249 1295
0 0 0 0 0 0 0 0 0 0 0 0 0 2 106 452 371 103 260 445 403 438 691 1080 1068 927 1120 1252 1188 996 810 850 1593 1068 681 516 789 953 885 1203 1140 1318 1320 1441 1351 1235 1344 1355 1390
0 0 0 0 0 0 0 0 0 0 0 0 0 6 74 209 358 236 423 471 472 484 698 1040 1419 1283 1218 1374 1430 1374 1300 918 846 1443 1283 785 532 694 1106 1147 1297 1343 1495 1556 1485 1290 1308 1593 1757

GFSSGP_con_mlcape_042.txt.gz
CAPE
59 13 1 17 5 4 0 11 56 23 0 3 0 0 0 0 0 0 0 0 0 2 481 876 1025 1346 1150 1491 1679 1579 1580 1690 1661 1751 1937 1773 1629 1551 1478 1623 1564 1572 1547 1436 1388 1141 1184 893 1213
28 9 36 49 23 3 1 37 18 22 138 109 0 5 0 0 0 2 0 0 0 147 617 869 1009 1178 1346 1523 1244 1552 1816 1657 1729 1707 1783 1790 1422 1647 1565 1661 1721 1624 1216 1035 1352 1067 1200 1172 1095
16 20 73 85 2 0 0 0 58 81 236 94 7 2 0 0 3 1 0 0 37 391 627 922 907 1202 1403 1418 1644 1716 1285 1568 1818 1721 1635 1562 1643 1610 1690 1748 1647 1562 1427 1234 1381 1080 1079 720 908
11 72 85 117 37 5 12 54 73 76 128 78 0 0 0 0 4 0 23 32 86 539 814 1259 1189 1239 1516 1438 1609 1436 1465 1796 1762 1754 1658 1596 1655 1559 1652 1605 1555 1407 1376 1420 1256 1062 1007 760 845
119 129 59 44 11 9 16 136 130 297 168 8 0 0 3 8 0 13 50 84 118 537 889 1071 1369 1046 1431 1471 1570 1502 1694 1748 1717 1662 1412 1637 1610 1649 1617 1626 1539 1473 1403 1332 1346 1117 891 747 705
111 18 8 1 0 18 93 153 91 351 102 3 0 1 3 11 3 33 90 167 382 582 808 1041 1329 1008 1444 1534 1627 1456 1622 1672 1808 1712 1720 1793 1820 1747 1683 1624 1500 1349 1295 1231 1218 1019 973 828 564
117 24 0 0 0 48 164 46 213 239 107 13 0 1 3 12 3 48 76 255 499 681 664 1079 962 1424 1423 1540 1479 1739 1508 1604 1750 1773 1947 1816 1798 1765 1655 1578 1387 1098 991 948 992 832 706 713 906
108 0 0 0 0 58 15 84 118 142 79 1 0 0 2 4 0 16 102 287 493 592 781 1071 817 1155 1067 1454 1685 1628 1848 1932 1856 1891 1773 1781 1730 1397 1555 1426 1360 1186 1051 939 526 375 568 600 469
6 1 0 0 0 5 0 173 254 201 5 4 0 0 0 2 0 27 98 195 389 573 771 1071 794 970 1131 1078 1502 1532 1686 1589 1549 1463 1554 1398 1243 1053 1038 1224 1297 1141 1033 1025 929 797 272 559 662
164 1 0 0 0 0 1 287 471 258 38 9 0 0 0 1 0 9 26 35 282 517 765 957 752 769 1043 1053 1247 1331 1426 1246 1141 1066 748 632 662 665 681 897 1028 1020 1007 909 870 810 823 366 334
275 34 0 13 0 2 2 50 178 287 65 14 0 0 0 0 0 0 13 6 45 361 642 849 737 663 798 883 978 1045 1080 931 859 537 322 362 439 456 666 443 557 229 172 239 462 602 559 433 453
146 239 37 128 39 12 18 76 49 158 197 156 0 0 0 0 0 0 6 33 17 103 417 772 690 365 576 601 567 628 688 620 478 226 41 112 146 311 353 285 320 271 164 294 244 403 184 118 39
87 203 180 244 112 98 79 56 43 88 168 19 0 0 0 0 0 34 27 80 106 41 218 569 555 212 284 153 323 278 272 236 182 104 1 66 273 341 383 235 82 207 282 137 8 255 31 43 58
0 0 28 23 41 6 13 83 113 216 49 2 0 0 0 0 0 34 87 97 151 90 37 374 349 95 119 0 0 21 69 133 261 206 0 150 258 283 362 435 289 338 314 218 69 57 25 43 71
0 0 0 0 0 0 0 89 91 168 53 2 0 0 0 0 0 16 107 156 165 62 17 119 143 21 0 0 0 0 0 52 223 370 258 111 183 212 315 341 400 329 285 85 221 176 54 47 69
0 0 0 0 0 0 8 6 48 142 41 1 0 0 0 0 2 51 106 176 158 43 0 0 84 0 0 0 0 0 0 48 118 183 250 300 299 317 446 338 347 271 299 306 173 215 82 74 62
0 0 0 0 0 4 23 30 144 169 86 1 0 0 0 0 20 74 62 133 144 83 4 0 0 0 0 0 0 0 0 32 63 92 179 266 329 434 527 343 297 365 384 316 280 198 323 83 87
0 0 0 0 0 0 23 35 245 225 154 66 2 0 0 0 9 47 81 49 94 75 0 0 0 0 0 0 0 0 0 0 0 37 187 237 319 532 693 320 323 384 290 152 204 50 0 30 53
0 0 0 0 0 0 0 27 118 221 157 122 49 1 0 0 3 62 79 37 26 43 0 0 0 0 0 0 0 0 0 6 152 156 302 292 353 706 798 571 349 273 250 258 169 22 0 6 0
0 0 0 0 0 0 0 0 111 202 165 133 125 52 20 11 23 57 83 56 22 8 0 0 0 0 0 0 0 0 0 35 117 289 365 348 391 901 929 506 443 218 255 398 199 21 0 0 0
0 0 0 0 0 0 0 0 0 139 242 199 100 37 36 40 29 44 52 75 22 4 0 0 0 0 0 0 0 0 0 5 0 55 245 305 366 618 973 919 548 548 345 459 334 60 0 0 0
0 0 0 0 0 0 0 0 0 34 75 182 148 97 49 68 58 47 38 27 33 27 0 0 0 0 0 0 0 0 10 61 28 0 119 241 269 441 571 754 845 664 537 549 428 247 44 0 0
0 0 0 0 0 0 0 0 0 0 7 64 209 195 83 69 67 66 46 26 60 0 0 0 0 0 0 0 0 0 0 0 0 0 0 165 208 281 449 608 704 638 679 568 690 546 195 3 0
0 0 0 0 0 0 0 0 0 0 0 41 199 225 191 95 71 86 61 17 0 0 0 0 0 0 0 0 0 0 0 0 0 0 0 0 123 213 303 569 729 771 737 658 772 711 406 248 33
0 0 0 0 0 0 0 0 0 0 0 25 54 185 214 199 107 101 81 63 30 0 0 0 0 0 0 0 0 0 0 0 0 0 0 0 0 182 269 400 570 669 706 717 649 646 618 365 264
0 0 0 0 0 0 0 0 0 0 0 0 65 97 192 225 194 151 129 102 61 42 0 0 0 0 0 0 0 0 0 0 0 0 0 0 0 53 337 376 459 592 752 727 744 677 579 713 540
0 0 0 0 0 0 0 0 0 0 0 0 11 103 151 216 209 198 220 172 94 58 55 4 0 0 0 0 0 0 0 0 0 0 0 0 0 68 295 447 457 532 652 762 828 1043 868 788 795
0 0 0 0 0 0 0 0 0 0 0 0 0 0 38 140 94 103 160 153 133 103 98 25 0 5 0 0 0 0 0 0 0 0 0 8 2 94 310 466 536 501 637 730 820 1008 1108 947 811
0 0 0 0 0 0 0 0 0 0 0 0 0 0 0 47 44 35 71 156 124 120 123 69 35 41 21 12 24 46 66 25 32 27 28 22 50 66 163 419 452 461 534 671 847 983 1101 1134 1041
0 0 0 0 0 0 0 0 0 0 0 0 0 0 0 17 41 20 32 100 141 96 111 95 71 71 125 122 111 125 177 163 120 146 124 106 109 162 165 452 500 488 522 647 795 795 966 1093 1225

GFSSGP_con_mlcape_045.txt.gz
CAPE
9 6 5 7 2 5 0 24 63 37 0 17 0 0 0 0 0 0 2 0 1 14 428 854 965 1341 1547 1650 1638 1851 1861 1621 1697 1870 1813 1928 1681 1499 1449 1444 1578 1562 1430 1509 1310 1287 1007 1199 1565
12 0 10 13 2 4 15 62 82 64 14 76 0 2 2 0 0 3 3 0 0 30 542 627 1030 1151 1553 1665 1637 1719 1794 1308 1536 1698 1845 1640 1613 1499 1567 1578 1472 1367 1338 1479 1196 1268 1369 1401 1470
11 9 11 28 13 0 18 15 51 190 250 13 0 7 0 1 1 0 0 1 2 152 634 872 1101 1366 1456 1335 1745 1761 1731 1737 1786 1779 1649 1604 1471 1396 1508 1524 1486 1393 1187 1536 1192 1178 933 1020 709
3 20 64 39 52 8 22 25 40 168 138 66 26 2 0 3 3 0 0 0 41 327 448 977 1144 1474 1398 1714 1622 1424 1748 1841 1748 1712 1663 1525 1526 1538 1561 1529 1460 1487 1455 1334 1103 1165 1010 1079 937
57 117 64 77 42 54 42 212 142 250 228 64 0 1 3 6 2 6 11 14 40 159 593 692 1210 1601 1452 1639 1331 1814 1779 1543 1541 1590 1674 1647 1677 1663 1647 1510 1486 1438 1386 1286 1182 1045 890 768 973
83 36 17 3 13 19 220 197 259 519 31 0 0 2 3 9 10 13 12 28 135 156 549 924 1102 1354 1459 1559 1556 1667 1614 1605 1654 1786 1716 1632 1617 1749 1607 1454 1330 1233 1312 1350 1145 870 892 705 791
157 20 0 0 1 78 238 155 354 417 70 22 0 0 4 14 15 24 23 94 217 261 491 1056 599 1173 1343 1495 1428 1579 1622 1770 1819 1812 1720 1810 1744 1694 1583 1345 1125 1051 1070 1052 889 662 622 772 869
152 0 0 1 19 125 97 183 100 222 87 0 0 0 1 9 12 59 65 100 292 283 755 984 708 1226 1228 1311 1546 1505 1577 1718 1941 1842 1779 1761 1764 1725 1635 1367 1163 1052 861 683 750 792 625 681 947
14 27 7 0 6 64 28 235 231 148 14 6 0 0 0 8 18 61 61 146 384 457 770 615 1065 968 1424 1449 1398 1520 1617 1749 1683 1647 1836 1551 1386 1400 1033 887 1207 1131 1108 796 725 523 678 896 1063
212 13 6 0 0 17 83 531 463 210 38 6 0 0 4 13 11 33 14 49 137 358 661 540 568 678 1049 1209 1327 1407 1168 997 1146 1428 1484 1496 1165 997 797 767 1232 1138 551 580 1057 1098 729 434 988
193 5 9 0 0 19 108 475 489 219 92 38 0 0 3 9 11 11 7 28 46 276 611 879 560 993 799 1015 1134 1179 1062 1060 1200 1201 796 881 931 966 936 794 968 651 482 832 1077 1156 958 1190 677
70 231 115 118 17 15 35 134 137 260 286 128 0 0 0 2 5 3 0 38 68 268 499 883 561 854 794 1002 956 1043 938 979 911 708 621 741 689 839 897 776 857 782 800 904 871 1059 612 486 702
33 259 203 191 124 98 130 146 111 172 201 54 0 0 0 0 2 1 0 0 112 163 378 683 659 684 816 930 823 857 913 790 700 488 247 383 547 774 860 744 575 790 833 465 718 728 322 445 285
0 25 149 49 91 57 71 48 74 296 47 5 0 0 0 0 0 0 0 1 53 90 135 538 660 532 723 547 670 649 722 618 516 430 147 350 776 887 764 475 521 1043 1017 732 884 214 137 337 677
0 0 0 0 0 3 0 8 90 141 68 34 0 0 0 0 0 0 12 35 0 31 135 394 584 494 412 381 324 326 312 384 625 846 190 314 655 609 842 769 493 957 804 479 861 651 344 211 470
0 0 0 0 0 0 0 36 131 97 93 44 0 0 0 0 0 3 3 0 49 74 102 394 306 304 213 243 112 70 73 236 617 818 875 683 636 638 1064 910 1041 900 797 727 867 685 253 82 131
0 0 0 0 0 21 16 75 218 115 134 45 0 0 0 0 0 2 17 9 62 179 172 141 318 231 66 62 77 0 15 132 444 565 682 753 776 843 1038 990 972 983 1145 1122 1035 558 750 208 112
0 0 0 0 7 8 52 66 312 290 126 40 1 0 0 0 0 6 33 47 154 207 181 61 184 223 71 35 66 0 0 13 273 395 468 599 759 879 1155 996 922 861 643 780 816 60 48 361 349
0 0 0 0 0 14 74 72 230 345 253 71 0 0 0 0 0 0 37 61 168 206 127 87 22 58 40 0 0 0 0 0 90 391 647 737 763 1010 1223 1094 878 915 857 661 616 100 49 58 68
0 0 0 0 0 0 15 52 72 333 252 191 42 0 0 0 0 0 60 67 100 191 105 78 10 6 0 0 4 5 23 235 570 858 796 872 796 1193 1468 1202 644 735 716 610 655 438 11 29 21
0 0 0 0 0 0 0 0 0 272 406 386 264 27 0 0 4 8 43 107 81 122 140 92 10 0 0 0 63 17 166 227 356 621 867 864 860 1137 1510 1302 1035 814 509 385 460 471 0 0 23
0 0 0 0 0 0 0 0 0 6 129 289 341 280 119 2 0 0 0 85 84 88 92 77 17 0 0 1 0 0 29 149 344 484 658 708 896 977 1370 1585 1232 901 1004 681 969 741 146 0 11
0 0 0 0 0 0 0 0 0 3 49 71 315 364 286 160 47 17 31 68 86 75 47 32 34 0 44 125 30 37 53 176 430 419 445 691 759 915 1148 1278 1070 666 971 844 1154 998 684 35 0
0 0 0 0 0 0 0 0 0 0 3 79 238 395 393 275 210 139 67 46 55 56 46 0 4 0 11 124 65 55 80 174 237 271 266 422 761 791 967 1196 1247 1356 1332 1284 1330 1167 997 822 226
0 0 0 0 0 0 0 0 0 0 0 26 101 214 396 375 275 207 135 83 80 64 73 51 0 0 0 61 86 93 132 198 98 197 235 212 302 660 802 892 1100 1188 1346 1423 1340 1419 1366 1155 874
0 0 0 0 0 0 0 0 0 0 0 2 85 224 401 439 331 290 182 161 134 112 154 69 57 27 0 29 101 142 186 169 168 263 230 240 161 257 732 740 972 1144 1391 1475 1414 1391 1462 1459 1365
0 0 0 0 0 0 0 0 0 0 0 0 1 181 304 463 434 362 303 201 197 132 76 133 126 67 11 1 140 213 239 207 197 284 319 285 245 224 651 662 923 1050 1175 1328 1466 1449 1657 1490 1550
0 0 0 0 0 0 0 0 0 0 0 0 0 36 127 322 483 453 413 317 231 180 150 89 89 87 84 9 78 212 235 269 289 353 263 275 252 208 265 733 937 1175 1192 1336 1469 1486 1698 1924 1831
0 0 0 0 0 0 0 0 0 0 0 0 0 0 37 146 351 462 592 503 369 243 266 188 92 108 81 45 78 139 250 249 304 298 334 401 290 334 380 656 834 1115 1234 1295 1441 1440 1591 1834 1957
0 0 0 1 0 0 0 0 0 0 0 0 0 0 0 63 177 258 519 550 524 446 359 342 253 186 156 141 87 82 206 248 246 284 377 434 339 430 534 727 704 1009 1184 1295 1328 1285 1459 1713 1724

GFSSGP_con_mlcape_048.txt.gz
CAPE
7 2 10 21 64 92 29 123 301 305 69 85 0 3 29 30 95 200 23 64 0 27 222 545 1402 1327 1870 1836 1688 1845 1563 1621 1617 1695 1977 1785 1750 1751 1233 1503 1592 1601 1613 1469 1350 1125 1321 1483 925
6 5 15 77 1 20 82 211 236 182 154 9 16 3 34 39 0 2 34 8 15 16 50 412 1228 1531 1636 1760 1765 1710 1903 1921 1821 1829 1648 1774 1629 1287 1660 1679 1553 1575 1507 1347 1394 1513 1585 1612 1460
2 0 12 3 25 27 120 211 344 216 190 4 102 115 136 93 6 15 16 12 0 7 42 715 1206 1603 1730 1754 1853 1779 1507 1680 1683 1616 1645 1719 1656 1637 1689 1618 1365 1305 1455 1317 1267 1076 1131 960 1008
0 33 14 2 32 3 98 121 88 404 116 115 137 171 50 18 2 47 6 0 3 57 91 753 1382 1515 1407 1633 1741 1618 1734 1715 1728 1672 1694 1563 1603 1583 1682 1587 1690 1584 1420 1212 1293 1097 1163 1194 1253
20 221 19 167 139 200 46 73 261 401 357 142 92 115 4 8 5 37 3 1 3 40 183 695 1346 1475 1484 1576 1566 1695 1667 1657 1811 1655 1587 1394 1523 1669 1559 1593 1516 1530 1291 1234 1160 1066 958 1040 1272
163 64 124 13 58 87 493 464 291 529 162 121 146 19 5 11 8 43 4 5 3 50 120 566 1121 1457 1385 1335 1632 1767 1693 1640 1702 1632 1587 1629 1714 1685 1588 1473 1424 1456 1397 1266 1069 848 905 1135 1094
428 273 243 62 26 78 432 384 436 399 136 158 77 94 8 35 22 52 11 9 16 58 176 368 907 1137 1350 1624 1546 1649 1565 1673 1560 1379 1771 1698 1756 1528 1433 1284 1261 1196 1064 927 625 825 1042 1002 1289
482 99 78 36 86 354 370 640 250 314 338 40 26 144 7 47 29 33 21 22 23 59 274 190 542 759 1004 1002 1541 1614 1736 1445 1677 1797 1657 1812 1731 1431 1209 1009 1110 907 751 873 993 787 947 1076 987
367 173 155 48 92 418 229 180 137 45 37 80 36 10 42 39 47 28 29 25 27 48 319 70 484 727 923 999 1241 1517 1597 1820 1652 1622 1569 1194 609 470 943 885 1205 1113 891 559 667 731 919 1051 1238
146 62 50 61 56 123 241 345 371 402 176 68 18 2 22 28 43 45 28 18 19 35 195 135 715 701 937 840 1101 1248 1134 952 918 1081 1168 855 700 661 340 739 1003 621 764 756 787 842 488 904 961
135 50 107 53 43 215 691 805 845 511 352 182 28 22 10 33 62 74 20 8 6 16 37 75 358 545 937 999 1060 948 689 842 1037 1246 1037 908 657 197 505 705 797 711 794 852 1002 1034 896 862 763
0 102 155 117 81 194 320 419 479 301 586 370 30 29 31 3 16 35 11 4 7 10 32 11 246 471 726 886 571 529 501 525 571 706 1079 993 791 620 541 740 666 782 821 836 937 399 649 660 1080
0 78 325 122 110 112 134 266 164 379 510 293 41 17 10 2 3 11 3 3 8 15 102 81 224 547 664 877 551 503 546 578 531 642 820 633 738 865 841 874 825 786 730 569 602 493 554 844 697
0 0 240 191 320 229 159 220 107 339 487 250 82 16 13 11 7 4 1 0 6 5 78 133 191 451 686 784 790 940 789 765 536 420 354 931 1036 1118 726 639 954 1090 909 730 548 363 108 77 215
0 0 0 9 40 170 129 86 103 541 378 271 167 46 20 10 21 0 0 0 1 10 80 144 176 275 545 698 839 636 573 470 691 663 817 1267 1487 842 820 824 758 1094 977 999 618 298 104 92 85
0 0 0 0 0 52 96 197 310 455 432 390 233 88 27 3 10 15 2 0 0 0 0 166 72 55 323 369 507 297 379 596 780 960 957 1111 1393 1304 877 686 824 1108 695 539 138 95 89 77 56
0 0 0 0 14 145 142 231 566 404 458 439 285 113 37 1 10 11 17 0 0 0 0 124 115 38 57 224 205 270 414 652 787 856 956 1422 1407 1533 1408 1038 1109 983 811 812 193 115 73 89 47
0 0 0 0 18 194 246 215 591 451 533 515 350 202 53 0 3 3 4 1 2 0 0 64 137 67 84 107 150 93 328 625 818 888 950 1370 1315 1519 1666 1101 841 798 429 652 659 238 110 110 68
0 0 0 0 0 126 231 236 307 632 502 448 396 250 98 39 0 0 11 0 1 0 0 0 96 184 203 62 0 65 245 334 537 669 1049 1497 1374 1535 1899 1092 763 829 460 524 789 191 431 80 74
0 0 0 0 0 8 188 201 197 683 582 433 378 248 105 25 0 0 8 31 29 43 75 107 107 280 383 0 0 0 154 182 417 882 1382 1537 1483 1701 1624 1214 825 1093 765 365 412 735 55 45 44
0 0 0 0 0 0 30 164 167 226 684 611 445 245 128 23 13 18 15 60 52 116 143 201 255 267 404 0 0 154 248 489 740 1062 1007 1313 1554 1645 1760 1100 1057 643 824 610 769 807 283 44 39
0 0 0 0 0 0 0 26 77 121 417 543 628 406 175 98 36 44 35 73 83 133 234 232 441 387 370 63 0 88 146 119 98 532 645 1156 1568 1547 1718 1563 1188 887 1028 918 865 830 130 242 22
0 0 0 0 0 0 0 1 52 111 114 478 570 607 339 153 99 73 109 155 80 89 228 352 509 532 303 303 7 7 4 0 18 306 642 1009 1660 1607 1490 1623 1180 1151 887 1136 1345 1378 937 0 35
0 0 0 0 0 0 0 0 0 57 88 100 416 455 512 417 199 149 122 196 216 130 167 297 540 738 460 256 190 91 0 0 9 246 328 473 709 1235 1599 1756 1822 1118 969 1468 1290 1272 1572 821 284
0 0 0 0 0 0 0 0 0 7 43 91 165 358 484 506 488 298 195 189 287 281 172 174 445 820 627 443 543 175 169 111 234 574 383 248 159 393 887 1696 1933 1630 1550 1641 1541 1406 1676 1521 919
0 0 0 0 0 0 0 0 0 0 0 2 114 207 400 487 538 571 463 236 278 346 279 232 310 748 784 463 729 898 596 289 303 632 469 378 130 133 335 1487 1526 1721 1808 1816 1900 1686 1570 1541 1536
0 0 0 0 0 0 0 0 0 0 0 0 0 48 120 385 535 655 692 524 341 415 436 479 508 603 698 505 801 989 886 646 413 619 708 543 582 271 429 648 1268 1216 1500 1756 1835 1441 1861 1759 1795
0 0 0 0 0 0 0 0 0 0 0 0 0 0 57 304 535 680 746 717 508 454 461 443 474 667 657 491 557 689 668 850 755 755 838 888 616 840 429 778 792 937 1399 1612 1868 1485 1701 1953 1910
0 0 0 4 0 0 0 0 0 0 0 0 0 0 1 175 507 657 749 768 692 517 461 533 554 643 768 699 637 609 609 656 917 826 892 1087 1070 986 1194 782 713 1074 1546 1686 1878 1714 1507 2070 2079
0 0 0 4 0 0 0 0 0 0 0 0 0 0 0 55 267 513 608 674 720 691 543 506 558 603 701 767 959 725 749 732 675 956 953 1154 1259 1269 1318 1172 1050 994 1182 1629 1956 1889 1397 1838 1963

GFSSGP_con_mlcape_051.txt.gz
CAPE
0 0 11 19 46 151 160 161 444 165 184 165 54 39 156 146 210 147 5 26 8 360 505 794 1038 1358 1430 1515 1356 1551 1782 1853 1826 1909 1900 1858 1744 1581 1624 1693 1694 1703 1545 1388 1234 1462 1341 966 1602
4 11 6 57 126 5 132 259 464 348 263 49 53 74 179 135 113 28 11 86 35 353 363 606 1335 1781 1869 1664 2109 1758 1650 1924 1903 1931 1742 1715 1596 1780 1663 1647 1625 1561 1443 1463 1620 1546 1519 1325 1161
14 1 0 7 30 111 276 418 359 284 86 182 141 197 524 139 115 149 109 4 95 40 124 1012 1424 1740 1792 1822 1953 1992 1990 1824 1638 1755 1757 1655 1495 1765 1552 1432 1436 1470 1392 1298 1197 1239 1080 1121 1339
0 8 31 56 240 48 183 434 478 339 56 167 409 227 148 200 58 83 0 51 24 30 354 972 1677 1745 1824 1915 1792 1784 1805 1725 1659 1741 1677 1670 1599 1554 1755 1636 1456 1455 1286 1393 1141 1248 1274 1281 1201
5 278 102 103 418 255 87 537 683 377 371 445 221 332 178 68 63 93 65 33 30 164 327 647 1576 1483 1683 1801 1768 1801 1664 1710 1725 1750 1685 1610 1621 1622 1539 1600 1617 1234 1310 1286 955 1129 1265 1280 1267
187 334 326 236 161 251 74 217 378 177 292 280 435 68 52 81 4 29 43 47 46 108 105 737 1391 1585 1644 1663 1785 1679 1710 1769 1617 1569 1494 1539 1509 1699 1572 1568 1448 1426 1329 1206 948 1088 1308 1438 1521
168 431 289 226 207 195 481 517 300 116 128 342 149 206 77 75 30 10 34 48 49 35 140 505 808 1086 1427 1728 1824 1543 1474 1355 1544 1590 1829 1449 1576 1475 1383 1392 1279 1126 923 823 1020 1104 1222 1469 1416
215 233 153 236 36 237 589 846 433 319 164 111 103 284 103 90 3 10 33 47 64 72 14 159 357 788 711 1152 1637 1648 1505 1340 1532 1644 1643 1576 1385 1211 1155 883 1044 942 1053 1002 947 992 1188 1228 1193
194 85 328 163 207 779 699 653 237 314 70 110 177 310 168 52 19 15 24 44 58 73 46 120 182 369 779 1119 1318 1580 1569 1558 1600 1324 1298 1209 494 983 1237 903 1209 935 680 716 755 873 1100 1016 749
119 70 79 49 188 429 582 394 245 49 164 258 260 264 90 40 39 6 16 32 62 71 60 74 145 491 779 476 1025 1029 919 710 883 661 1457 1320 662 615 484 497 639 586 656 569 384 621 951 761 691
51 5 57 147 132 506 715 381 421 355 268 189 144 172 71 86 55 25 39 40 49 66 51 90 461 408 730 476 862 779 946 845 1087 810 727 555 266 229 641 563 641 669 713 1064 1124 1187 668 386 514
19 39 1 120 221 539 624 813 693 503 247 154 113 126 72 181 84 44 53 47 57 74 49 142 143 449 711 458 691 856 575 339 311 655 783 926 991 565 657 698 354 605 731 264 340 98 292 562 934
6 11 273 353 334 297 397 252 291 188 425 160 126 103 119 158 99 90 65 40 46 54 35 104 34 598 796 888 586 287 246 240 449 699 814 788 1023 763 796 655 629 631 552 371 483 161 393 43 122
0 0 181 378 193 200 66 200 164 321 404 248 168 125 114 168 123 95 89 40 39 31 31 23 124 446 652 651 472 409 327 713 286 349 575 974 1032 1340 896 781 1015 937 229 393 403 611 124 133 78
0 0 0 263 296 178 133 107 215 319 488 348 297 176 127 112 96 89 50 27 34 24 36 12 158 445 646 931 667 732 565 291 450 693 1016 1126 1304 1265 1288 899 660 937 623 593 157 51 45 60 257
0 0 2 50 186 124 209 125 128 583 557 537 425 233 151 123 80 77 51 35 35 13 33 16 46 262 546 608 630 434 391 360 650 807 1075 1299 1176 1246 1344 820 396 619 471 642 58 31 29 51 58
0 0 0 0 64 96 153 65 4 530 607 594 540 314 191 123 85 78 62 27 22 3 17 22 13 148 384 661 516 435 461 599 744 873 1090 1424 1386 1308 811 824 1036 1062 629 376 141 39 4 54 44
0 0 0 0 35 64 132 209 176 522 597 649 618 341 240 150 105 88 72 38 21 2 6 61 48 116 411 457 471 393 427 502 602 591 1237 1451 1225 1383 1489 1140 905 937 184 545 647 234 52 32 16
0 0 0 0 2 84 81 143 62 492 588 618 607 495 277 215 118 104 67 41 14 6 2 35 121 357 265 242 262 290 322 375 535 797 1210 1452 1210 1244 1570 885 1011 993 389 760 393 71 46 53 14
0 0 0 0 0 103 170 157 322 419 447 636 624 614 338 246 134 102 60 46 7 1 0 43 270 635 360 147 248 291 365 321 374 401 1134 1454 1434 1437 769 1099 1122 740 938 975 684 425 79 29 20
0 0 0 0 0 0 41 70 206 515 444 622 642 580 488 259 207 119 62 47 12 4 4 64 428 694 603 110 51 103 348 322 305 885 1080 1330 1534 1562 1485 1136 1273 1031 1423 655 820 732 417 97 8
0 0 0 0 0 0 0 27 92 192 484 544 590 542 524 276 236 161 100 83 25 11 38 236 389 763 788 462 0 106 199 82 68 402 509 1046 1388 1542 1535 1376 1459 1086 983 1246 888 975 549 511 32
0 0 0 0 0 0 0 13 32 160 154 428 657 572 458 398 176 161 141 127 86 12 151 150 634 778 684 694 101 76 207 17 43 44 1135 971 1592 1505 1539 1347 1438 1542 1144 1203 1389 1428 812 26 541
0 0 0 0 0 0 0 4 16 37 88 234 412 640 533 399 273 180 172 144 139 92 172 325 772 1043 1006 932 265 375 39 105 3 6 613 594 957 1143 1386 1540 1591 1448 1258 1617 1453 1339 1219 981 315
0 0 0 0 0 0 0 0 0 39 42 64 294 492 602 414 352 271 224 210 296 258 271 488 863 1233 1203 1023 463 518 518 108 315 471 146 152 148 317 1150 1635 1790 1612 1568 1515 1608 1810 1518 1311 838
0 0 0 0 0 0 0 0 0 0 41 4 3 449 446 470 352 357 360 301 467 459 447 508 949 1328 1370 944 707 475 628 54 1 156 230 146 58 91 1736 1816 1537 1823 1894 1595 1718 1581 1505 1395 1340
0 0 0 0 0 0 0 0 0 0 0 1 0 191 220 388 489 470 411 423 483 552 603 558 906 1325 1377 717 950 1012 740 138 0 0 610 965 465 180 401 1287 1522 1402 1383 1717 1738 1256 1619 1859 1903
0 0 0 0 0 0 0 0 0 0 0 0 0 2 150 210 443 529 659 553 509 560 656 652 790 1259 1368 956 1130 1104 1203 1262 539 731 1304 858 829 650 648 561 796 1304 1300 1447 1906 1318 1735 1722 1625
0 0 0 1 0 0 0 0 0 0 0 0 0 0 14 72 346 547 690 800 670 594 630 694 735 974 1094 1193 1163 795 877 1024 1110 1390 1426 1406 1258 1434 1273 1164 1075 1123 1148 1504 2084 1732 1628 1636 1722
0 0 0 0 0 0 0 0 0 0 0 0 0 0 0 1 213 555 658 891 937 806 694 753 680 695 993 1058 1397 1139 974 879 929 1033 1455 1651 1770 1663 1644 1755 1420 1189 1098 1765 1990 1785 1127 1825 1818

GFSSGP_con_mlcape_054.txt.gz
CAPE
0 0 0 16 9 102 205 211 224 151 212 67 76 149 166 228 150 190 1 135 143 218 296 872 1115 1640 1495 1540 1839 1896 1932 1832 1668 1866 1909 1723 1587 1693 1684 1726 1547 1455 1333 1395 1592 1010 1148 1731 1645
0 0 12 87 54 33 114 229 434 222 101 81 131 213 161 109 62 1 45 25 258 228 521 758 1145 1396 1573 1459 1429 1530 1660 1725 2022 1871 1814 1686 1719 1685 1639 1646 1499 1593 1583 1601 1667 1602 1315 1199 1650
45 12 0 9 53 79 117 380 346 133 88 79 431 332 176 35 0 0 18 85 267 416 699 957 1590 1713 1828 2018 1844 1962 2029 1940 1867 1892 1702 1469 1754 1660 1467 1480 1529 1435 1310 1302 1350 1200 1275 1327 1591
12 2 126 42 170 84 130 280 101 94 308 349 309 237 139 0 24 0 25 212 356 514 939 1376 1698 1697 1937 1834 1846 1835 1808 1761 1814 1836 1817 1721 1504 1749 1733 1514 1439 1366 1428 1271 1379 1406 1355 1159 1308
5 17 178 78 207 83 326 314 455 202 391 362 527 219 59 60 87 0 15 134 52 471 557 1257 1696 1728 1848 1729 1733 1781 1825 1756 1720 1721 1553 1524 1657 1527 1524 1673 1083 1384 1313 1181 1284 1327 1315 1312 1359
1 163 194 128 113 249 133 472 524 222 208 368 300 165 98 55 2 6 60 80 317 239 313 983 1428 1666 1739 1672 1720 1799 1716 1724 1665 1506 1561 1543 1688 1650 1573 1361 1360 1332 1214 1015 1198 1333 1458 1415 1027
7 194 343 140 37 321 46 241 212 36 54 195 113 137 141 13 8 39 42 73 53 21 422 759 1057 1454 1717 1621 1595 1664 1561 1573 1580 1667 1530 1673 1471 1405 1324 1228 1082 892 869 1073 1151 1261 1420 963 512
0 134 42 71 50 181 177 336 97 1 6 149 144 114 108 16 34 36 46 14 12 81 189 399 750 827 1088 1348 1493 1446 1423 1658 1529 1588 1566 1289 1294 1170 1078 914 1062 1037 947 993 1086 1262 1149 679 134
2 59 142 9 141 204 528 555 53 67 167 151 93 277 102 10 8 31 44 12 43 0 0 118 351 534 1051 1227 1463 1490 1515 1471 1599 1541 954 641 1024 1154 1172 674 781 755 924 983 971 1167 1228 1150 534
0 148 95 4 13 305 498 427 393 211 161 181 315 274 67 5 6 33 44 10 29 1 22 5 187 594 997 580 1249 1369 1326 1213 948 912 763 900 849 904 509 512 659 593 768 758 782 552 68 172 666
0 46 14 0 45 326 414 396 128 51 152 322 342 164 51 1 5 26 33 38 44 21 25 41 555 288 641 807 1097 1078 1099 1080 987 553 565 1086 796 307 352 480 582 119 605 867 655 457 49 62 308
1 9 44 54 158 594 434 349 355 10 107 99 270 119 41 7 6 15 38 48 50 33 68 298 255 616 614 622 1140 289 924 1079 597 459 500 976 605 315 573 556 587 198 449 1177 256 533 112 383 422
1 8 14 198 226 524 675 282 89 51 116 115 224 62 1 16 0 3 38 55 45 23 37 276 575 71 92 896 870 143 115 473 719 547 611 205 997 763 803 221 74 744 307 256 126 761 714 652 507
0 10 10 118 303 334 507 134 121 114 179 218 88 55 40 39 19 16 60 53 52 19 38 162 298 735 714 574 727 422 321 544 392 288 847 612 873 961 1170 1090 530 435 31 154 43 330 302 247 333
0 0 0 0 345 229 271 93 205 357 245 250 109 89 59 46 38 72 59 37 35 20 22 0 390 133 444 481 640 578 172 487 561 846 531 1316 1189 1557 1489 860 350 174 686 1063 476 177 51 264 124
0 0 0 0 221 300 223 29 23 182 26 366 200 163 78 57 62 32 50 30 25 17 18 0 12 469 627 500 622 164 277 662 757 1150 998 1376 1357 1247 1389 847 1056 856 336 23 16 35 52 129 123
0 0 0 0 13 189 241 234 282 134 108 519 329 176 87 81 79 33 40 40 16 29 19 0 85 332 360 455 303 289 450 319 294 905 1049 1346 1024 1053 507 658 967 94 430 327 167 57 30 184 50
0 0 0 0 0 96 96 126 187 13 29 425 444 237 69 36 56 40 20 26 24 22 130 7 221 515 344 846 596 653 339 379 736 643 1306 1589 1498 1280 584 643 996 1153 77 10 471 252 31 132 37
0 0 0 0 0 85 94 61 0 0 21 384 471 285 159 43 42 35 11 15 34 0 0 234 220 722 497 408 600 531 252 248 245 679 1138 1369 1336 1341 523 913 961 857 786 109 779 91 46 167 30
0 0 0 0 0 30 230 119 43 0 41 259 381 280 155 116 47 44 5 10 25 0 0 213 271 698 410 656 630 603 264 453 607 290 1592 1300 1185 1315 1310 1025 903 539 962 1034 916 900 299 28 34
0 0 0 0 0 5 22 45 11 0 0 50 333 239 222 200 170 128 8 19 26 0 0 146 437 649 427 544 368 707 810 918 343 1392 1260 1475 1309 1413 1493 1339 1050 966 863 897 757 861 667 144 28
0 0 0 0 0 0 2 11 41 85 35 7 31 369 272 243 191 226 71 44 17 30 11 176 575 1030 400 493 158 290 347 449 33 1173 1193 1243 1560 1359 1872 1229 1548 887 1090 686 1066 830 852 47 160
0 0 0 0 0 0 0 0 0 282 69 0 27 650 428 264 226 238 136 112 18 50 61 124 491 1052 700 416 407 68 325 237 568 136 1413 1457 1523 1788 1826 1512 1621 1285 1327 1090 1068 1080 760 916 416
0 0 0 0 0 0 0 0 0 67 119 1 9 256 367 314 262 244 230 142 66 91 72 318 378 683 989 360 667 192 113 414 269 65 1050 1445 1598 1602 1918 1603 1675 1686 1331 1094 1394 1357 1160 859 938
0 0 0 0 0 0 0 0 0 0 294 138 28 0 4 487 282 309 309 260 162 78 159 331 540 471 915 1036 315 1000 183 164 524 373 971 947 1403 1051 1451 1642 1525 1491 1516 1307 1444 1301 1689 1113 1322
0 0 0 0 0 0 0 0 0 0 8 177 22 20 63 428 342 302 296 308 227 126 198 343 802 710 804 1201 482 534 833 39 227 563 95 375 518 875 1218 1805 1604 1632 1591 1705 1482 1432 1457 1494 1103
0 0 0 0 0 0 0 0 0 0 0 109 42 61 76 15 254 293 387 341 354 334 260 526 807 1019 1102 764 1203 373 1032 751 105 137 262 708 277 615 1606 1510 2231 1809 1951 1338 1693 1469 1050 1787 1624
0 0 0 0 0 0 0 0 0 0 0 0 23 0 0 0 59 191 445 483 595 470 566 512 934 1136 1320 1107 1160 889 329 787 415 1 60 220 1008 492 1865 1883 1691 1811 1855 1969 1779 1665 1239 1479 1874
0 0 0 0 0 0 0 0 0 5 0 0 17 23 0 57 54 6 97 670 662 691 821 665 849 1280 1487 1507 1110 940 732 502 211 573 3 1068 524 1577 837 1663 1835 1683 1545 1872 1884 1445 1775 1713 1354
0 0 0 0 0 0 0 0 0 1 0 0 0 1 106 260 103 56 79 2 726 787 808 890 830 1312 1547 1659 1281 1000 1000 663 510 6 1239 763 1795 1176 2288 1226 1781 1329 1753 1752 1733 2037 1372 1808 1705

GFSSGP_con_mlcape_057.txt.gz
CAPE
0 0 0 0 0 14 38 44 11 66 55 52 69 44 58 91 106 9 1 67 128 82 122 1055 1119 1178 1673 1811 1849 1936 1719 1581 1692 1818 1723 1642 1798 1665 1737 1600 1491 1207 1672 1617 888 1506 1726 1533 1599
0 0 1 11 0 59 57 143 44 52 53 103 101 26 30 9 0 0 31 92 174 134 536 994 1097 1074 1607 1788 1868 1875 1806 1825 1801 1812 1710 1750 1628 1662 1549 1558 1715 1655 1620 1582 1535 1253 1372 1611 1797
0 35 14 16 26 35 45 65 65 44 245 308 185 62 6 0 0 26 18 176 74 335 723 900 1188 1232 1455 1463 1400 1672 1911 1702 1792 1634 1597 1767 1595 1454 1467 1579 1385 1260 1354 1361 1250 1326 1309 1537 1449
27 41 4 1 18 154 134 63 98 105 289 101 24 0 0 0 0 0 82 118 188 539 757 1326 1537 1622 1862 1858 2019 1836 1746 1782 1699 1701 1704 1536 1685 1603 1570 1191 1434 1427 1383 1456 1451 1351 1148 1131 1089
116 1 14 17 131 0 174 35 51 154 201 71 0 2 0 0 0 2 88 134 572 698 806 1506 1541 1738 1686 1747 1763 1717 1699 1741 1714 1620 1506 1580 1513 1553 1656 1084 1384 1287 1297 1426 1328 1291 1211 1203 952
0 21 26 5 0 62 287 120 429 147 104 28 1 13 0 0 0 13 136 383 470 457 995 1390 1666 1671 1712 1710 1626 1667 1746 1652 1725 1418 1703 1678 1657 1507 1171 1347 1295 1224 1147 1324 1389 1372 1009 801 824
0 98 36 100 66 68 251 268 233 132 204 175 29 8 0 0 6 11 90 159 149 547 730 977 1309 1513 1594 1708 1766 1675 1643 1667 1558 1622 1577 1529 1502 1271 1231 1175 1022 1004 1175 1256 1272 1266 735 191 203
2 2 60 63 56 84 197 376 124 34 102 78 54 6 0 0 13 2 42 13 247 415 369 678 1140 1355 1257 1447 1495 1445 1586 1644 1687 1580 1516 1322 1253 1214 1163 924 982 997 1088 1229 1093 1085 1140 770 631
69 0 3 65 20 80 170 271 77 19 106 260 98 4 0 0 7 19 8 38 148 181 437 503 526 904 772 1198 1269 1407 1713 1593 1621 1506 940 968 898 826 1058 687 1026 1073 1049 1130 1097 751 526 627 684
8 4 18 38 33 111 12 175 1 113 31 189 142 13 0 0 18 5 3 8 38 39 131 313 272 793 687 1066 1097 1190 1346 955 790 515 517 792 850 628 183 745 835 875 712 1126 1162 82 6 98 273
0 0 7 12 71 232 25 145 359 210 128 176 173 16 0 5 18 7 19 7 3 14 31 116 264 454 490 382 907 971 890 846 838 618 390 627 765 324 20 292 585 540 281 278 595 0 0 0 262
0 0 0 20 415 405 264 206 204 179 124 178 125 9 0 0 11 2 9 20 2 0 1 40 168 470 343 414 788 785 835 806 400 21 362 687 350 316 243 409 4 27 376 5 314 0 0 132 324
0 0 2 60 174 203 228 294 222 50 0 118 94 29 0 0 10 0 12 26 15 33 27 81 111 258 342 513 609 422 666 713 369 294 252 199 629 452 612 439 379 335 434 526 259 6 27 243 477
0 0 0 15 326 559 285 182 126 29 0 48 49 6 0 4 8 0 18 34 54 95 56 38 53 62 81 484 326 0 45 439 538 303 5 170 576 732 490 200 606 219 52 239 108 301 39 260 411
0 0 0 0 25 181 184 54 81 105 52 144 21 13 0 0 0 0 37 36 24 116 62 19 0 0 53 445 178 339 458 595 251 301 232 508 491 914 991 457 153 206 565 588 563 434 159 271 237
0 0 0 0 0 201 199 81 177 134 192 223 53 44 43 24 1 4 30 13 53 123 7 29 49 61 322 561 202 177 230 437 496 476 866 1034 1113 911 752 614 470 128 509 83 74 55 208 126 57
0 0 0 0 0 98 241 182 334 268 156 183 84 76 85 67 13 20 40 21 15 16 2 0 0 101 246 569 50 22 184 527 806 560 1117 963 845 512 435 578 757 403 238 160 86 63 96 87 73
0 0 0 0 0 109 299 257 190 61 31 287 197 165 47 61 60 81 7 15 11 0 0 0 79 82 64 295 0 70 487 137 544 993 1042 909 816 402 0 303 736 416 190 42 290 182 49 152 24
0 0 0 0 0 19 256 394 261 48 25 166 356 290 131 53 133 80 10 8 10 0 0 0 145 107 135 117 42 351 217 335 361 776 1270 957 1095 811 414 388 598 263 20 17 223 52 57 83 34
0 0 0 0 0 0 140 296 144 134 25 67 176 295 190 160 193 54 17 10 21 0 0 0 89 124 345 224 125 369 274 117 225 678 874 1003 948 707 297 396 669 656 332 720 565 752 88 171 26
0 0 0 0 0 7 170 141 114 115 135 112 16 73 128 145 91 97 13 1 3 30 0 0 211 151 166 131 39 486 124 168 158 485 790 982 1151 1007 1062 867 853 277 738 611 574 458 414 22 31
0 0 0 0 0 0 122 116 118 77 97 267 170 105 22 122 46 107 4 0 0 3 26 0 380 203 251 76 0 242 504 455 143 198 836 1154 1019 899 1248 865 672 720 764 827 329 640 575 36 33
0 0 0 0 0 0 0 0 52 151 112 56 64 28 1 0 56 63 23 1 10 15 0 49 297 247 136 355 4 70 156 301 328 473 835 819 1034 1145 1182 1044 1360 744 639 474 745 962 999 695 621
0 0 0 0 0 0 0 0 0 79 96 21 0 0 1 36 190 148 72 21 58 47 23 84 301 250 114 47 212 9 41 140 368 277 426 926 1241 1313 1535 1185 1056 998 892 911 940 1402 794 447 713
0 0 0 0 0 0 0 0 0 1 228 66 2 0 2 396 233 249 163 84 47 85 86 95 207 334 213 63 241 145 0 23 66 254 663 937 951 1233 1504 1244 1240 1362 987 973 666 1266 1220 921 686
0 0 0 0 0 0 0 0 0 0 208 163 55 16 287 258 90 300 256 182 119 165 100 122 121 283 483 148 17 295 147 0 124 640 1022 917 1044 932 1238 1257 1234 945 1243 1164 1105 1037 849 1090 769
0 0 0 0 0 0 0 0 0 0 18 105 116 287 213 77 202 174 384 251 220 211 173 143 148 126 507 379 12 91 486 1 16 111 503 604 939 922 708 1387 1138 1131 1337 1157 1302 933 905 1477 1347
0 0 0 0 0 0 0 0 0 0 0 100 171 281 319 234 393 393 398 386 224 243 228 230 329 175 423 532 265 3 202 376 0 6 108 376 58 252 913 1555 1346 1339 1207 1192 1562 1161 1291 1017 1511
0 0 0 0 0 0 0 0 0 0 0 62 176 250 374 293 202 88 31 354 172 202 211 304 623 430 401 410 677 156 30 474 279 33 0 166 238 1018 962 1517 1500 1617 1550 1455 1406 1378 1378 1219 1137
0 0 0 0 0 0 0 0 0 0 0 50 330 275 348 272 261 128 1 0 189 252 344 317 496 745 644 587 527 682 99 87 364 179 2 0 63 287 1571 1449 1219 1371 1487 1535 1609 1544 1400 1375 1505

GFSSGP_con_mlcape_060.txt.gz
CAPE
13 0 0 0 0 0 19 10 35 19 97 40 4 18 54 67 79 11 0 0 8 0 507 1250 1488 1668 1786 1968 1818 1741 1510 1799 1990 1735 1824 2051 1795 1733 1681 1567 1528 1811 1097 1373 1786 1481 1543 1654 1968
0 0 0 11 0 2 75 93 18 72 94 61 79 93 102 34 0 0 0 19 8 14 747 1022 1289 1667 1826 1790 1807 1724 1746 2103 1883 1729 1782 1587 1673 1634 1671 1650 1754 1665 1548 1370 1220 1660 1502 1667 1924
0 0 2 24 5 30 82 2 96 145 164 114 90 35 10 19 0 0 27 25 3 269 659 874 1220 1595 1798 1880 1867 1713 1761 1882 1827 1853 1828 1573 1614 1536 1513 1537 1437 1475 1380 1274 1279 1369 1473 1572 1543
3 63 0 0 6 35 146 1 127 156 237 45 1 0 0 4 0 3 42 55 3 347 612 1246 1195 1262 1262 1373 1658 1960 1729 1826 1691 1674 1551 1646 1640 1627 1278 1523 1431 1478 1467 1438 1276 1124 1184 1429 1663
55 8 29 32 2 27 45 32 53 40 10 40 23 11 0 0 0 8 30 100 201 393 904 1241 1600 1898 1786 1927 1817 1717 1807 1813 1809 1689 1572 1849 1479 1581 1312 1384 1413 1464 1482 1346 1282 1058 1181 1339 1275
0 3 56 61 8 140 38 148 147 195 54 26 21 12 0 0 0 11 63 252 465 519 1120 1509 1633 1736 1725 1748 1773 1770 1749 1760 1585 1649 1765 1661 1636 1119 1460 1400 1366 1365 1406 1323 1119 1019 1210 1061 962
0 119 32 87 93 126 8 2 175 94 41 53 41 0 0 0 3 32 292 362 313 617 926 1332 1414 1648 1724 1759 1760 1781 1728 1665 1661 1668 1713 1630 1376 1422 1384 1332 1186 1299 1320 1255 1197 1030 854 607 535
0 9 42 67 47 144 196 65 234 138 140 80 15 0 0 0 0 112 247 306 349 660 680 848 1193 1274 1450 1792 1654 1676 1663 1642 1620 1562 1407 1284 1205 1133 1054 1027 1105 1216 1275 1197 1297 1166 460 357 559
101 33 1 6 34 47 256 229 29 80 83 123 93 0 0 0 2 66 105 171 184 373 488 798 1021 915 1134 1420 1459 1621 1600 1614 1507 1300 1243 1101 964 877 832 1027 1126 1080 1186 1224 997 623 440 498 886
107 64 13 1 126 162 186 77 30 44 51 191 131 1 0 0 9 33 69 28 0 0 382 545 572 574 938 1122 1273 1407 1372 1226 833 901 790 768 677 609 450 864 1138 1080 1049 1166 649 84 355 286 312
3 39 26 33 123 1 1 1 127 64 9 165 49 0 0 0 1 14 9 33 12 3 48 84 328 384 703 901 873 910 697 346 188 321 559 565 597 326 425 497 499 524 635 739 72 0 1 166 353
0 0 0 11 92 28 6 17 135 204 145 279 24 0 0 0 0 0 0 23 15 19 70 127 349 298 331 477 572 574 537 488 340 163 191 473 409 69 157 120 75 112 46 0 108 0 19 233 314
0 0 0 9 210 33 17 28 16 181 255 319 43 9 0 0 0 0 1 11 5 30 70 108 273 219 199 188 338 407 583 635 429 122 344 366 222 161 214 77 31 97 307 48 113 1 37 242 376
0 0 0 243 298 156 86 221 73 109 116 169 51 3 0 0 0 5 4 5 3 8 45 82 232 378 180 229 364 377 528 623 218 86 33 155 499 314 302 281 273 202 206 350 155 168 47 168 408
0 0 0 29 513 385 68 98 277 45 99 227 89 7 3 2 0 0 0 0 0 13 30 40 161 300 200 463 420 65 278 454 383 50 0 244 526 341 180 69 302 157 194 94 54 180 87 141 229
0 0 0 3 510 514 133 105 172 39 290 255 160 12 1 3 7 0 10 36 2 62 24 25 69 115 289 343 292 156 250 299 357 87 173 267 471 506 432 111 83 55 376 165 18 239 155 92 79
0 0 0 0 0 179 224 272 322 337 185 246 137 52 1 6 26 13 12 82 89 51 32 27 5 151 232 153 215 198 347 377 230 249 597 660 558 497 384 336 236 155 65 39 15 64 93 63 44
0 0 0 0 0 12 234 301 358 369 319 170 129 64 0 7 1 6 17 62 121 87 37 28 0 246 404 268 61 115 351 278 374 446 751 753 449 163 267 332 204 211 47 19 34 51 43 93 46
0 0 0 0 0 0 35 312 361 426 355 248 140 69 11 49 22 14 23 89 54 96 13 0 9 228 406 315 37 242 302 426 570 730 855 681 475 0 97 207 399 33 50 43 135 55 46 94 29
0 0 0 0 0 0 42 198 429 304 329 353 244 92 41 63 32 15 6 2 13 4 0 0 3 113 238 212 109 334 242 170 374 759 949 777 661 436 92 166 160 120 43 81 293 123 175 41 19
0 0 0 0 0 46 204 248 255 138 156 499 405 238 141 53 35 68 6 39 2 1 0 57 85 96 140 86 92 350 251 150 214 542 797 857 923 523 313 337 164 413 257 447 278 155 61 6 19
0 0 0 0 0 0 136 65 132 153 151 391 93 163 186 118 96 52 0 16 0 0 52 123 129 179 134 111 16 197 311 159 129 366 555 891 856 760 729 770 771 153 551 383 290 567 175 21 28
0 0 0 0 0 0 0 0 0 154 120 211 2 6 5 92 139 67 7 51 0 0 0 124 144 193 194 63 0 101 439 211 85 313 528 745 1009 850 1081 707 583 524 591 444 104 642 611 339 200
0 0 0 0 0 0 0 0 0 51 175 306 289 94 66 118 107 124 21 14 13 0 0 115 88 99 180 97 4 10 225 357 444 182 452 659 1096 975 892 775 791 556 501 350 456 756 409 344 578
0 0 0 0 0 0 0 0 0 4 62 206 300 370 266 110 88 101 106 14 0 32 40 120 108 81 176 148 67 0 85 169 376 280 375 703 1004 952 1061 939 873 411 555 661 576 1107 926 442 391
0 0 0 0 0 0 0 0 0 0 75 235 275 380 69 118 38 171 175 55 0 21 52 136 136 91 117 190 180 50 45 72 139 379 536 915 931 850 1140 1102 978 917 657 793 540 700 745 671 426
0 0 0 0 0 0 0 0 0 0 0 155 205 134 34 61 176 181 194 81 14 12 25 65 132 86 72 65 49 123 145 64 40 405 747 779 864 830 1170 1171 1123 965 974 754 669 718 599 648 662
0 0 0 0 0 0 0 0 0 0 0 0 103 159 122 139 270 342 237 124 94 105 39 19 76 106 93 69 21 11 93 190 5 2 437 1036 898 859 853 1120 1115 1013 816 919 856 649 711 700 1127
0 0 0 0 0 0 0 0 0 0 0 0 29 59 138 216 232 361 349 182 161 165 156 109 22 54 273 253 132 5 6 161 178 0 3 182 558 815 953 1027 920 1015 884 987 1035 842 776 920 860
0 0 0 0 0 0 0 0 0 0 0 0 0 115 163 205 327 365 417 313 191 214 195 205 152 81 43 317 344 127 0 4 197 85 0 0 60 491 646 710 1011 1097 1000 834 998 981 1110 971 1102

GFSSGP_con_mlcape_063.txt.gz
CAPE
70 0 0 0 0 0 5 50 26 42 145 51 0 2 15 18 118 45 0 0 0 0 842 1322 1536 1765 1903 2067 1676 1429 1672 1901 1659 1898 1928 1854 1820 1880 1397 1734 1619 1119 1880 1530 1408 1711 1970 2069 2285
0 0 0 8 0 1 33 36 89 95 125 18 29 116 142 54 9 0 0 0 0 135 1086 1400 1448 1759 1976 1954 1693 1565 1858 1799 1693 1919 1679 1781 1741 1638 1862 1720 1777 1529 1195 1700 1363 1448 1660 2000 1944
0 0 3 22 0 11 63 45 12 104 220 92 95 32 70 15 0 0 1 0 0 504 958 1383 1585 1746 1900 1889 1687 1757 2094 1813 1799 1831 1673 1654 1656 1725 1779 1713 1603 1479 1325 1294 1664 1396 1736 1630 1677
0 26 8 1 2 47 82 0 61 150 126 34 5 11 6 0 0 3 4 0 136 559 744 1435 1729 1876 1961 1979 1699 1697 1950 1761 1821 1722 1674 1564 1613 1493 1482 1443 1421 1514 1395 1192 1244 1479 1688 1770 1597
75 5 24 29 32 93 41 4 152 59 71 72 53 1 0 1 0 8 8 2 245 472 974 1390 1554 1462 1374 1495 1966 1686 1891 1681 1746 1529 1682 1622 1596 1319 1471 1494 1546 1529 1520 1196 1174 1294 1217 1066 1076
3 9 70 57 69 130 51 42 66 79 68 57 29 1 2 7 5 11 21 94 306 678 1029 1391 1652 1463 1829 1914 1765 1904 1851 1749 1682 1502 1500 1494 1485 1450 1415 1480 1477 1391 1154 1095 1146 1098 1088 1158 1402
12 106 36 83 50 46 8 28 158 108 70 84 17 0 8 17 6 34 39 302 509 748 934 1299 1617 1832 1753 1678 1826 1813 1767 1551 1725 1651 1533 1415 1269 1540 1456 1387 1323 1322 1141 1020 1216 1129 913 1044 1413
50 20 31 15 60 100 0 29 79 19 92 22 0 0 0 23 13 147 269 414 535 886 998 1088 1378 1550 1565 1640 1855 1761 1696 1619 1558 1603 1612 1364 1382 1318 1218 1226 1416 1343 1121 1095 760 682 798 1025 1424
230 41 0 0 19 63 161 185 134 124 80 4 129 0 0 22 107 186 328 381 589 737 823 989 1254 1286 1437 1381 1657 1696 1625 1546 1381 1294 1354 1268 1007 894 913 1134 1293 1368 1260 1026 490 647 829 1031 852
172 87 19 5 116 24 113 279 102 102 96 115 0 0 16 56 114 183 240 136 149 259 651 789 843 961 1284 1266 1467 1431 1507 1256 1185 1118 878 832 671 545 816 1224 1213 1241 1333 1186 435 497 603 327 534
87 89 8 13 26 87 90 167 76 46 23 151 0 0 41 51 98 204 231 167 42 121 503 667 512 687 874 1042 1195 1225 1188 801 882 827 722 683 602 566 679 816 770 691 786 324 8 98 102 346 482
3 26 8 0 62 2 9 50 60 88 69 181 0 0 41 43 78 182 188 56 0 65 309 460 337 414 673 844 930 813 425 392 393 447 568 485 376 202 279 233 119 85 41 74 57 0 103 354 397
1 14 0 0 0 5 8 1 70 205 382 145 0 0 37 35 63 130 142 19 0 0 32 81 203 185 385 528 595 554 356 268 213 180 217 473 296 50 154 111 68 131 164 49 26 13 166 295 422
0 0 0 0 2 75 70 203 45 203 310 73 0 0 0 38 25 80 75 40 4 0 0 33 253 151 256 287 251 282 405 579 512 343 293 385 223 130 276 73 103 267 196 248 139 126 96 171 385
0 0 0 0 13 125 115 130 77 178 254 115 0 0 0 0 0 47 19 8 18 8 14 79 204 175 103 137 155 266 396 636 556 135 160 165 521 312 301 253 264 176 97 171 326 198 151 203 278
0 0 0 32 161 426 147 54 168 189 247 82 22 0 1 0 0 2 5 15 51 40 45 119 245 275 115 167 310 321 327 418 487 226 63 140 560 409 292 87 228 67 293 169 92 119 194 160 147
0 0 0 0 309 395 226 99 263 175 196 159 60 3 9 10 0 1 2 2 25 39 55 72 198 285 189 277 345 262 127 274 340 325 7 231 569 549 432 195 167 156 101 66 36 65 94 50 36
0 0 0 0 2 113 61 78 279 185 335 83 110 15 8 41 0 0 3 0 18 39 39 57 104 290 276 201 214 207 234 311 303 307 329 551 472 430 406 385 248 24 44 62 39 69 35 45 40
0 0 0 0 0 0 0 0 196 355 462 208 175 66 18 21 0 0 3 5 18 30 22 19 50 192 246 148 104 238 273 303 376 285 593 602 451 210 245 355 288 214 35 35 51 30 45 66 36
0 0 0 0 0 0 0 0 286 403 468 289 207 126 26 0 0 0 0 21 25 5 1 0 18 140 272 152 100 230 313 280 286 437 671 697 425 5 184 179 207 24 37 112 193 66 244 64 11
0 0 0 0 0 0 33 52 372 328 332 399 238 138 25 4 0 1 7 53 19 9 4 0 0 72 242 192 120 201 229 167 285 587 664 832 688 500 224 317 228 169 60 255 217 78 79 17 6
0 0 0 0 0 0 63 0 203 218 199 311 423 272 95 17 26 57 14 45 66 10 14 0 0 28 216 190 97 200 196 202 201 396 564 875 1006 842 299 178 264 399 325 416 213 348 69 12 11
0 0 0 0 0 0 0 0 0 117 109 203 397 440 265 85 79 50 10 0 0 0 0 0 0 31 111 114 111 94 154 152 126 233 505 850 921 826 752 724 902 450 481 480 349 519 360 51 57
0 0 0 0 0 0 0 0 0 0 0 104 250 365 342 196 115 86 29 1 0 0 0 0 0 30 51 35 10 18 75 163 149 120 249 482 854 861 874 827 746 602 478 592 162 497 570 367 429
0 0 0 0 0 0 0 0 0 0 0 22 121 223 91 53 101 89 8 0 0 0 8 0 0 0 30 17 0 0 0 152 265 222 108 430 710 906 911 899 723 630 505 517 370 566 465 357 412
0 0 0 0 0 0 0 0 0 0 0 39 118 127 143 0 9 123 36 27 0 0 0 69 0 0 17 29 9 0 0 68 222 245 314 298 571 812 1001 914 887 873 493 707 596 728 745 700 375
0 0 0 0 0 0 0 0 0 0 0 0 34 137 177 159 73 123 85 19 18 0 1 61 32 0 0 24 11 3 0 0 95 145 221 389 457 785 912 917 919 1035 856 586 831 538 661 833 638
0 0 0 0 0 0 0 0 0 0 0 0 0 19 130 242 246 108 120 24 23 39 33 57 46 12 0 13 5 18 1 0 0 23 126 409 550 802 917 940 855 1030 1085 930 763 738 701 638 572
0 0 0 0 0 0 0 0 0 0 0 0 0 0 123 77 120 76 45 62 23 47 58 85 107 89 38 36 28 0 3 37 4 0 13 66 681 857 870 951 1017 934 1125 1060 948 816 757 775 585
0 0 0 0 0 0 0 0 0 0 0 0 63 0 18 28 40 133 177 108 56 19 12 47 114 156 121 70 54 0 0 0 10 0 0 4 1 246 666 879 1014 1006 1060 1065 908 904 996 884 846

GFSSGP_con_mlcape_066.txt.gz
CAPE
13 0 0 0 0 0 4 74 50 65 146 0 0 0 0 0 1 50 0 0 0 12 810 1170 1559 1909 1593 1548 1347 1532 1783 1518 1861 1802 1890 1913 1839 1519 1719 1280 1280 1923 1409 1471 1807 1787 1958 1996 2072
0 0 0 3 0 0 22 27 86 133 37 0 12 12 69 1 1 0 0 0 0 194 941 1238 1319 1843 1939 1565 1506 1807 1699 1706 2053 1927 1918 1920 1793 1930 1777 1857 1300 1392 1369 1360 1522 1777 1855 1882 2123
0 0 1 6 4 3 41 12 14 2 19 12 29 32 73 12 0 0 0 0 5 514 1014 1115 1334 1670 1648 1729 1641 1823 1834 1679 1938 1866 1794 1840 1905 1894 1809 1691 1574 1309 1398 1348 1411 1619 1605 1823 1884
0 17 12 5 8 14 24 9 23 7 98 54 41 20 4 0 0 0 0 0 100 592 1012 1371 1542 1875 1888 1701 1733 1901 1864 1895 1891 1736 1923 1609 1610 1518 1463 1414 1463 1364 1209 1383 1518 1660 1689 1752 1417
36 26 30 58 61 52 67 2 22 103 104 67 82 0 1 9 0 0 1 28 124 493 959 1504 1643 1822 1946 1598 1670 1659 1729 1701 1492 1670 1789 1776 1318 1529 1472 1425 1040 1262 1100 1236 1394 1339 1323 1235 1323
17 3 49 30 59 142 44 42 102 109 127 64 5 1 8 3 0 0 17 47 270 504 1007 1439 1571 1453 1309 1716 1688 1615 1695 1630 1576 1615 1548 1687 1336 1051 1041 1274 1422 1110 1134 1286 1180 1210 1428 1506 1566
21 52 59 25 41 41 13 13 115 57 61 54 0 0 7 2 0 3 21 130 436 805 871 1113 984 1399 1793 1646 1487 1366 1562 1599 1525 1518 1683 1331 1348 1088 1319 1402 1364 1017 1006 1324 1247 1278 1532 1567 1819
80 13 20 14 3 32 36 26 113 87 108 12 0 0 5 1 0 3 60 209 586 718 880 1199 1435 1445 1471 1680 1533 1591 1484 1756 1791 1554 1264 1489 1465 1151 1375 1267 1299 1046 1136 1273 1266 1179 1551 1514 1725
191 34 10 1 0 19 9 149 60 137 43 8 10 0 0 5 31 0 72 185 374 534 544 970 1153 1097 1279 1487 1512 1640 1506 1338 1332 1314 1277 1103 966 936 931 1355 1342 1265 980 767 909 1149 910 1233 1785
169 79 25 8 55 8 61 179 134 163 50 0 0 0 2 50 32 0 67 68 169 314 572 793 876 932 1207 1319 1388 1226 1279 1081 1030 1063 782 682 585 611 994 1316 1376 1354 1118 753 872 944 1061 640 951
69 36 14 16 60 81 25 149 156 98 28 1 0 0 12 26 49 27 93 57 95 181 519 718 725 880 962 1122 1112 1062 991 974 873 776 600 539 431 563 724 887 979 1060 836 127 233 320 248 346 720
10 0 4 0 2 31 4 78 126 100 85 5 0 0 3 16 61 96 56 54 21 140 295 449 535 668 721 935 851 801 674 662 607 577 530 397 168 221 319 427 338 394 144 85 6 0 325 461 565
0 1 0 0 0 0 10 13 80 91 208 0 0 0 11 25 65 108 70 46 2 15 102 230 305 400 440 622 670 453 342 369 311 331 316 320 318 97 169 235 77 173 30 103 0 114 352 413 545
0 0 0 0 0 4 13 9 146 279 99 0 0 0 6 18 84 110 116 38 0 13 46 179 162 264 395 338 414 142 137 186 202 182 195 329 384 145 118 84 104 231 261 235 157 115 172 312 462
0 0 0 0 0 31 167 77 60 269 30 11 0 0 0 7 86 88 82 52 0 0 32 5 66 133 229 166 252 237 257 371 454 377 231 212 355 187 150 309 204 253 135 303 431 322 230 319 378
0 0 0 0 76 253 105 52 177 324 62 6 6 22 14 8 72 86 55 28 0 0 0 0 128 84 100 101 104 106 171 384 512 398 115 123 131 411 224 175 275 214 329 222 163 178 267 252 236
0 0 0 0 236 278 135 71 201 399 220 36 0 1 18 0 42 72 13 0 0 0 0 0 60 0 52 1 88 199 247 282 308 391 246 67 242 452 233 129 243 147 214 109 36 135 250 176 163
0 0 0 0 35 235 114 9 219 317 321 165 13 1 0 0 26 37 5 1 9 9 17 32 44 74 108 37 151 193 141 116 181 303 267 51 334 382 303 298 93 200 82 62 56 125 97 120 118
0 0 0 0 0 0 0 0 0 193 425 293 102 19 6 0 0 5 0 0 16 27 29 43 60 135 63 56 182 162 153 207 230 237 280 452 409 348 263 320 149 76 56 49 56 45 103 108 21
0 0 0 0 0 0 0 0 13 190 395 364 173 53 27 1 0 0 0 0 0 10 19 35 39 106 159 92 104 167 181 198 245 285 313 515 498 96 146 291 208 135 41 157 129 66 247 93 9
0 0 0 0 0 0 0 8 105 435 437 465 294 108 11 2 0 0 0 0 0 0 0 0 19 55 184 54 76 108 126 170 225 253 352 629 566 168 80 224 254 29 33 254 263 96 110 28 5
0 0 0 0 0 0 0 0 4 275 386 459 355 198 73 6 0 0 0 5 0 5 0 0 0 24 133 62 78 87 134 183 250 245 434 608 790 659 373 173 324 276 311 217 144 320 170 19 22
0 0 0 0 0 0 0 0 0 115 390 378 412 326 183 55 0 0 0 0 0 0 0 0 0 7 63 90 54 40 76 149 145 202 429 531 777 837 511 299 340 277 368 402 329 430 284 51 35
0 0 0 0 0 0 0 0 0 0 44 101 323 407 315 188 89 47 0 2 1 0 0 0 0 0 20 85 92 60 45 74 118 128 224 415 707 800 741 719 504 302 361 531 355 343 518 370 236
0 0 0 0 0 0 0 0 0 0 0 0 17 173 418 304 205 109 25 12 15 28 20 0 0 0 5 1 93 75 28 65 78 77 88 170 370 675 693 750 665 384 493 459 436 250 471 441 381
0 0 0 0 0 0 0 0 0 0 0 0 0 64 259 387 299 151 69 5 0 0 1 14 0 0 0 0 0 47 26 17 64 83 77 86 247 457 640 778 768 599 601 495 356 446 640 487 360
0 0 0 0 0 0 0 0 0 0 0 0 0 0 101 197 266 206 109 41 2 11 2 34 2 0 0 2 0 0 0 0 33 117 139 206 305 343 592 696 629 675 745 525 584 527 464 533 550
0 0 0 0 0 0 0 0 0 0 0 0 0 0 22 106 69 136 119 32 11 0 7 33 33 0 0 34 22 0 0 0 0 30 139 207 258 367 446 615 748 645 865 793 583 541 642 526 591
0 0 0 0 0 0 0 0 0 0 0 0 28 60 0 136 181 96 26 9 14 0 0 6 68 37 21 41 49 16 0 0 0 0 51 138 175 327 473 703 872 757 711 753 934 641 627 672 694
0 0 0 0 0 0 0 0 0 0 0 0 3 199 65 52 150 137 71 34 0 0 0 0 27 51 30 21 44 25 15 0 0 0 0 0 76 197 632 777 867 838 840 783 825 902 766 614 716

GFSSGP_con_mlcape_069.txt.gz
CAPE
0 0 0 0 0 0 15 57 98 157 5 0 0 0 0 0 5 95 0 0 1 159 931 1222 1817 1432 1482 1290 1603 1640 1598 1825 1611 1854 2050 1724 1611 1556 1237 1419 1736 1378 1589 1975 1915 1888 1942 2093 2077
0 0 0 0 0 0 37 26 101 30 39 0 1 0 6 0 8 0 0 0 11 237 920 1159 1705 1504 1484 1287 1590 1592 1541 2103 1909 1635 1660 1675 1596 1665 1545 1442 1640 1530 1547 1741 1623 1891 1988 2082 2031
0 1 7 14 0 0 39 47 69 1 0 63 63 104 111 4 0 0 0 0 90 498 873 1177 1576 1876 1543 1493 1734 1669 1573 1915 1794 1765 1687 1612 1758 1642 1419 1429 1347 1596 1353 1673 1711 1844 2012 2004 1678
3 22 7 1 10 11 13 0 32 9 1 117 51 68 0 0 0 0 0 24 179 540 849 1354 1704 1747 1810 1602 2013 1755 1822 1896 1777 1730 1566 1630 1566 1526 1428 1401 1411 1319 1385 1714 1789 1826 1917 1376 1529
51 34 43 72 69 58 53 1 34 4 94 110 85 2 0 7 4 0 0 82 195 552 905 1214 1692 1848 1685 1733 1714 1807 1856 1710 1711 1781 1667 1393 1559 1409 1270 1137 1005 1114 1456 1620 1526 1450 1491 1603 1464
17 4 70 31 83 105 55 5 30 3 127 24 0 0 5 3 0 0 14 96 184 463 839 1293 1372 1760 1637 1693 1568 1622 1593 1591 1750 1548 1701 1457 1175 1098 874 1078 1114 1158 1435 1305 1446 1545 1400 1512 1625
34 123 94 45 25 36 34 83 0 84 122 51 4 11 2 4 0 3 33 128 214 509 857 1398 1194 1114 1470 1576 1617 1445 1576 1442 1428 1703 1420 1395 1193 1118 1244 1306 972 1173 1428 1442 1492 1467 1637 1842 1970
98 47 16 1 4 21 54 81 163 135 107 11 0 0 0 4 0 3 29 167 325 483 782 612 567 1414 1327 1318 1341 1448 1431 1694 1389 1247 1353 1392 1273 1455 1165 1183 1128 1334 1410 1477 1334 1335 1306 1316 1618
260 77 10 0 0 11 43 136 112 233 26 8 0 3 0 0 0 0 11 220 368 484 747 821 1243 1193 1336 1184 1348 1339 1594 1389 1476 1149 1342 1102 979 1035 1157 1373 1174 1134 1051 1140 1325 1172 915 1412 1901
233 166 39 0 55 31 152 71 57 174 2 4 0 6 0 1 0 1 27 76 152 271 637 765 1082 1072 1164 1169 1362 1202 946 978 1171 1303 1276 960 1039 1240 1372 1390 1297 992 876 1126 1195 1267 848 1193 1744
159 144 34 2 88 171 66 145 133 138 19 4 0 3 1 0 0 4 22 41 54 97 295 734 1006 1149 1029 1362 1014 887 840 949 1061 1117 1072 1091 926 1108 1265 1338 1069 1217 653 548 876 690 838 1188 1489
49 11 0 0 23 70 72 164 175 121 30 2 0 0 0 0 0 0 17 66 91 114 471 742 809 1004 1051 1124 759 935 776 917 712 885 986 877 510 800 1004 818 1015 832 531 539 329 615 1161 1195 1238
2 3 0 0 0 0 11 24 141 163 73 7 0 1 0 5 0 2 26 47 120 76 346 612 718 987 1035 1178 1031 824 760 756 794 863 817 908 785 668 794 659 620 701 577 498 449 960 935 1183 1217
0 0 0 0 0 0 17 68 166 244 15 1 0 0 0 11 7 8 71 92 41 48 116 380 548 760 821 867 824 670 702 710 677 650 684 837 935 695 641 508 717 838 945 749 781 782 934 1104 1098
0 0 0 0 0 11 178 82 65 67 9 9 6 0 0 10 20 83 64 57 34 18 103 299 321 542 623 785 685 462 452 555 706 884 709 638 860 789 348 953 756 826 774 1025 1066 1052 962 995 946
0 0 0 23 145 180 191 99 270 109 27 5 0 1 1 21 47 118 163 184 64 4 70 309 115 298 519 588 533 288 474 704 917 937 584 529 541 806 822 728 590 887 999 866 878 907 910 887 855
0 0 0 0 371 287 206 129 351 153 57 10 6 0 0 32 96 152 168 201 108 9 44 114 158 171 302 453 465 448 483 699 935 942 754 502 480 973 696 705 952 802 824 469 600 843 910 746 758
0 0 0 0 67 259 115 69 208 636 236 81 9 7 18 34 74 141 157 167 99 0 0 0 143 245 231 305 368 364 550 635 666 852 868 522 572 876 735 731 839 865 640 431 619 690 589 715 674
0 0 0 0 0 0 0 0 0 412 543 157 66 34 27 32 80 121 82 142 77 0 0 37 111 206 180 113 149 464 481 489 524 665 789 651 841 893 833 693 644 686 434 423 434 493 619 586 461
0 0 0 0 0 0 0 0 146 175 556 473 119 49 46 46 69 64 89 106 84 5 4 52 137 223 280 189 358 574 626 652 898 839 788 888 1032 839 809 880 571 600 286 469 419 407 717 608 271
0 0 0 0 0 0 18 8 172 294 605 724 471 106 41 28 49 46 64 62 80 56 23 12 110 252 421 319 318 453 511 548 643 708 719 890 1084 364 551 832 769 556 469 799 666 473 568 317 170
0 0 0 0 0 0 0 0 1 339 365 673 703 374 151 70 24 38 49 13 47 82 44 103 113 196 521 455 333 384 426 539 638 681 777 983 1188 887 548 786 826 501 441 861 857 961 650 124 191
0 0 0 0 0 0 0 0 0 49 444 455 663 598 245 149 54 22 20 11 5 60 87 125 113 173 402 533 434 478 525 576 736 797 941 983 1374 1031 1037 718 915 725 1022 837 837 835 171 204 172
0 0 0 0 0 0 0 0 0 0 0 0 344 621 440 240 114 75 30 55 23 55 68 93 64 75 302 388 427 421 449 492 484 572 798 970 1268 905 1281 1063 937 1017 1018 858 1005 1007 1074 940 724
0 0 0 0 0 0 0 0 0 0 0 0 0 37 606 395 225 102 80 50 108 107 106 130 92 84 201 264 408 383 467 511 426 489 635 906 1048 1292 1253 1271 1152 942 982 771 1213 887 962 1084 1065
0 0 0 0 0 0 0 0 0 0 0 0 8 1 312 563 385 261 140 127 184 175 157 154 157 150 170 273 331 456 530 561 530 612 594 709 815 1040 1304 1257 1018 1165 1193 1106 1038 1161 1103 1116 1115
0 0 0 0 0 0 0 0 0 0 0 0 96 108 190 512 547 413 263 189 223 244 221 190 208 205 191 224 338 376 532 496 491 566 619 586 715 905 1156 1303 1264 1271 1282 1325 1067 1130 1050 1287 1386
0 0 0 0 0 0 0 0 0 0 0 0 70 96 46 243 613 590 404 195 205 271 282 225 242 237 216 217 273 287 245 509 511 544 535 626 670 886 1058 1155 1309 1327 1361 1291 1186 1199 1325 1113 1209
0 0 0 0 0 0 0 0 0 0 0 0 0 1 158 390 284 538 516 318 203 182 194 216 258 296 296 293 295 227 145 213 386 357 460 728 734 863 1030 1118 1218 1424 1386 1534 1433 1374 1192 1309 1368
0 0 0 0 0 0 0 0 0 0 0 0 0 0 0 4 45 292 425 233 199 152 153 152 229 293 276 345 360 288 181 174 233 185 223 486 766 824 884 1106 1285 1528 1555 1567 1514 1093 1383 1206 1200

GFSSGP_con_mlcape_072.txt.gz
CAPE
0 0 0 0 121 46 175 187 221 116 33 21 0 0 0 4 135 327 4 0 167 344 693 1014 1473 1441 1404 1977 1650 1821 1976 1751 2030 2113 1605 1768 1555 1278 1510 1634 1382 1794 1934 2128 2005 2018 2231 2213 1975
1 0 0 213 140 51 27 80 114 43 56 1 0 0 19 209 103 0 12 42 168 331 554 843 1299 1513 1352 1917 1497 1741 2141 1826 1909 1856 1761 1720 1749 1615 1608 1712 1551 1659 1726 1788 2006 2079 2117 1986 2081
2 0 160 219 52 52 46 28 28 2 12 21 110 90 334 102 0 0 0 64 203 493 655 1270 1462 1570 1475 1973 1610 1670 1998 1894 1575 1685 1737 1801 1583 1469 1458 1495 1599 1406 1809 1790 1981 1898 1856 1557 2077
3 197 212 52 139 17 19 24 1 2 110 218 175 187 12 7 0 0 0 55 253 439 638 1329 1997 1523 1564 1691 1757 1591 1853 1760 1485 1530 1561 1469 1508 1435 1433 1450 1550 1492 1732 1854 1890 1806 1346 1444 1933
112 263 289 315 279 239 83 18 17 0 23 271 222 78 2 4 2 0 6 80 256 439 676 1221 1722 1728 1570 1893 1777 1896 1707 1589 1524 1614 1480 1468 1418 1373 1247 1302 1252 1541 1546 1642 1612 1626 1357 1521 1880
125 105 296 133 247 239 23 22 13 10 57 74 55 0 23 8 0 0 57 144 262 317 608 1043 1611 1768 1698 1504 1778 1713 1582 1517 1604 1481 1390 1292 1190 1098 1394 1306 1203 1476 1452 1625 1695 1496 1516 1530 2000
274 293 227 78 219 273 57 30 15 29 261 205 13 123 11 0 0 1 109 194 257 350 665 853 1282 1404 1590 1616 1566 1698 1583 1555 1470 1382 1407 1285 1275 1279 1288 1048 1354 1393 1400 1210 1240 1243 1392 1728 2066
125 332 193 39 216 171 56 135 67 203 140 84 73 92 0 0 0 55 139 138 169 328 846 602 299 473 956 1197 1479 1612 1475 1489 1313 1387 1274 998 1296 1099 1084 1172 1457 1465 1219 1325 1318 1377 1614 1777 1799
367 352 89 68 281 148 50 161 365 276 182 93 74 27 0 0 7 86 97 114 218 527 599 20 614 1149 1233 1075 1347 1317 1298 1330 949 824 711 831 603 704 680 1163 1304 1304 1390 1495 1178 1401 1726 1837 1843
432 327 78 70 91 219 142 149 349 118 55 51 43 32 0 0 38 31 62 103 198 356 327 90 752 685 1062 1134 1096 541 430 408 487 667 798 657 864 1271 617 1018 1052 1118 1276 1288 1138 643 1105 1484 1528
474 211 146 44 105 100 269 48 30 190 24 122 51 11 0 2 15 20 36 65 147 306 51 422 574 809 957 1097 349 190 299 542 863 840 694 789 649 528 425 829 935 771 942 1069 1093 1232 1360 1506 1158
287 246 143 5 0 107 125 255 327 118 118 29 94 1 0 2 8 4 22 86 151 184 52 286 649 763 946 642 147 342 466 545 519 766 741 751 466 531 586 634 851 771 720 845 987 1307 1583 1664 1410
134 168 38 0 0 0 9 137 334 355 100 85 27 1 0 4 15 7 15 36 120 56 101 235 522 825 957 462 245 362 417 414 500 586 948 719 660 850 770 868 808 754 810 869 1226 1296 1485 1452 1257
4 17 0 0 0 0 65 216 351 468 206 47 1 0 1 7 16 4 8 85 118 7 111 257 429 813 982 499 577 518 425 499 538 601 981 1254 860 1027 943 913 890 919 847 999 1143 1367 1249 972 1020
0 0 0 0 0 10 167 343 213 419 189 68 2 0 0 2 12 43 67 20 19 1 69 203 351 607 652 533 646 396 432 440 607 798 1221 1294 1242 1315 1168 1084 978 887 1183 1371 1379 1351 1235 737 931
0 0 5 17 0 81 467 214 531 323 99 80 35 0 0 1 12 47 66 16 11 0 51 181 156 385 474 321 654 551 686 634 825 855 777 1100 1134 756 870 725 743 1071 1136 1002 944 1038 826 718 785
0 0 10 55 120 189 494 308 788 424 34 52 16 28 6 6 18 80 39 147 92 19 74 149 179 360 417 532 281 583 754 806 861 853 772 1159 1071 634 609 783 865 1334 966 805 698 887 785 659 624
0 0 27 1 191 228 280 302 636 554 285 120 7 77 59 29 30 38 141 300 264 25 17 64 178 317 445 573 650 564 613 798 936 969 1084 1094 1092 999 670 712 934 998 605 663 767 837 799 692 599
0 0 9 0 109 75 3 0 62 437 630 399 29 178 172 50 36 32 218 269 294 75 0 0 121 397 403 473 404 535 635 752 829 1047 1269 1278 1250 1362 1102 884 842 930 514 883 1172 771 757 337 582
0 0 3 0 0 0 0 0 81 91 475 744 258 114 262 139 75 75 246 285 185 14 0 0 108 535 456 192 273 499 679 777 922 1047 1260 992 1302 1035 1015 1014 939 718 398 980 1000 992 247 271 486
0 0 5 3 0 0 0 0 204 278 323 712 478 455 372 225 121 182 343 264 109 29 0 74 236 536 415 171 492 1100 1116 1147 865 1183 1090 1154 1553 1356 1314 1439 644 1206 723 307 953 899 933 112 335
0 0 0 0 0 0 0 68 87 510 430 810 684 442 331 376 312 207 261 245 127 69 30 125 401 635 626 698 543 743 539 424 567 802 913 1266 1438 1201 1148 1433 1407 1460 693 818 995 969 860 490 29
7 0 0 0 0 0 0 0 50 137 472 409 743 742 445 222 168 311 249 277 186 156 174 233 568 697 701 910 577 862 862 516 833 804 1093 1301 1582 1253 1230 1375 1494 1457 1084 1151 1135 1561 1106 348 53
4 0 0 0 0 0 0 0 0 2 0 0 588 899 749 548 209 227 308 276 236 193 263 296 507 901 972 1170 1306 943 739 813 445 750 924 705 1327 1175 1340 1273 1543 1440 1277 1324 1106 1523 1456 959 583
0 0 0 0 0 0 0 0 0 0 0 0 11 3 945 738 594 419 380 341 259 184 271 363 563 882 958 1045 1160 1147 1110 1130 1022 880 304 967 1148 824 1276 1167 1016 990 1103 1098 976 1662 1204 1518 840
0 0 0 0 0 0 0 0 0 0 0 235 301 101 89 899 745 587 508 415 370 315 372 444 593 889 909 931 1076 1229 1167 975 900 793 418 752 776 945 1118 1270 1083 1299 1252 1128 1127 1021 761 897 1238
0 0 0 0 0 0 0 0 0 0 0 25 143 286 362 885 884 756 633 559 471 491 459 582 636 1007 1009 914 1017 1221 1293 1090 594 664 877 725 717 871 1572 1014 956 990 1365 1497 1497 1201 1226 1231 1397
0 0 0 0 0 0 0 0 0 0 0 0 7 118 416 631 873 984 825 699 568 600 582 671 721 976 1093 1045 1020 1069 1189 1245 1067 982 1082 790 625 1036 1097 1629 1451 1116 1285 1605 1834 983 1331 1282 1034
0 0 0 0 0 0 0 0 0 0 0 0 0 0 4 91 366 477 725 695 713 738 718 731 772 835 1063 1070 1008 982 979 1040 1169 1062 1125 1155 912 1027 1459 1446 1491 1528 1311 1534 2051 1483 1204 1784 1428
0 0 0 0 0 0 0 0 0 0 0 0 0 0 0 0 0 0 0 2 82 653 716 740 806 803 906 961 1062 1065 1072 1012 829 1046 940 1015 1039 1052 1463 1634 1492 1546 1552 1836 1849 1429 1155 1270 1321

GFSSGP_con_mlcape_078.txt.gz
CAPE
0 0 0 35 13 179 77 77 180 154 40 42 53 234 378 323 224 353 384 594 539 697 948 1277 1574 1794 1237 1371 1778 1957 1880 1711 1574 1847 1581 1437 1780 1272 1635 2002 1971 1993 2028 2195 2185 2185 2052 2030 2098
0 2 0 90 42 58 61 78 35 51 45 38 191 282 211 125 154 431 500 465 564 581 764 696 1583 1827 1395 1913 1961 1708 1754 1585 1721 1630 1734 1780 1861 1792 1558 1854 1878 1939 2079 2139 2094 2156 2126 2043 1978
49 6 260 281 127 49 5 29 12 54 70 78 364 289 94 44 249 360 427 477 242 101 190 755 1337 1658 1223 1846 1405 1732 1524 1505 1560 1745 1609 1589 1586 1799 1518 1663 1814 1906 1999 2001 1816 2149 2031 1918 1836
97 91 169 385 303 197 119 0 0 139 213 191 152 52 15 94 237 184 228 9 23 294 291 955 1147 1765 1452 1740 1755 1683 1703 1743 1749 1699 1646 1482 1366 1649 1580 1755 1735 1852 1918 1747 1744 1890 2032 1828 1560
47 278 267 209 311 276 8 0 0 164 235 229 86 8 6 134 62 168 117 207 570 262 362 1023 1554 1762 1751 1627 1578 1639 1647 1725 1713 1618 1606 1586 1531 1452 1794 1679 1812 1882 1825 1654 1700 1902 1878 1638 1421
66 269 135 231 280 56 5 10 37 103 205 116 17 20 40 65 59 143 288 496 769 342 291 806 1513 1671 1504 1348 1621 1638 1575 1518 1408 1516 1317 1404 1435 1387 1631 1589 1648 1833 1831 1798 1799 1962 1920 1521 1240
356 362 158 327 176 32 2 14 51 352 147 140 87 4 15 40 41 153 276 401 242 614 874 1050 1037 1449 1469 1492 1541 1544 1663 1481 1410 1452 1274 1556 1173 1502 1570 1575 1565 1572 1536 1383 1513 1944 1831 1268 997
364 555 207 275 305 3 3 8 5 180 265 299 241 13 2 37 40 121 183 69 448 460 521 616 735 794 793 1254 1441 1467 1379 1380 1419 1369 1322 1472 1245 1508 1005 1261 1473 1489 1469 1600 1751 1558 933 587 871
557 227 264 356 297 100 6 15 32 222 297 242 356 20 10 18 54 99 158 393 94 527 624 224 763 889 928 1021 1289 1403 1256 1139 1109 841 721 1037 1167 965 1081 1229 1616 1749 1729 1607 1556 1429 987 814 898
412 65 238 264 112 75 236 79 217 323 172 207 107 8 6 34 58 117 93 305 72 205 150 440 1027 966 894 267 871 767 842 952 1025 1066 249 657 1049 889 1206 1483 1513 1525 1535 1732 1853 1070 889 1157 935
170 330 168 463 383 364 506 629 711 197 98 118 18 0 6 34 84 89 89 64 22 71 525 654 932 748 659 655 1124 719 782 581 753 734 982 654 507 636 1058 1132 1130 1152 1319 1277 1713 2070 1720 1523 1498
605 392 194 591 488 312 370 373 215 229 141 38 6 0 6 39 64 62 63 64 48 240 365 472 940 64 445 689 529 411 817 382 453 550 702 752 1082 1097 836 1522 1510 1541 979 54 1032 1815 1485 1004 668
347 412 306 108 781 571 324 418 186 118 114 98 30 6 9 56 56 68 55 57 62 191 416 728 529 874 782 322 662 296 237 492 449 674 817 732 357 1179 988 630 963 650 846 563 1151 1233 1513 940 947
497 265 214 82 35 88 419 574 356 15 75 235 37 12 20 53 60 63 72 66 44 24 365 821 606 407 493 360 84 112 173 360 439 703 1285 953 444 899 771 574 1260 1315 663 1583 870 1525 902 1176 743
157 480 256 72 16 52 498 571 529 58 107 451 69 18 47 60 62 72 73 73 9 19 366 515 608 684 881 684 576 21 570 573 380 936 1056 789 947 1591 804 1013 755 995 1509 1574 1228 1628 1113 842 1013
21 132 240 61 13 38 415 327 618 464 250 241 103 29 52 53 84 80 74 49 5 0 135 194 453 235 857 358 610 677 622 542 633 970 1117 758 911 931 0 869 676 926 1177 1491 412 1164 661 1102 504
0 40 48 47 7 127 266 299 529 446 168 180 108 43 37 61 53 109 55 44 0 0 123 0 339 302 470 271 660 454 433 241 884 451 941 1232 1219 1424 1454 635 220 947 1416 1293 557 806 765 1228 1058
0 3 87 59 28 104 363 3 0 545 269 139 71 44 35 63 36 107 62 32 0 24 82 0 427 308 526 136 878 437 918 306 351 598 392 1298 1257 1194 1403 852 1269 1447 1432 768 847 1072 633 724 471
0 0 7 175 47 57 565 162 126 546 499 167 48 53 13 26 57 122 59 15 9 23 44 117 648 404 664 250 452 343 617 621 639 1032 1096 860 593 1253 1253 1526 990 1692 770 363 1231 1090 846 1047 754
0 0 0 3 19 427 103 44 389 592 467 244 159 50 16 26 57 126 42 106 98 93 43 171 596 644 622 326 687 462 808 820 650 863 1369 1384 1130 1161 1263 870 564 919 1214 1024 1170 1130 932 812 545
0 0 11 64 0 92 61 311 374 672 522 617 359 73 39 80 42 92 77 181 131 139 58 193 551 692 393 711 429 717 174 404 48 203 1078 1307 1256 1164 1390 1040 1376 324 1364 831 955 985 751 679 138
0 0 11 21 11 32 58 71 199 362 640 745 228 59 123 221 18 72 140 165 181 82 139 233 500 712 302 768 403 319 667 593 846 1164 1213 1380 1127 1144 1260 1361 1623 1143 494 706 975 891 805 519 532
0 0 0 29 18 0 0 20 49 66 695 865 451 207 276 236 142 47 78 178 226 119 17 218 210 1073 323 610 669 565 444 481 501 903 770 991 1281 989 1055 959 1306 1149 660 118 741 1079 1094 1300 1049
0 0 0 2 5 0 0 3 296 62 57 337 881 547 478 398 253 147 61 131 198 86 0 182 247 983 1048 409 802 702 667 336 129 654 31 1110 974 1188 1042 894 1459 1561 723 967 85 1071 1112 1167 1111
0 10 0 0 1 5 0 5 150 46 1 10 652 997 299 539 515 309 141 239 303 33 15 343 707 1086 932 538 828 1218 1087 952 467 210 265 1098 946 1028 1176 1476 1622 1100 1244 1077 1336 1144 1307 888 714
1 21 28 0 0 0 0 22 60 54 59 171 479 562 1015 691 492 315 223 402 359 68 112 595 1013 1170 1277 1251 1246 954 1159 950 938 394 1059 626 179 681 882 1172 1529 1584 1242 1379 1386 1315 1226 1377 372
18 29 45 29 1 4 61 80 118 149 344 658 574 224 166 186 47 235 403 504 332 166 204 615 1173 1491 1579 1440 1637 1392 1228 941 997 502 866 932 430 730 799 1018 1312 1249 1129 1446 1354 837 1019 474 934
1 2 25 2 0 5 72 64 118 121 211 310 44 0 0 4 5 24 44 247 95 478 126 682 1137 1485 1650 1643 1728 1841 1819 1699 1272 1399 931 1448 781 294 13 383 1049 1298 1419 1197 1236 1496 746 1132 812
0 4 0 0 2 21 52 72 231 154 40 1 0 0 0 3 3 16 14 0 4 87 156 69 1282 1554 1823 1808 1794 1757 1805 1972 1645 1484 1369 771 1116 810 17 0 168 1171 1349 1260 1444 1046 988 1045 791
0 0 0 0 0 0 8 0 70 3 0 0 0 0 0 0 0 1 1 2 2 0 0 0 113 307 1549 1761 1755 1742 1914 1939 2064 1778 1571 1428 1069 1249 743 274 537 997 1454 1462 1306 1356 1537 1154 1353

GFSSGP_con_mlcape_081.txt.gz
CAPE
0 0 0 0 0 83 6 7 47 28 35 43 86 174 160 127 182 114 340 446 521 540 1012 1309 1500 1208 1332 1705 1859 1787 1609 1504 1644 1527 1583 1659 1208 1682 1827 1943 1948 2007 2017 2184 2075 1953 1893 1687 1534
0 0 0 3 13 49 33 67 8 19 127 134 73 21 142 181 253 324 327 439 556 755 1161 1384 1437 1393 1800 1695 1696 1717 1554 1624 1537 1727 1793 1806 1572 1591 1728 1857 1897 1794 1971 1973 2111 2035 1809 1599 1588
0 34 40 126 93 0 0 15 15 118 212 181 71 25 188 207 320 308 315 471 626 682 913 1626 1443 1448 1659 1332 1603 1360 1386 1519 1657 1470 1509 1620 1698 1435 1723 1788 1755 1992 1951 1756 2060 2008 1728 1642 1637
30 99 14 76 134 62 9 1 41 197 103 35 0 28 150 202 209 201 322 295 132 199 706 1526 1533 1380 1395 1616 1508 1587 1580 1693 1465 1563 1403 1237 1635 1488 1714 1751 1918 1883 1739 1913 2044 1894 1593 1598 1673
31 136 75 107 143 18 0 0 23 100 78 41 1 71 101 129 154 233 9 50 101 45 744 1531 1577 1176 1584 1524 1467 1565 1616 1581 1410 1441 1505 1478 1502 1529 1704 1865 1777 1719 1779 1894 2076 1318 1539 1807 1361
29 157 87 179 9 0 0 0 10 107 71 9 0 0 4 97 35 3 92 58 121 143 703 1200 1555 1551 1423 1534 1562 1577 1448 1312 1358 1323 1222 1334 1500 1615 1630 1613 1805 1816 1744 1894 1972 1343 1401 1524 1278
97 187 155 221 6 12 0 25 83 90 9 0 0 0 16 52 10 277 147 19 51 340 699 1253 1286 1252 1362 1511 1410 1454 1395 1373 1394 1268 1458 1442 1435 1617 1639 1705 1752 1695 1935 2007 1818 1307 1131 1271 1472
254 188 149 231 35 0 0 55 98 134 41 3 0 0 2 31 107 367 338 51 280 526 544 733 1006 883 1135 1256 1333 1437 1456 1378 1322 1306 1178 1348 1441 1384 1474 1604 1693 1534 1546 1789 1892 1399 1001 1031 1295
321 192 190 146 1 0 0 33 41 192 238 42 0 0 4 29 91 53 178 353 490 513 643 417 585 621 787 798 1117 1210 1222 466 728 844 780 807 866 1012 1137 1549 1689 1613 1653 1642 1417 1153 1068 1025 1089
34 112 227 194 58 0 7 59 241 25 237 218 0 3 9 35 35 96 105 123 279 355 338 475 570 649 350 763 591 617 758 496 409 157 617 830 670 622 981 1541 1686 1747 1661 1298 764 521 637 1007 754
0 162 243 45 11 77 95 89 345 130 149 6 5 0 4 48 91 121 40 0 61 183 450 379 375 518 329 259 607 576 691 661 424 63 370 570 880 888 910 1095 1484 1316 1259 1196 885 599 1098 1195 1187
102 223 209 270 342 300 490 496 193 149 160 5 0 0 2 32 98 96 50 31 35 221 472 660 555 337 481 529 723 420 491 555 617 692 772 681 624 568 490 811 943 1254 771 620 902 1093 1725 1684 1573
207 124 358 506 428 570 527 433 148 151 28 8 1 0 9 31 69 66 19 55 117 148 481 224 0 147 389 453 585 473 555 271 376 550 802 543 563 258 557 651 847 1190 193 418 887 1084 1484 758 654
35 84 207 407 372 314 333 286 106 66 0 6 6 1 16 50 49 55 44 94 118 230 264 145 160 460 234 84 92 172 312 191 352 828 485 667 753 569 0 373 837 607 735 685 867 1208 935 645 379
499 0 93 228 567 428 441 176 189 59 80 6 4 4 20 50 48 41 35 75 240 256 217 177 289 502 89 0 21 79 258 379 447 560 30 504 826 810 783 674 894 635 838 525 756 980 1188 520 786
182 54 38 154 97 716 326 85 138 13 135 13 8 8 18 34 40 46 33 20 206 326 184 101 304 407 326 260 0 455 219 449 757 814 101 310 757 155 233 718 531 992 1272 295 628 731 641 606 586
0 2 142 147 67 382 316 185 173 153 277 52 8 11 30 26 37 55 9 4 97 162 130 145 0 18 70 229 574 254 413 467 368 473 604 766 1023 702 817 1257 556 1283 976 996 499 761 913 922 773
0 0 0 48 2 296 198 115 83 142 235 110 31 22 29 40 30 37 8 0 1 3 0 249 5 225 0 137 279 376 202 175 521 353 111 891 1266 1230 979 698 865 1059 946 712 604 775 688 409 572
0 0 0 116 84 107 59 0 0 219 249 207 65 21 13 24 55 47 8 0 0 29 12 270 198 202 0 7 459 293 319 38 322 446 157 759 482 1142 1022 853 969 853 677 566 562 1077 606 797 364
0 0 0 119 284 264 62 9 0 23 314 163 21 5 8 17 50 45 5 2 4 27 6 68 92 191 33 0 454 370 346 496 499 652 597 840 423 1190 1089 800 707 260 675 1104 1022 960 815 730 428
0 0 0 81 68 44 201 118 43 86 355 126 40 37 11 21 29 23 0 0 4 2 6 69 141 266 152 0 323 392 446 243 91 247 548 1006 866 903 1127 499 1007 615 1031 917 923 635 450 628 4
0 0 0 80 53 33 110 14 109 580 338 204 84 59 28 43 39 57 8 1 4 0 37 59 320 164 129 610 519 287 253 346 108 48 577 1034 1026 864 1227 1251 1004 583 686 549 1063 1354 883 907 587
0 0 0 60 16 27 53 96 70 404 407 251 231 176 62 40 88 78 62 40 35 0 68 36 368 306 0 283 642 440 157 375 413 613 845 974 905 1022 1118 959 1151 616 226 418 587 1006 823 978 987
0 0 0 3 1 10 0 52 115 439 272 412 167 148 203 132 193 79 84 89 60 24 72 91 308 309 107 104 530 588 225 13 21 413 361 739 937 808 771 793 1027 818 366 411 406 934 935 526 847
0 0 0 0 21 3 8 7 214 334 459 351 69 0 104 239 209 91 81 165 158 80 148 131 151 469 312 145 408 410 396 94 0 253 329 615 792 981 813 790 1134 836 855 691 610 1160 938 621 220
0 0 0 0 0 0 15 53 98 104 171 19 0 103 251 376 319 154 136 229 222 93 119 147 76 316 556 497 286 348 478 280 459 299 147 561 478 762 934 1007 1140 1047 395 1025 892 801 807 954 102
0 0 0 4 0 0 219 220 36 0 2 0 27 93 176 196 131 331 156 176 263 103 59 161 189 263 739 530 383 531 647 641 413 139 54 583 30 433 877 994 1027 1016 956 958 1210 720 526 949 661
0 0 0 0 23 29 270 227 131 223 23 0 0 0 0 3 52 138 29 22 180 69 127 395 550 518 705 1085 969 910 878 825 824 921 737 779 522 544 547 365 579 1002 1070 1057 1104 822 618 634 270
0 0 5 1 0 0 14 46 29 58 0 0 0 0 0 1 3 3 2 31 37 0 35 223 298 471 401 887 988 1049 1093 1011 693 895 864 935 575 340 232 249 19 408 997 1200 1025 735 985 823 451
0 13 12 3 0 1 63 13 0 0 0 0 0 0 0 2 3 0 4 0 0 0 0 1 4 45 70 294 670 853 1321 1379 1007 918 702 1343 689 634 255 0 79 345 794 1182 1067 991 575 767 851

GFSSGP_con_mlcape_084.txt.gz
CAPE
0 0 0 0 5 0 6 12 33 48 69 45 0 2 1 2 62 7 23 347 203 478 1143 1320 1401 1226 1475 1840 1816 1592 1859 1619 1636 1799 1199 1648 1616 1843 2035 2023 2093 2121 2166 2066 1820 1753 1717 1516 1301
0 0 0 0 0 1 10 26 47 51 51 48 66 105 76 108 191 204 208 302 169 763 1235 1166 1016 1558 1908 1809 1855 1690 1689 1699 1870 1964 1752 1464 1860 1814 1998 1978 2012 2042 2214 2160 1900 1766 1713 1272 1101
0 0 10 60 28 0 0 17 32 103 125 33 106 144 211 211 228 205 269 270 289 896 1196 973 1574 1741 1630 1766 1549 1530 1643 1656 1537 1602 1821 1637 1672 1852 1912 1841 2037 2035 2058 2306 1989 1857 1728 1495 1258
0 107 69 19 18 0 5 20 55 9 53 56 41 22 120 181 172 219 319 308 457 855 1292 1273 1605 1484 1663 1450 1453 1625 1697 1640 1637 1459 1629 1477 1800 1857 1892 2058 2019 2039 2135 2136 1805 1832 1642 1566 1408
0 115 98 179 152 0 3 4 26 33 72 72 46 27 113 128 173 260 341 311 327 851 1223 1247 1549 1615 1634 1482 1521 1579 1551 1466 1545 1601 1560 1625 1654 1859 1947 1874 1811 1921 2138 2078 1691 1674 1335 1221 1562
43 149 143 135 2 14 0 6 20 53 46 51 12 0 0 96 145 79 96 64 76 604 1300 1285 1292 1446 1489 1441 1649 1440 1399 1513 1435 1312 1539 1647 1743 1884 1881 1875 1873 1964 2172 2031 1604 1520 1306 945 1367
57 190 167 170 2 3 0 0 44 13 35 4 0 7 33 139 6 0 50 6 51 698 906 1296 1292 1347 1480 1477 1411 1301 1479 1306 1307 1309 1303 1518 1601 1685 1784 1975 2030 1987 2155 1902 1605 1436 1501 1612 1813
176 227 171 185 22 2 1 79 123 6 1 0 0 13 43 0 0 22 20 0 44 483 605 817 896 1051 1234 1323 1447 1439 1376 1251 1234 1086 1453 1498 1524 1603 1817 1850 1850 2009 2039 1876 1690 1448 1633 1664 1748
359 200 63 57 0 0 29 43 129 104 0 8 5 0 0 9 0 0 5 0 0 243 444 619 616 767 840 1081 1166 1351 1244 1163 1031 1113 1407 1203 1056 1318 1405 1746 1689 1679 1805 1802 1482 1301 1336 1395 1508
41 50 73 32 0 3 25 49 113 76 4 21 2 27 115 69 32 4 114 117 54 90 178 240 267 416 516 862 654 652 565 554 455 640 693 636 705 932 1482 1784 1743 1649 1382 979 838 733 908 951 939
9 178 92 93 0 19 57 79 112 23 5 6 0 0 12 58 87 142 262 204 191 209 267 322 243 139 104 428 381 462 368 302 51 414 601 470 527 945 1126 1008 1368 1297 1179 855 899 754 944 986 882
0 34 155 43 6 25 134 124 6 102 181 1 1 21 7 55 71 152 149 180 286 226 268 369 246 94 101 147 347 507 467 436 18 208 406 514 489 494 606 678 927 1059 792 607 632 845 1312 1345 1508
25 109 380 230 143 206 366 285 44 135 100 8 3 34 41 41 65 31 1 14 238 253 252 282 249 159 183 243 339 459 502 504 533 686 614 465 244 249 482 746 877 1093 67 388 845 974 1051 645 514
282 28 375 423 406 728 286 170 101 146 30 9 1 12 44 65 83 2 15 62 195 300 314 186 257 181 528 507 321 253 319 269 400 544 537 300 253 324 424 498 745 890 506 224 670 1073 848 368 358
13 25 38 246 394 500 351 152 113 95 35 1 2 8 19 43 71 19 84 102 177 237 254 60 296 289 130 197 257 251 182 316 589 396 402 521 581 285 173 526 637 456 585 840 727 946 738 540 503
172 8 39 166 447 396 190 72 138 59 17 7 9 10 35 13 21 53 64 111 179 165 89 373 192 63 6 11 176 235 241 384 481 70 220 429 753 520 583 662 695 856 1126 580 669 694 652 525 410
0 47 11 176 566 499 191 92 195 78 131 12 10 20 42 34 25 70 175 171 145 87 103 280 286 102 33 3 342 171 374 465 641 517 354 271 623 67 377 776 586 1021 1117 307 506 615 718 795 587
0 0 12 172 525 601 215 74 102 147 137 4 3 16 33 21 6 29 164 217 165 147 115 187 196 97 293 296 242 257 265 374 368 399 479 683 1100 1107 816 653 776 1171 869 849 581 670 740 431 477
0 0 0 101 287 158 228 7 25 130 277 84 34 14 26 41 9 4 86 202 196 125 83 44 15 16 96 350 257 226 158 169 455 351 66 354 594 1051 465 534 628 636 668 742 567 474 513 596 329
0 0 0 345 243 92 157 98 74 175 270 210 59 20 19 21 8 2 31 100 89 112 164 103 27 0 0 204 435 362 281 142 343 486 383 405 406 862 997 726 569 543 612 608 964 832 683 586 406
0 0 0 51 329 117 71 55 30 0 12 226 117 38 7 29 15 0 0 14 25 22 174 178 162 31 0 10 402 448 373 215 354 395 566 696 660 842 746 312 702 383 878 843 799 394 459 336 121
0 0 0 23 63 49 138 0 28 0 19 235 66 48 16 32 30 0 0 2 35 40 159 244 206 104 42 87 197 429 333 250 211 267 525 877 947 885 658 759 679 522 432 505 851 1213 836 496 475
0 0 0 0 21 78 11 6 31 26 273 157 73 57 16 23 50 5 0 0 19 79 123 163 184 137 160 383 249 328 360 401 329 247 278 909 951 899 1075 603 575 431 245 488 630 923 722 928 606
0 0 1 37 50 32 30 20 53 129 222 220 186 142 72 45 37 41 4 15 2 80 115 180 205 208 173 406 561 546 291 250 399 332 409 760 915 850 889 902 781 670 376 513 355 749 758 658 694
0 0 0 14 25 5 1 20 15 221 334 274 253 214 130 78 109 28 38 19 30 97 138 213 200 175 170 72 402 562 430 143 261 441 424 643 709 771 833 903 762 539 168 262 427 688 968 600 164
0 0 0 0 14 0 0 0 32 248 489 412 264 139 7 62 192 97 95 69 85 67 151 177 262 204 211 167 183 482 451 201 17 151 448 421 639 601 941 891 941 832 722 427 558 798 715 720 567
0 0 0 0 0 0 73 61 35 45 0 8 5 31 26 59 252 262 77 145 152 90 165 168 274 282 220 210 199 386 475 362 240 414 257 195 599 512 661 845 891 822 777 573 755 579 630 464 697
0 0 0 0 0 0 31 44 0 38 6 0 0 0 3 10 41 74 62 114 196 92 139 224 224 332 329 298 328 347 423 491 181 314 189 56 369 413 624 854 875 764 669 489 824 749 549 410 363
0 0 0 0 0 0 0 35 50 16 0 0 0 0 0 1 1 1 0 32 145 93 80 166 208 197 209 369 401 550 414 604 558 391 688 700 583 488 500 491 489 566 578 978 1063 838 627 529 538
0 0 0 0 6 29 21 10 0 0 0 0 0 0 0 1 1 2 2 1 54 19 37 95 132 32 64 94 206 376 353 413 691 787 957 840 775 501 397 265 207 63 399 773 1092 862 696 625 778

GFSSGP_con_mlcape_087.txt.gz
CAPE
15 0 0 0 0 1 0 17 24 30 0 0 0 0 0 0 24 0 16 360 288 823 1320 1541 1472 1140 1525 1712 1564 1672 1387 1336 1248 1735 1804 1870 1971 2053 1963 1986 1750 1696 1707 1671 1755 1514 1496 1620 1313
0 0 0 0 5 0 0 22 44 63 86 0 0 5 36 38 299 0 113 335 446 902 1183 1266 1090 1802 1768 1572 1449 1553 1514 1679 1753 1372 1716 1789 1973 2111 2009 1982 2056 2014 1880 1897 1733 1335 1182 1303 1280
0 0 1 46 5 10 0 25 79 160 3 0 43 187 322 248 157 91 327 287 744 938 1032 776 1610 1769 1531 1597 1498 1612 1691 1633 1640 1680 1647 1753 1904 1931 2044 2171 2251 2258 2027 1860 1785 1433 1257 1266 1070
0 1 100 63 0 0 1 19 102 157 66 116 164 144 202 246 139 329 288 456 777 999 586 1642 1685 1711 1627 1523 1571 1639 1466 1520 1499 1537 1495 1732 1832 1957 2135 2104 2093 2133 1929 1921 1913 1720 1723 1721 1493
1 85 66 128 0 0 1 22 68 128 77 73 25 88 152 212 304 315 238 438 598 880 934 1525 1490 1708 1649 1577 1586 1576 1524 1487 1494 1448 1625 1825 1945 1994 2093 1958 2171 2164 2025 1955 1898 1680 1629 1452 1473
40 100 112 0 33 0 7 16 54 89 47 1 0 5 119 229 205 279 189 380 840 916 1001 1411 1531 1658 1523 1619 1701 1521 1624 1641 1595 1644 1629 1773 1927 1961 1913 2041 2202 2181 1853 1784 1843 1365 1520 1579 1479
36 203 190 20 22 18 22 20 72 41 21 0 0 0 135 164 235 166 222 363 759 1171 902 1158 1407 1504 1621 1718 1342 1474 1482 1283 1358 1471 1618 1692 1879 1877 2050 1985 1602 2198 1826 1697 1597 1574 1483 1803 1705
83 258 220 36 0 6 19 66 49 24 7 34 1 1 25 117 95 125 100 215 735 945 974 946 1202 1359 1214 1268 1463 1472 1291 1420 1373 1432 1641 1875 1763 1987 1964 1696 1953 2283 1963 1786 1382 1468 1364 1363 1426
425 215 99 162 0 0 19 48 55 58 25 1 35 5 48 0 62 0 0 0 410 674 763 745 960 1076 1019 1268 1367 1305 1256 1145 1247 1543 1768 1367 1392 1327 1671 1858 1861 1897 1852 1773 1747 1664 1663 1737 1609
56 33 59 44 0 0 25 95 55 8 8 65 0 23 0 0 0 0 0 0 19 121 371 583 638 765 871 1162 928 909 1154 699 994 1130 732 884 1004 1466 1781 1817 1774 1735 1736 1469 1323 1212 1393 1196 1244
16 129 115 1 0 26 30 43 93 6 37 32 13 8 0 8 1 0 0 0 0 0 206 427 430 506 547 677 572 483 377 364 497 635 606 527 862 1366 1422 1477 1280 1235 1240 1043 961 1004 906 828 818
0 18 177 8 51 75 48 88 86 27 88 6 14 38 0 0 32 15 13 0 0 83 121 224 313 174 303 419 468 425 312 142 289 447 462 517 597 681 835 863 922 982 733 600 642 757 969 1298 1207
37 264 400 40 61 213 164 143 68 36 240 10 107 66 6 23 41 188 122 70 147 166 217 151 191 82 51 194 388 456 508 317 374 338 418 476 314 321 501 811 818 924 280 375 777 964 732 499 616
112 350 295 174 94 391 227 93 109 28 64 5 27 23 89 84 132 177 155 169 185 185 200 160 152 162 124 296 366 421 476 480 452 670 572 351 116 287 560 598 727 874 709 317 530 888 684 358 259
81 73 38 319 349 251 384 78 48 163 28 5 24 34 46 88 58 111 102 179 215 205 242 206 181 243 278 367 302 284 350 337 521 384 463 353 449 323 233 478 720 541 558 846 743 921 479 352 287
57 116 61 137 395 338 115 122 161 72 15 14 19 52 40 64 82 10 66 153 245 231 209 227 334 218 195 263 374 256 212 460 463 249 454 556 629 542 430 621 649 827 969 568 572 507 527 411 343
14 85 36 175 186 272 139 131 120 79 62 0 14 45 81 77 135 28 98 176 245 206 202 261 254 128 62 142 215 197 268 411 436 52 465 424 694 437 632 679 725 817 1043 261 482 556 638 622 481
0 0 37 119 303 237 111 119 55 122 112 0 0 15 7 32 71 42 109 194 197 196 113 296 65 0 52 209 180 239 336 414 431 402 533 413 742 165 625 739 579 1105 824 764 463 581 580 437 420
0 0 0 98 83 205 67 133 44 161 243 7 10 19 10 3 46 82 120 171 145 169 196 174 0 47 40 220 223 172 182 249 342 366 373 513 632 767 638 533 822 715 723 650 527 531 507 564 315
0 0 1 227 205 185 97 63 12 86 236 101 26 20 10 1 43 139 124 165 137 107 143 175 109 158 162 100 159 170 116 162 337 396 298 273 555 542 664 413 491 477 581 591 628 903 613 504 386
0 0 0 9 149 60 129 57 55 102 193 199 145 59 5 0 10 90 139 164 151 131 101 140 91 30 167 204 256 236 248 124 120 380 534 459 580 533 854 662 617 513 673 544 695 450 367 327 262
0 0 0 0 72 5 90 8 25 34 63 120 179 150 11 0 0 46 130 136 158 126 100 72 38 0 45 211 330 213 238 307 197 293 376 539 836 826 695 449 785 452 468 667 800 1213 850 457 518
0 0 0 0 30 35 73 2 0 0 8 1 145 141 36 0 0 5 47 104 111 116 163 79 22 0 21 88 210 231 293 234 235 249 189 588 858 776 737 526 509 449 335 452 558 713 751 772 661
0 0 0 0 0 1 0 0 0 15 44 93 228 144 34 22 0 0 3 16 77 78 190 191 110 58 83 114 110 135 232 368 331 267 137 480 832 767 650 711 251 437 342 297 415 914 606 596 873
0 0 0 1 16 3 0 3 0 46 126 114 209 151 25 28 12 0 0 1 37 54 163 195 185 126 119 239 213 209 290 257 230 347 221 432 662 719 863 760 564 458 472 498 375 487 895 555 224
0 0 0 0 23 3 0 0 0 9 290 339 224 140 58 60 19 17 0 0 11 26 130 145 146 133 141 218 305 339 293 217 152 310 373 426 516 624 790 810 791 637 451 210 417 527 778 677 666
0 0 0 0 0 0 1 0 23 29 49 80 97 37 23 51 146 33 26 6 20 41 99 164 152 141 133 112 102 310 302 267 133 25 209 347 391 489 529 744 851 744 697 606 450 466 512 483 416
0 0 0 0 0 0 10 0 0 51 45 1 1 4 0 0 22 72 84 131 49 28 158 168 345 201 182 195 164 173 321 336 263 185 299 208 153 345 478 620 774 818 695 596 447 701 496 465 365
0 0 0 0 0 0 7 0 0 7 0 0 0 0 0 0 0 0 4 156 178 96 162 158 180 221 213 295 319 281 300 366 328 262 154 191 68 215 410 403 694 785 690 632 429 664 730 647 280
0 0 0 0 0 0 0 0 0 0 0 0 0 0 1 1 3 1 0 1 74 144 190 195 139 70 29 116 258 399 516 528 370 288 370 373 683 555 332 362 500 505 503 542 661 968 891 705 425

GFSSGP_con_mlcape_090.txt.gz
CAPE
35 0 0 0 9 9 15 22 12 0 0 0 0 0 0 0 11 0 8 273 417 913 1162 1131 1339 971 1352 1246 1865 1502 1141 1309 1763 1849 1994 1767 1890 1956 2044 1849 1845 1726 1800 1726 1293 1524 1460 1527 1755
0 0 0 19 0 8 24 45 46 1 0 0 0 0 34 34 160 0 149 360 772 1033 1179 993 1084 1710 1587 1651 1597 1667 1737 1686 1654 1722 1837 1952 2065 2132 2057 1924 1750 1620 1582 1473 1402 1571 1408 1317 974
0 0 0 20 0 7 6 25 75 30 0 0 6 156 318 179 24 115 232 492 894 967 791 855 1711 1678 1646 1432 1582 1791 1777 1710 1581 1715 1865 1914 2010 2100 1965 1660 1582 1501 1594 1731 1516 1439 1347 1378 1410
0 5 54 0 0 3 10 15 142 73 0 0 182 189 234 257 29 268 366 609 683 671 533 1700 1812 1679 1622 1529 1615 1504 1692 1608 1553 1666 1627 1939 2024 2133 1939 1908 1961 1969 1884 1619 1728 1701 1685 1562 1464
6 63 38 10 0 0 16 76 113 80 32 2 138 148 112 156 258 266 420 612 679 293 1446 1507 1609 1506 1416 1342 1489 1289 1520 1594 1651 1626 1818 1948 1927 1951 1825 1861 1949 1937 2049 1953 1755 1733 1755 1773 2010
48 76 56 21 2 0 38 59 93 105 154 116 49 3 30 244 122 246 448 586 626 319 1236 1136 1196 1262 1415 1558 1365 1352 1489 1550 1401 1552 1756 1821 1868 1990 2054 2129 2168 1992 1950 1920 1664 1824 1661 1689 1543
18 137 149 30 27 2 42 25 68 113 16 12 0 0 64 128 159 253 421 591 691 698 1113 1187 1345 1329 1521 1370 982 1310 1373 1468 1395 1614 1885 1818 2043 1867 1856 2190 2172 1776 1878 1793 1658 1595 1519 1613 1899
6 254 146 15 15 13 9 66 119 37 0 5 3 0 1 101 108 135 392 593 591 604 938 1108 1265 1235 1132 1177 1472 1281 1428 1300 1435 1620 1680 1933 1972 1862 1717 1880 2144 1887 1879 1829 1488 1412 1567 1487 1814
259 130 73 50 3 9 34 63 30 18 1 7 22 16 52 68 50 86 179 279 548 648 676 950 1101 917 995 1244 1252 1115 1129 1290 1501 1296 1578 1398 1298 1345 1541 2130 2082 1889 1804 1271 1306 1517 1373 1254 1681
23 24 46 45 0 15 41 48 73 0 0 18 0 14 39 35 35 0 0 0 181 355 606 637 811 616 952 1168 999 1053 880 934 1063 737 927 981 1321 1741 1884 1850 1835 1830 1731 1409 1229 1484 1624 1145 1262
8 99 131 7 0 65 140 71 50 0 1 0 0 0 17 0 0 0 0 0 0 144 399 431 449 499 754 758 682 599 280 548 612 578 540 799 1244 1418 1421 1300 1276 1012 1051 844 863 900 889 850 827
1 50 139 3 25 138 81 77 20 44 26 0 0 10 14 0 0 0 0 0 0 39 179 243 237 317 490 528 330 269 263 301 447 489 445 517 803 896 834 924 976 845 482 551 570 743 910 987 935
10 309 89 119 84 127 82 40 19 38 14 0 10 27 15 0 0 0 0 0 0 1 33 50 92 140 239 371 336 279 228 181 237 317 444 432 433 417 586 753 849 903 188 456 674 854 726 317 590
93 321 121 150 172 185 103 106 8 12 43 3 1 23 24 23 25 0 0 0 0 32 59 72 23 51 87 184 293 389 435 442 485 483 431 310 309 369 588 563 766 830 598 333 630 902 399 279 304
122 229 217 153 196 217 217 84 54 84 31 25 8 21 35 30 41 77 22 30 49 66 81 38 66 119 50 187 283 326 369 382 478 540 487 330 300 298 266 496 669 472 564 715 690 574 404 317 245
192 131 157 179 274 177 104 36 78 116 14 22 44 44 48 56 95 134 68 66 146 118 114 88 143 162 135 198 215 234 254 360 387 277 408 463 590 543 440 603 685 815 877 487 492 498 473 327 309
5 0 45 227 325 217 151 57 143 38 24 15 47 72 70 97 51 65 84 137 175 176 150 125 176 206 243 191 317 251 191 391 319 216 471 533 671 481 618 631 612 825 814 327 540 522 599 564 413
0 0 22 37 10 179 183 52 138 96 13 18 34 72 74 88 64 43 70 130 200 183 183 186 179 157 46 141 164 164 196 343 361 116 436 365 621 186 578 676 528 958 842 716 564 478 551 415 321
0 0 0 93 152 114 81 66 17 93 107 5 32 59 93 110 108 57 42 117 170 189 211 181 164 96 56 95 139 167 191 230 331 345 333 558 668 665 679 545 612 625 673 558 535 659 473 572 468
0 0 13 228 273 158 13 43 82 116 175 5 0 3 22 70 85 79 54 66 148 154 178 172 105 10 78 132 108 134 143 180 319 328 293 321 483 606 497 382 488 471 510 536 603 676 550 459 269
0 0 1 31 136 126 1 18 114 89 164 140 22 0 0 0 18 73 84 71 106 124 106 184 0 0 27 146 159 151 131 106 203 318 376 308 524 421 672 565 361 416 508 466 579 413 528 322 381
0 0 0 0 127 48 66 2 32 53 72 113 94 48 1 0 14 97 100 101 109 107 103 147 20 58 0 106 141 150 153 193 97 189 341 434 641 510 564 568 363 468 526 568 681 1030 762 479 671
0 0 0 0 16 76 35 9 0 35 41 90 107 123 3 0 10 81 92 109 129 114 75 79 106 19 54 145 192 178 145 170 197 203 229 384 703 715 660 378 611 292 339 296 525 769 739 730 579
0 0 0 0 0 2 26 2 0 0 8 50 83 112 56 0 1 68 120 111 110 85 68 57 97 39 0 91 138 168 162 231 201 241 180 217 711 610 569 523 327 285 250 268 331 814 495 460 752
0 0 0 0 0 0 0 0 0 1 5 1 35 104 97 0 0 9 86 39 74 73 101 81 55 25 0 0 65 96 122 239 263 244 174 139 550 680 523 543 519 209 386 325 285 509 793 360 220
0 0 0 0 0 0 0 0 0 0 15 154 18 72 25 9 0 0 15 21 6 58 132 122 107 38 13 79 86 76 89 206 193 174 301 234 405 594 497 690 678 479 453 233 253 295 610 646 569
0 0 0 0 0 0 0 0 0 4 60 143 130 106 47 20 3 0 0 28 3 1 38 98 125 86 64 99 196 213 183 164 168 96 110 246 366 448 535 690 581 635 555 403 259 335 491 473 330
0 0 0 0 0 0 2 0 0 7 58 53 51 36 8 4 9 16 17 7 0 2 29 110 111 99 77 76 181 263 260 209 167 103 62 87 213 272 347 458 499 485 516 566 452 464 388 391 429
0 0 0 0 0 0 0 0 0 12 28 31 0 0 0 0 8 10 20 36 2 7 46 117 255 219 93 12 103 127 187 256 271 221 175 136 150 59 55 213 457 598 514 595 477 278 505 540 372
0 0 0 0 0 0 0 0 0 0 0 0 0 1 0 0 0 0 3 19 92 49 94 132 154 104 97 57 149 234 319 330 352 296 244 282 256 240 224 251 262 400 626 664 617 286 401 556 568

GFSSGP_con_mlcape_093.txt.gz
CAPE
0 0 0 12 0 11 0 10 25 0 0 0 0 0 1 23 32 0 7 411 729 881 1106 1351 1200 1149 1242 1797 1637 1121 1476 1950 1937 1935 1960 2042 1933 1861 1554 1421 1838 1851 1272 1489 1637 1711 1643 1590 1527
0 0 0 26 0 0 0 63 0 0 0 0 0 0 51 198 69 2 245 540 863 930 1127 705 1483 1766 1805 1775 1774 1708 1465 1765 1671 1893 2001 1989 1927 1901 1891 1689 1881 1783 1679 1785 1566 1301 1157 893 468
0 0 56 10 0 1 3 68 31 0 0 0 10 233 415 219 12 154 288 716 901 1114 587 1345 1788 1712 1685 1272 1316 1563 1686 1476 1607 1559 1764 1960 1991 1757 1861 1709 1703 1900 1762 1640 1550 1603 1684 1605 1442
0 23 102 0 0 0 11 65 71 0 0 0 149 228 165 209 51 276 502 714 820 526 568 1606 1682 1748 1801 1763 1666 1667 1732 1632 1795 1850 1866 1831 1802 1978 1816 2002 2007 2002 1712 1601 1337 1321 1592 1604 1304
7 149 0 0 0 0 23 95 96 0 0 0 234 118 57 207 375 311 614 552 320 258 1502 1507 1708 1597 1531 1603 1595 1477 1398 1523 1483 1760 1921 1985 1990 1957 1953 1983 1980 2017 1977 1823 1756 1793 1891 1900 1848
41 130 60 7 0 0 26 100 99 78 36 8 30 28 17 302 214 449 558 545 108 894 844 1083 1352 1288 1641 1414 1398 1531 1537 1623 1710 1688 1848 1946 1807 1613 1663 1829 2033 2114 1891 1780 1832 1841 1811 1663 1611
22 148 87 5 16 0 32 82 116 157 158 91 23 0 5 210 222 524 697 507 149 692 1040 1037 873 1508 1108 1151 1201 1499 1507 1657 1708 1819 1885 1600 1433 1465 1805 1829 1967 2017 1847 1666 1639 1675 1700 1860 1259
3 156 86 38 16 42 48 36 126 131 78 11 0 0 0 166 259 582 651 397 194 691 863 1179 1244 1218 990 1047 1375 1251 1347 1545 1682 1784 1884 1784 1804 1748 1876 1861 1883 1898 1816 1659 1749 1516 1481 1865 1637
172 150 74 18 5 50 45 80 86 26 0 20 39 0 28 167 201 309 451 209 197 548 767 976 792 932 1199 1100 1112 1200 1245 1454 1705 1702 1636 1639 1644 1687 1901 1974 1945 1854 1582 1543 1501 1527 1498 1807 2053
49 102 65 38 10 22 60 72 39 5 0 9 12 50 107 112 122 147 132 141 222 383 731 904 697 860 1041 988 968 1346 1363 1406 1297 1434 1586 1709 1762 1885 1648 1834 1896 1512 1334 1510 1527 1489 1431 1372 1698
25 125 214 23 18 95 70 62 17 0 0 0 0 0 67 75 100 107 0 142 192 442 479 703 627 1045 841 1133 904 739 909 904 999 1063 1374 1704 1642 1555 1439 1572 1208 1202 1003 1127 1141 1202 1232 1341 1269
0 74 167 6 96 167 61 58 0 0 0 0 1 28 51 53 38 0 0 77 156 292 424 440 447 822 936 835 595 548 634 740 752 843 1101 1389 1250 1348 1400 1399 1385 1059 994 1156 1362 1556 1487 1465 1609
7 256 77 80 165 79 77 24 9 18 0 8 18 54 27 0 0 0 0 0 65 122 275 210 302 486 687 691 647 565 569 652 682 864 951 1090 973 1056 1312 1301 1497 1105 886 1192 1375 1644 1161 867 920
143 296 126 140 174 86 19 23 9 20 0 0 3 14 21 2 0 0 0 0 15 46 93 126 188 420 539 567 692 825 758 828 742 820 831 798 837 1028 1155 1219 1382 1342 1127 1098 1451 1259 1097 869 1223
359 232 242 204 211 124 39 6 6 47 4 0 0 27 51 53 43 0 0 0 21 36 89 67 148 296 359 539 727 803 906 872 1050 983 852 547 890 651 910 1230 1082 1078 1302 1232 1442 1201 1157 943 818
227 300 212 185 154 69 58 56 70 68 9 7 12 36 58 58 79 28 9 0 99 98 129 174 77 231 256 511 707 723 754 995 829 975 889 937 1013 977 1009 1183 1310 1563 1186 1150 1240 1082 1159 959 983
28 145 139 181 157 107 101 1 151 81 91 22 49 57 63 75 130 183 36 83 146 206 197 179 347 370 405 553 674 699 691 940 758 900 973 1151 1151 998 1176 1200 1167 1619 886 1025 1225 1137 1295 1209 1123
4 8 126 184 201 117 58 71 87 88 154 104 72 83 92 73 158 210 205 135 234 274 282 273 362 497 545 501 677 694 666 929 730 783 1011 851 1023 824 1306 1292 1146 1721 1501 1265 1220 1144 1155 1151 1060
0 27 0 61 204 148 83 75 120 81 131 117 109 107 112 94 167 169 187 203 253 372 320 287 342 409 335 420 583 574 463 754 841 621 928 1023 1244 803 1298 1225 1276 1317 1450 1155 1478 1239 1276 1247 1007
0 0 0 133 208 103 82 70 57 186 114 136 130 126 125 172 207 104 139 210 249 365 366 386 386 398 351 476 557 658 610 660 868 884 806 968 1070 1203 1145 1019 1129 1090 1159 1206 1384 1207 1089 938 792
0 0 157 166 141 5 1 6 36 104 320 133 141 135 145 162 167 144 129 185 233 320 339 363 342 349 291 391 443 433 444 503 698 766 737 691 1007 986 1220 1010 983 993 1100 1175 1259 1161 1169 1008 1151
0 0 0 55 125 44 23 0 3 86 146 227 104 84 100 150 171 201 218 230 182 230 358 386 343 245 187 386 450 252 324 256 513 752 931 927 973 931 1181 1296 1030 1171 1317 1133 1413 1617 1307 1380 1414
0 0 0 119 123 86 0 0 2 44 144 184 235 121 34 32 127 194 225 266 231 254 260 354 291 204 133 235 445 410 206 647 594 525 774 923 1101 1137 1203 1113 1094 979 974 1138 1316 1464 1568 1446 1529
0 0 0 20 33 1 68 26 0 14 136 176 277 288 116 6 50 157 98 206 242 239 246 275 324 207 305 244 356 413 344 164 497 562 596 753 1224 1320 1241 1066 1103 937 865 949 1100 1368 1192 1310 1299
0 0 0 0 0 0 1 84 18 57 43 85 136 279 282 39 22 185 150 163 216 201 150 81 225 314 232 301 438 483 486 532 288 375 627 557 1000 1098 1025 1005 894 807 853 846 993 1302 1115 930 982
0 0 0 0 0 0 0 0 0 10 21 110 182 221 353 161 33 90 212 128 76 66 121 111 203 262 311 189 216 425 459 501 619 487 697 658 614 739 888 769 783 975 1014 968 984 922 1336 1497 1399
0 0 0 0 0 0 3 37 0 49 152 260 219 204 290 210 50 70 269 264 103 34 50 287 236 279 234 268 231 275 303 288 555 561 634 781 835 921 1081 681 532 934 1126 1071 682 727 1064 1283 1258
0 0 0 0 0 0 2 0 0 34 73 158 225 157 178 204 60 32 126 259 225 26 15 64 86 300 291 233 267 186 210 244 536 385 313 365 680 789 902 947 945 688 1050 1161 925 995 926 1039 1181
0 0 0 0 0 0 0 0 38 129 115 152 94 62 49 42 35 29 51 98 102 37 8 43 50 252 219 108 127 244 254 307 390 595 630 506 507 414 488 667 716 981 793 911 657 683 1043 930 1080
0 0 0 0 0 0 4 2 0 23 146 104 83 61 27 15 7 6 18 55 102 80 31 13 65 247 267 204 101 97 278 248 258 530 638 660 558 495 512 478 610 611 502 649 892 916 837 729 684

GFSSGP_con_mlcape_096.txt.gz
CAPE
0 0 1 238 129 154 2 2 0 0 0 0 0 0 2 158 31 6 82 476 506 474 749 1118 1209 1102 1406 1382 1051 1468 1954 2127 2013 2005 2067 2018 1859 1512 1777 1824 1169 1618 1646 1629 1666 1656 1609 1262 679
0 0 28 168 71 30 14 0 0 0 0 0 0 14 119 202 0 21 307 561 408 767 1068 350 1259 1529 1787 1738 1463 1436 1727 1597 1854 2004 2105 1964 1949 1869 1889 1888 1685 1623 1709 1410 1204 1098 563 910 1048
0 2 419 5 18 32 15 0 0 0 0 0 0 339 605 2 1 194 441 614 657 822 307 1051 1416 1644 1630 1554 1720 1692 1578 1540 1859 1916 2018 2060 1802 2028 2083 1859 1699 1710 1574 1337 1341 1764 1674 1490 1302
0 317 0 3 65 63 18 0 0 0 0 0 144 470 165 1 140 346 655 723 884 428 830 1323 1288 1223 1329 1771 1735 1682 1682 1771 1940 1998 1967 1893 1991 2024 1886 1993 1746 1695 1599 1542 1629 1751 1767 1395 1660
55 0 0 0 46 79 79 3 0 0 2 349 475 439 0 116 267 523 608 718 401 375 778 1228 1580 1514 1716 1699 1618 1516 1604 1673 1881 1934 1979 1987 1917 1782 2013 2083 1810 1790 1913 1897 1964 2024 1973 2056 1728
39 60 0 21 11 41 153 120 0 0 0 143 155 6 1 183 352 506 503 293 183 406 641 958 1401 1592 1500 1467 1640 1644 1790 1709 1826 1868 1721 1438 1406 1816 1939 2052 2099 1819 1915 1905 1937 1913 1788 1523 1306
174 241 302 27 3 4 73 313 72 0 2 2 26 14 53 177 403 432 409 85 183 274 707 787 923 1027 1384 1336 1554 1637 1717 1847 1946 1498 1639 1685 1783 1907 2049 2154 2007 1872 1743 1795 1785 1848 1932 1177 858
199 276 35 16 9 15 113 275 216 170 292 210 111 26 0 230 372 464 307 0 110 481 795 649 809 946 835 944 1434 1486 1694 1751 1737 2017 1739 1851 1687 1735 1817 1748 2000 1848 1780 1936 1637 1734 1907 1656 1092
191 356 57 89 3 101 155 244 348 268 254 167 143 0 33 216 374 339 98 0 133 420 527 309 362 829 1047 1012 1112 1368 1674 1811 1502 1621 1547 1498 1522 1534 1390 1618 1915 1710 1738 1777 1839 1793 1823 2027 1765
288 395 137 328 36 202 166 307 275 197 229 155 0 4 87 171 239 139 27 0 77 293 312 90 353 414 562 214 1052 978 1106 1322 1228 1504 1692 1647 1713 1566 1219 1637 1685 1575 1588 1540 1703 1610 1283 1659 1502
364 292 436 134 99 185 220 268 162 198 180 152 27 42 90 121 128 12 0 2 12 251 116 76 424 785 495 336 363 747 860 854 1302 1630 1580 1362 1015 917 838 1040 1180 1224 1443 1356 1506 1472 1437 1600 1412
161 353 315 153 288 171 251 197 119 99 34 5 0 49 67 92 53 0 0 0 82 217 43 108 408 782 735 504 312 403 555 746 749 927 1033 1034 860 941 1040 1063 1283 1286 1302 1617 1698 1541 1830 1804 1922
260 381 219 237 384 139 206 58 49 72 0 0 0 29 51 54 30 0 0 0 36 73 0 101 411 940 969 645 484 563 647 479 341 824 1122 997 1111 1366 1334 1678 1379 1256 1246 1548 1686 1410 1427 1311 1408
359 309 212 264 227 60 56 27 51 51 0 0 0 24 34 27 0 0 0 0 0 0 0 146 459 856 861 802 860 704 469 503 605 871 1313 1359 1167 1422 1371 1552 1510 1251 1172 1366 1470 1479 1133 963 967
294 308 260 393 179 89 68 48 99 22 0 2 5 0 16 0 0 0 0 0 0 0 0 255 430 672 776 945 972 759 605 648 751 965 1297 1297 1317 1732 1496 1407 1292 1314 1625 1855 1490 1258 1065 673 632
516 456 306 315 332 173 14 73 58 34 0 0 4 41 42 49 0 0 0 0 0 0 0 167 131 440 667 840 961 921 1003 908 855 869 1024 1425 1690 1808 1559 1200 1248 1646 1484 1365 1153 997 765 795 743
206 288 333 353 215 135 39 62 227 12 9 8 14 33 59 41 1 6 0 1 2 70 102 159 239 372 626 964 795 947 1189 1147 1079 1129 1068 1651 1655 1799 1370 1308 1663 1848 1265 1265 1044 1087 1188 1011 939
33 302 536 456 262 15 16 0 261 49 19 63 37 42 73 61 51 56 77 131 98 171 381 370 539 695 792 870 1103 828 908 1122 986 1148 1203 1526 1471 1847 1505 1421 1711 1750 1394 1219 1227 1571 1305 1258 1134
39 15 339 438 294 32 44 32 47 59 75 59 69 56 80 90 108 117 113 169 221 148 336 555 666 979 967 920 688 705 765 961 777 1042 1497 1498 1549 1437 1802 1276 1639 1674 1580 1808 1897 1305 1526 754 827
32 185 234 379 480 200 20 73 141 149 94 152 59 51 83 93 133 185 200 215 274 404 274 453 738 1207 984 923 740 734 744 871 950 1050 1375 1429 1415 1582 1639 1466 1350 1586 1388 1863 2080 2039 1042 789 1316
0 145 72 298 208 147 98 33 44 25 88 144 100 98 125 164 215 240 258 249 297 474 645 634 772 1046 1038 800 840 737 1054 1049 1082 1212 1224 1186 1348 1398 1652 1578 1403 1533 1771 1340 1765 1760 1796 736 1326
0 0 195 476 184 14 26 0 1 0 30 99 145 173 138 227 259 314 294 321 325 408 713 779 905 1087 1080 1061 689 546 534 538 662 985 1064 1179 1305 1109 1229 1688 1529 1785 1331 1526 1826 1696 1667 1950 1140
0 0 10 136 202 71 69 25 0 3 6 241 348 153 113 125 205 299 368 371 371 373 617 779 949 1093 705 1018 735 520 261 573 426 882 1311 1271 1359 1361 1123 1630 1638 1890 1305 1900 1914 2050 2150 1428 1500
0 0 0 101 187 150 69 18 0 10 0 63 389 448 238 162 173 233 337 440 516 408 539 667 955 1094 923 908 921 850 654 398 444 700 856 1035 1148 1364 1267 1433 1632 1730 1524 1584 1546 2084 2057 1927 1779
0 0 0 8 51 50 157 33 5 0 31 94 430 512 459 223 195 260 406 469 603 559 557 617 903 987 875 851 789 896 754 593 562 560 492 821 838 915 1343 1433 1365 1306 1701 1547 1387 1282 1746 1687 1477
0 0 16 12 46 32 2 84 68 248 263 296 572 479 600 532 225 218 367 257 460 624 593 477 665 1013 968 843 958 1010 1056 291 510 624 641 755 915 720 1124 815 932 1281 1352 1559 1734 1160 1020 1247 1314
0 0 0 7 14 44 30 12 158 171 282 514 604 442 513 705 430 286 461 577 628 529 505 192 148 619 994 845 841 883 986 881 488 624 558 779 765 1172 918 679 655 761 989 1326 1465 855 1415 1694 1450
0 0 4 0 35 26 55 50 7 158 241 362 734 636 558 736 728 459 444 606 411 189 69 39 506 356 779 596 744 599 306 309 329 598 545 702 1112 1399 937 907 781 766 831 1202 1479 961 1125 1580 1360
0 0 0 8 10 29 33 54 444 533 605 373 521 480 676 858 755 556 638 770 699 214 23 53 114 172 745 648 772 441 415 421 408 378 499 590 946 1285 1077 827 687 842 699 768 967 1038 1125 1430 1169
0 0 0 0 0 7 26 169 341 624 717 569 334 283 226 294 268 360 554 626 660 538 90 37 7 63 96 734 487 276 450 438 407 410 468 723 622 915 996 1156 960 805 846 1045 1010 993 946 1183 964

GFSSGP_con_mlcape_099.txt.gz
CAPE
0 0 20 435 459 381 57 0 0 0 0 0 0 20 92 139 129 82 198 472 342 497 648 1129 1151 872 1408 1227 1550 1874 1945 2026 2070 2010 1909 1756 1732 1735 1358 1674 1514 1740 1743 1657 1436 1332 542 638 1353
0 8 273 378 188 61 15 0 0 0 0 0 1 153 49 9 80 176 350 293 457 595 781 300 1040 1329 1429 1084 1490 1734 1678 1953 2053 2114 2053 1955 2058 2001 1743 1794 1732 1683 1601 1147 717 839 1084 1066 1421
0 157 688 14 0 40 1 0 0 0 0 0 198 397 0 29 126 337 257 613 712 715 290 1209 1524 1455 1475 1386 1599 1660 1610 1943 1978 2120 2084 2004 1788 1948 1774 1746 1793 1214 1247 1484 1486 1487 1484 1222 1372
27 408 3 126 47 24 0 0 0 0 0 54 311 0 2 76 312 226 378 595 540 533 586 884 1355 1434 1462 1697 1635 1578 1673 1968 2012 2096 1925 1945 2012 1942 1744 1664 1658 1553 1602 1693 1749 1870 1537 1549 1419
139 0 34 28 83 10 27 0 0 0 28 244 199 0 4 141 279 517 433 475 399 417 437 756 1316 1514 1490 1493 1560 1652 1802 1989 1946 2021 1922 1951 2087 2116 1796 1665 1791 1874 1989 1964 1923 2142 1987 1315 1329
135 22 59 101 52 26 28 0 0 272 230 243 69 1 107 296 272 366 516 327 296 509 527 653 1426 1481 1408 1584 1591 1710 1708 1920 1972 1757 1801 1884 1743 2116 2072 1870 1922 1936 1947 2020 1958 1470 1110 1140 933
263 111 216 120 85 47 29 1 0 7 17 209 101 16 114 322 278 292 124 136 93 349 416 459 734 1083 1545 1528 1612 1733 1776 1895 1679 1637 1628 1941 2044 2079 2265 1992 1888 1852 1879 1809 1972 1924 1108 865 704
340 75 126 23 74 112 136 61 0 3 20 58 56 24 107 295 257 208 53 57 298 242 321 318 780 948 609 1049 1605 1738 1858 1867 1867 1723 1781 2035 1996 2094 1956 1764 1898 1939 1931 1709 1902 2028 1455 1047 546
354 333 52 45 69 91 136 161 182 300 260 275 217 3 145 127 240 72 25 33 316 369 158 377 431 730 629 599 1168 1613 1744 1803 1465 1624 1533 1312 1516 1283 1819 1559 1861 1874 1916 1954 1817 1919 1891 1338 790
331 596 36 296 100 164 233 229 214 227 222 235 20 16 104 140 162 44 15 32 127 70 67 281 336 578 831 301 1121 1061 1207 1419 1278 1612 1544 1611 1611 1377 902 1344 1690 1712 1633 1620 1510 1535 1978 1909 1679
442 359 524 469 403 340 269 276 282 173 134 45 0 51 83 126 123 41 27 29 103 51 5 388 518 144 105 565 604 1064 1032 838 1295 1667 1462 1529 740 828 831 1278 1428 1626 1665 1684 1813 1566 1458 967 1025
251 415 422 360 303 384 349 342 189 105 139 64 57 81 77 96 58 34 38 47 36 13 6 365 530 403 157 198 469 571 571 773 1477 1338 1082 988 722 994 1080 1220 1073 1359 1395 1540 1212 1179 1599 968 1154
265 424 370 321 306 405 312 118 87 129 48 57 12 69 78 74 55 35 26 22 86 3 9 444 799 907 593 210 329 586 455 588 731 1032 1011 848 1211 1080 1207 1241 1214 1050 1462 1514 1114 973 1139 1091 942
454 417 298 398 502 504 185 89 58 14 20 23 12 44 75 85 63 29 13 15 36 2 15 426 560 711 774 511 520 516 453 359 611 771 1160 1358 1231 1497 1224 1169 1338 914 1343 1469 1038 1348 725 841 344
416 361 328 415 296 108 99 70 57 13 11 11 38 64 78 84 67 13 5 67 22 5 47 368 427 505 723 614 540 524 345 547 760 1018 1480 1414 1442 1949 1450 1058 1074 1021 1258 1586 1296 847 759 314 169
691 293 237 324 240 177 148 89 55 10 20 33 72 75 68 60 36 3 22 83 17 10 72 119 199 242 547 790 871 735 626 740 897 856 1167 1663 1891 1655 1487 1083 1160 1124 1339 811 819 524 493 488 530
599 214 247 335 269 142 83 148 181 34 44 75 70 65 65 68 29 6 33 46 23 8 82 98 233 276 623 536 814 879 1051 924 757 781 1118 1626 1618 1869 1404 1317 1379 1927 1068 841 616 461 907 687 540
121 49 332 421 321 76 2 1 44 83 52 66 81 94 85 43 23 17 31 73 62 127 175 101 145 470 681 541 590 725 940 987 937 1072 1499 1480 1489 1660 1871 1315 1392 2003 1340 978 1316 1814 655 1052 945
1 1 4 419 53 8 6 1 38 25 11 101 87 73 93 47 54 65 73 65 102 174 208 263 628 734 971 873 519 637 607 643 620 1421 1297 1569 1411 1613 1913 1547 1539 1569 1759 1727 1264 1335 1624 438 485
43 30 9 17 75 3 6 3 22 9 4 45 152 94 105 93 79 96 91 88 66 130 236 384 652 1257 1212 872 964 898 627 703 739 1271 1222 1426 1397 1658 1600 1635 1587 1758 1387 1854 1770 1910 1647 374 683
12 113 3 1 111 1 2 15 95 86 20 13 161 173 92 107 111 109 107 89 132 192 210 343 581 1238 1021 1016 840 1361 1230 1114 1108 1243 1213 1315 1415 1431 1864 1878 1776 1531 2193 1611 1811 1341 1512 1017 509
9 33 0 15 207 71 23 6 86 20 32 59 204 104 93 63 48 124 133 142 135 345 476 558 585 1064 1138 791 842 651 536 356 859 910 1024 1431 1359 1250 1462 1558 1681 1960 1676 2001 1952 1360 1911 1522 735
0 0 190 147 112 86 25 25 56 21 4 0 198 133 36 125 125 141 127 160 165 310 513 693 765 827 1054 944 1175 769 724 668 825 836 1172 993 1362 1310 1068 1406 1536 1762 1581 1610 2188 2036 2298 1207 1761
18 0 7 241 225 57 35 27 43 9 0 6 44 92 172 120 113 226 128 226 227 315 664 653 1015 1016 960 1121 1118 995 862 855 614 475 758 816 1295 1126 1171 1398 1516 1763 1869 1880 1760 1998 1998 2385 2086
19 0 26 49 64 78 25 31 9 39 0 33 39 136 187 78 112 125 179 218 305 357 612 833 1208 1291 1123 1111 864 649 874 1001 944 1042 452 471 600 767 1502 1284 1381 1461 1804 1634 1617 1837 2085 1850 1980
0 3 35 45 29 46 54 79 21 10 8 28 149 320 515 308 116 169 255 216 408 508 502 753 1238 1260 1179 968 976 860 734 551 487 892 1017 611 616 483 1481 1181 1229 1167 1560 1554 1416 1128 1098 1335 1443
0 9 34 4 12 3 3 170 257 82 66 224 346 310 546 541 246 246 313 514 819 794 781 929 1422 1326 1185 998 976 1149 1009 908 771 1044 1085 962 913 1155 1116 662 811 936 1052 1308 1418 937 1047 1454 1658
0 1 39 28 11 16 37 72 48 287 336 346 385 743 692 602 605 313 597 700 362 294 1001 515 450 646 1070 1140 961 1073 974 799 608 680 800 811 624 925 1094 551 674 759 839 964 1383 1161 890 1178 1367
0 0 10 52 33 17 62 139 112 364 542 668 838 904 742 757 899 863 645 832 1033 863 688 199 727 532 660 1189 977 959 830 654 736 596 479 588 691 1011 912 1125 995 950 1003 1047 1247 1244 1202 1574 1189
0 0 0 2 19 23 2 1 337 656 903 969 1060 1109 1299 1291 1247 1112 983 1019 876 657 163 75 24 48 142 734 578 962 555 701 714 553 566 479 894 961 1067 1077 1157 1205 1094 1121 1379 1279 863 1288 1159

GFSSGP_con_mlcape_102.txt.gz
CAPE
0 0 13 283 456 248 42 16 4 5 9 1 70 94 80 125 45 37 208 313 273 535 929 1279 998 969 1200 1280 1741 1826 1931 1862 1876 1905 1757 1725 1304 1589 1090 1504 1505 1644 1483 1326 548 591 1091 1305 1449
0 37 182 372 90 41 10 3 0 0 0 155 106 2 64 39 107 245 223 419 495 570 448 174 1391 1193 924 1557 1673 1635 1797 1942 1986 1844 1721 1825 1694 1735 1727 1724 1686 1366 914 806 1146 1135 1187 1415 1091
0 100 646 4 3 15 0 1 0 0 0 181 32 41 42 36 150 179 421 662 402 456 501 1334 1431 1436 1368 1536 1469 1559 1710 1929 1887 1903 1804 1809 1652 1665 1651 1496 1398 1588 1532 1601 1596 1312 1298 1199 1195
11 307 36 0 15 12 0 0 0 0 74 54 36 25 123 156 158 346 447 181 479 640 927 1436 1455 1570 1661 1640 1549 1596 1643 1952 2090 1881 1902 1836 1666 1578 1600 1479 1444 1752 1773 1832 1652 1706 1307 1069 882
74 12 45 27 59 0 0 0 0 0 256 9 0 5 156 344 368 450 247 460 398 421 705 998 1384 1515 1645 1677 1723 1808 1893 1969 2006 2008 1931 1735 1770 1681 1650 1738 1927 1886 1904 1965 1975 1497 1175 889 590
70 3 14 27 17 14 0 0 5 170 252 132 0 15 169 379 117 53 419 308 401 444 579 974 1542 1507 1561 1599 1720 1765 1920 1963 1831 1901 1875 1973 1977 1828 1771 1842 1913 1904 1760 1490 1110 971 909 462 322
111 95 180 38 22 6 0 0 148 85 27 3 26 30 143 238 100 374 34 180 487 306 416 729 1042 1468 1645 1715 1576 1713 1848 1815 1680 1731 1944 2056 2119 2003 1947 1990 1841 1720 1752 1844 1252 908 493 37 88
250 76 70 45 54 22 0 24 58 43 31 28 15 57 164 142 295 261 175 264 303 298 333 655 950 1009 1079 1280 1664 1827 1658 1711 1814 1821 1906 2103 2233 1667 1673 1699 1946 1707 1704 1832 1757 995 292 6 70
448 19 6 50 66 31 11 0 20 44 66 45 129 51 79 47 49 52 227 272 28 299 612 780 480 842 901 1248 1596 1804 1829 1834 1701 1758 1488 1374 1489 1638 1656 1520 1887 1796 1538 1392 1310 1222 913 780 529
437 113 5 3 57 25 60 21 27 142 177 111 20 74 43 77 53 43 49 89 151 305 450 435 464 394 461 696 1430 1500 1286 1361 1482 1424 1375 1584 1600 1746 1059 1286 1587 1717 1709 1517 1670 1932 1252 593 1460
135 37 156 52 61 60 160 78 146 107 154 94 14 0 37 70 43 41 56 72 76 193 352 250 302 705 454 990 1451 1248 1535 1409 1257 1487 1766 1745 844 531 865 963 1476 1140 852 1474 1589 1692 1956 814 794
117 307 387 425 374 105 168 197 108 131 55 9 63 12 16 44 51 54 52 41 35 77 475 211 506 383 417 746 1234 1069 1335 1222 32 863 1289 1542 833 902 881 1518 449 1067 1302 250 1547 1573 1276 925 585
144 184 362 159 221 175 294 307 145 113 40 4 72 42 36 68 54 52 43 25 2 27 600 259 558 457 489 770 513 774 891 1147 1268 1185 1224 1273 1056 1098 1150 674 341 598 511 1102 1397 1345 1331 1399 586
452 359 319 320 161 297 196 61 97 45 29 2 38 46 50 60 53 48 54 48 1 51 630 360 423 768 753 670 613 430 514 718 1075 1439 1295 1168 762 1391 580 575 822 995 1149 1149 890 286 559 935 464
218 414 391 480 497 324 81 64 48 10 33 21 51 57 67 64 57 48 34 44 2 16 417 450 385 357 614 458 639 703 407 1018 993 1040 1328 951 1542 774 0 486 822 1023 605 927 1249 1076 1001 552 562
406 404 290 272 421 62 16 63 45 11 33 49 60 77 79 76 31 32 50 52 3 34 255 197 445 345 358 574 860 497 816 401 802 1085 1279 1714 1595 1459 1248 1344 942 1468 1707 1981 1490 1143 978 562 846
582 315 302 329 285 230 147 72 33 43 33 64 81 87 75 76 12 22 83 50 13 64 42 54 210 542 549 1156 760 919 759 960 740 1099 1267 1600 1551 765 1159 1009 648 1085 1901 611 964 788 845 889 837
197 259 307 208 86 41 88 69 63 59 73 97 67 47 65 56 36 18 82 51 10 44 33 254 145 703 597 426 600 825 404 787 532 1021 1559 1358 1316 1608 1441 1782 1176 1384 1589 963 1435 846 661 1530 828
2 50 240 0 16 42 36 27 23 85 128 88 34 64 78 49 23 37 77 55 61 11 111 192 197 467 386 837 614 510 467 748 1079 762 1458 1662 1328 1346 1935 1677 1057 559 1199 932 1169 1549 1850 1051 1098
14 7 24 6 0 14 4 1 0 19 30 43 76 6 89 52 43 46 68 59 22 26 117 140 838 945 953 760 734 791 426 793 1132 1567 1184 1147 1172 1505 1655 1543 1746 679 1313 1448 1551 1670 1935 593 832
103 72 1 0 0 1 2 0 31 23 25 24 32 18 45 67 38 52 73 46 36 153 340 190 335 1163 832 795 516 713 281 739 717 980 1342 1185 1132 1234 1334 1710 994 1459 1320 1529 1636 1682 2079 1327 527
133 49 0 0 0 5 47 1 33 4 31 1 8 21 87 76 68 70 69 41 37 84 251 896 598 845 891 518 572 667 454 123 673 666 654 903 1282 1243 1093 1339 1402 1435 237 715 1928 1624 1656 2211 1364
0 64 24 3 0 7 20 24 1 48 0 0 3 26 83 71 96 61 54 57 57 12 70 311 865 1015 746 812 560 586 380 587 774 657 606 629 1178 1184 1023 1340 1420 1544 1286 1147 630 1749 1777 2156 1972
1 98 77 0 0 13 26 108 30 34 9 4 0 23 82 61 48 17 97 47 276 212 341 679 798 866 1084 907 909 488 713 659 607 217 430 707 1030 1173 1020 925 1389 1490 99 356 1615 1742 1552 1955 1620
66 21 18 15 6 10 69 66 57 66 20 13 3 24 77 123 114 98 63 148 261 517 396 800 945 959 1068 834 725 725 794 785 821 333 528 462 474 359 705 1151 1035 1206 1123 1371 1423 1591 1670 1929 1630
50 90 4 11 14 51 44 54 114 35 0 0 8 52 59 75 138 95 152 54 478 650 983 1062 970 1191 1153 794 814 602 896 793 762 969 722 73 322 37 705 845 989 1211 1443 1095 1106 1084 902 1649 1505
34 0 12 5 0 35 40 66 168 0 0 0 25 30 2 0 22 67 111 144 112 116 650 102 1077 995 1211 1051 932 877 1004 720 725 860 1284 1144 316 32 226 129 850 726 1059 664 1138 928 901 877 503
2 8 0 39 12 20 50 37 49 23 32 31 63 21 0 1 45 28 55 3 0 0 60 800 1102 1062 845 1079 1069 1114 1135 1085 877 949 948 776 215 7 0 1 519 800 657 740 859 1080 957 1003 317
0 0 0 4 101 1 62 53 186 189 109 201 337 300 192 347 290 74 55 219 7 0 330 1097 982 1005 1025 951 804 874 979 990 819 764 632 677 373 76 108 566 809 828 674 746 941 958 871 796 895
0 0 0 3 0 2 1 54 60 107 505 449 915 630 1101 593 303 91 14 4 538 781 917 742 405 248 223 630 778 874 362 536 654 382 331 485 635 889 783 989 873 976 871 842 1016 1010 972 991 1071

GFSSGP_con_mlcape_105.txt.gz
CAPE
0 0 0 72 263 228 14 7 4 54 42 44 43 56 61 70 27 18 210 308 266 501 1081 1295 1162 1075 1186 1702 1936 1953 1851 1998 1907 1885 1467 1368 1175 1362 1387 1568 1497 1436 881 418 837 1209 1269 1125 1208
0 0 34 49 100 36 13 7 19 53 31 14 10 107 79 94 72 100 104 359 526 790 1014 740 1256 1182 1393 1637 1712 1847 1875 2006 1834 1828 1661 1650 1721 1789 1648 1382 1065 1094 884 1018 936 1448 1091 951 950
0 2 179 10 12 27 0 0 0 46 16 29 14 8 100 127 268 283 252 348 468 304 679 1313 1333 1121 1618 1650 1658 1761 1879 1950 1790 1845 1745 1743 1611 1834 1603 1705 1584 1568 1643 1413 1459 1223 1000 827 1044
0 196 39 0 50 49 0 0 7 0 0 21 10 96 62 232 374 323 241 296 362 597 1202 1566 1566 1475 1545 1534 1654 1674 1876 1911 1893 1828 1796 1585 1623 1348 1311 1494 1686 1755 1812 1723 1402 1150 759 741 931
0 46 12 29 76 16 0 0 61 21 12 15 27 115 232 195 241 170 288 539 636 857 1314 1462 1626 1671 1579 1438 1555 1734 1887 1900 1794 1894 1819 1626 1693 1671 1700 1724 1878 2003 2052 1772 1225 1036 415 628 683
43 1 13 23 48 0 0 0 149 6 3 29 104 67 177 288 181 270 277 422 534 703 952 1315 1467 1543 1569 1632 1642 1799 1863 1928 1909 1897 1941 1796 1742 1957 1971 1910 1972 1520 1460 1167 1016 518 256 375 362
28 33 36 66 0 0 0 26 106 42 8 43 177 59 76 41 125 280 179 334 469 665 763 1022 1343 1485 1590 1637 1747 1937 1796 1809 1879 1952 2084 1993 1892 1970 1945 1871 1817 1808 1287 1015 759 171 131 180 396
99 20 107 103 0 0 0 150 89 1 0 19 26 1 3 79 163 150 164 281 324 554 680 795 1065 1147 1336 1546 1763 1709 1719 1688 1824 2004 2045 1976 1841 1591 1607 1899 1856 1793 1821 1469 806 290 165 175 179
154 5 9 31 5 0 56 84 105 29 16 13 42 12 0 67 68 69 108 138 197 466 595 756 795 949 972 1359 1694 1646 1765 1803 1939 1844 1701 1280 1389 1400 1444 1555 1795 1770 1843 1484 749 288 126 183 220
250 43 11 11 85 56 18 79 117 33 29 67 17 1 26 66 50 45 148 74 292 403 530 509 653 485 865 1105 1273 1228 1347 1002 939 928 1064 1347 1409 1160 1111 1536 1200 1122 1356 1287 1180 961 964 385 402
157 38 51 2 2 154 73 106 150 61 37 47 0 0 27 26 44 65 35 146 273 414 429 308 280 422 425 870 1089 1125 1203 1235 985 557 1102 1325 1245 1176 949 292 193 12 29 40 510 1235 342 111 310
99 100 2 17 110 158 124 175 157 81 36 1 1 0 20 16 4 22 42 75 130 18 0 316 200 422 581 983 1158 1177 1017 447 472 1000 1346 1303 702 570 551 0 0 0 10 0 19 961 1418 1459 988
241 288 58 17 1 52 175 201 137 83 27 2 22 6 7 10 10 27 19 117 142 6 125 161 507 481 428 754 791 1054 1193 25 210 967 1291 1010 1070 497 78 0 0 168 295 312 561 853 891 1048 381
272 235 327 36 226 163 233 175 103 67 32 8 3 0 5 14 11 32 8 108 184 90 89 79 378 570 933 500 702 827 717 655 1077 695 792 994 1041 582 261 144 166 360 381 411 106 177 560 636 424
241 288 437 194 178 340 122 118 76 73 45 9 0 0 1 16 16 10 0 68 250 111 112 0 207 505 483 390 558 384 606 1027 1184 257 126 1102 606 173 340 552 498 793 515 1021 205 494 570 385 341
140 276 115 210 122 85 98 65 83 49 17 18 21 8 19 19 8 13 0 0 224 77 52 0 27 209 201 369 581 573 684 620 665 866 1012 1675 1048 528 936 848 826 1201 1547 1455 1769 1376 871 570 443
338 70 64 227 68 148 88 65 108 63 20 33 33 33 15 20 14 13 0 0 78 0 61 159 27 77 402 629 942 687 571 671 825 893 1133 1271 1676 1069 1235 1354 1100 1762 1486 416 1073 648 1012 450 592
28 37 164 125 3 12 145 67 114 103 31 44 49 42 26 8 22 21 0 0 0 20 61 280 89 176 573 388 467 426 280 737 1068 1155 1362 1475 1562 1474 1511 1743 877 539 1212 959 1144 1183 1654 1406 606
95 149 5 0 0 14 80 39 58 59 90 68 70 44 15 5 7 37 3 3 0 0 0 252 152 163 266 265 491 420 297 628 757 1057 1259 1246 1239 1577 1607 1456 112 0 1142 1446 1476 1539 1705 1142 1173
62 7 3 1 0 0 0 48 26 31 52 78 41 38 32 12 4 38 14 12 0 0 78 220 209 223 431 557 638 564 453 750 745 924 1272 1543 950 1303 1628 1309 1023 855 1068 1618 1364 1412 2030 1315 632
107 97 9 0 0 0 0 16 35 33 32 51 41 24 55 8 9 23 15 10 0 0 117 203 261 260 431 532 490 375 428 652 573 973 857 1029 1258 1157 1250 954 710 730 744 706 849 1897 1983 1654 1624
37 83 11 1 0 0 8 3 31 12 23 34 25 10 65 7 33 31 46 49 8 0 33 142 304 241 329 614 414 304 247 289 475 444 554 692 927 1118 1020 767 501 770 57 0 483 1683 1932 1792 1586
174 87 35 0 0 0 0 28 15 8 8 15 23 13 41 31 19 31 36 31 74 148 95 112 232 127 356 283 566 523 237 179 549 480 461 145 528 1186 1056 1312 1258 926 530 850 1199 1063 1821 1736 1483
182 49 17 4 0 0 1 5 37 2 1 0 0 0 12 50 45 31 87 65 149 217 405 212 217 197 774 601 523 350 400 467 417 361 379 604 548 626 1065 1028 1092 953 512 354 638 1610 1738 1768 1608
72 47 5 4 0 0 0 7 3 55 30 0 0 6 16 37 63 54 67 57 97 131 425 630 424 317 662 524 327 342 745 479 339 90 239 576 538 363 538 632 1000 843 606 256 670 1080 1245 1588 1523
129 55 9 1 11 1 47 19 0 44 31 59 1 7 12 18 48 36 17 52 152 159 288 328 707 441 491 886 774 763 649 494 626 686 399 159 186 168 312 559 867 832 1027 1062 1088 616 879 1010 1111
2 29 65 36 0 0 13 7 30 137 90 23 9 3 7 25 33 57 94 58 162 357 711 823 688 555 718 526 655 310 765 687 635 812 627 506 242 9 214 281 314 459 884 993 1004 798 602 775 649
0 2 0 48 0 0 22 4 31 38 29 17 0 4 30 32 32 61 124 105 131 92 482 889 891 653 711 761 815 859 825 788 904 789 302 342 129 68 271 74 57 266 735 744 669 950 883 819 466
0 0 3 1 0 6 15 28 0 5 23 54 31 8 0 0 3 30 80 82 51 43 157 288 411 761 819 1069 743 557 539 471 758 712 663 330 133 6 0 0 299 577 793 650 758 677 695 472 732
0 0 0 0 0 10 2 111 193 107 77 45 44 29 0 0 28 41 91 59 84 3 49 0 0 522 815 930 639 446 48 359 494 366 359 370 321 265 325 535 862 823 911 771 840 928 928 951 685

GFSSGP_con_mlcape_108.txt.gz
CAPE
0 0 0 175 164 67 15 29 20 26 16 31 15 55 27 25 21 0 109 187 71 301 1160 1165 1316 1382 1450 1621 1549 1786 1896 1564 1774 1608 1798 1227 1410 1442 1625 1618 1704 1144 942 1407 1316 1360 1320 1088 676
0 0 0 9 43 4 35 55 14 13 45 57 56 53 62 90 111 167 202 285 309 801 1055 1205 1222 1211 1751 1783 1893 1734 1627 1690 1691 1678 1531 1534 1580 1669 1695 1592 848 720 717 1319 1385 1179 1163 1201 744
0 9 19 5 11 3 11 68 30 14 54 64 102 94 134 73 115 146 192 124 517 722 703 1112 1440 1577 1715 1717 1942 1890 1928 1967 1923 1702 1610 1622 1500 1610 1441 1129 1738 1567 1518 1660 1261 1184 1281 1476 1260
0 30 13 15 21 43 0 54 20 7 62 111 93 95 203 208 185 93 221 377 386 269 952 1370 1261 1724 1735 1763 1863 1953 1995 1947 1830 1812 1609 1660 1541 1498 1563 1615 1770 1766 1590 1319 1164 1055 1313 1103 1428
0 16 6 43 56 0 35 34 29 45 111 102 54 83 193 136 167 167 277 366 232 870 1314 1525 1508 1661 1703 1775 1785 1938 1937 1950 1967 1748 1746 1629 1617 1697 1827 1869 1971 1881 1802 1371 1004 826 949 926 1026
40 0 23 50 23 0 73 47 20 71 114 126 49 37 81 127 220 228 365 340 585 988 1377 1646 1723 1662 1616 1721 1910 2050 1967 2047 2096 1897 1896 1867 1896 1921 1845 1839 1778 2111 2007 866 646 593 573 631 921
40 2 11 37 0 0 33 21 0 91 51 64 52 38 27 174 219 356 399 327 556 923 1121 1330 1513 1541 1733 1804 1951 1989 1891 2049 2112 2061 1821 1953 2007 1986 1964 1848 1531 1144 1020 800 478 253 324 441 641
63 46 21 24 0 0 47 70 12 34 57 58 73 47 38 121 175 288 329 376 462 831 1011 1099 1324 1485 1540 1789 1974 1878 1958 1990 2065 2103 1924 2017 2036 1943 1869 1836 1851 1671 1274 855 328 108 147 265 310
119 8 31 36 0 0 60 117 56 112 95 8 55 4 45 150 107 191 238 183 240 460 697 1073 1134 1176 1423 1665 1764 1875 1892 1996 2051 1929 1846 1335 1361 1548 1657 1832 1799 1740 1373 818 379 118 175 252 350
144 6 18 29 84 62 109 63 23 29 61 38 6 39 57 108 94 185 155 187 264 392 575 680 704 931 1309 1744 1429 1517 1408 1465 1656 1442 1098 1028 1101 869 1084 1370 1488 1735 1053 1044 1177 965 836 740 298
87 5 0 13 16 46 134 78 65 6 75 12 5 56 53 48 95 100 117 184 202 375 510 611 619 636 868 1116 1068 1162 1012 869 765 908 1134 1215 1108 855 341 212 85 113 146 30 249 277 1058 248 488
99 78 4 34 35 109 147 178 91 59 81 3 0 30 37 31 69 58 69 240 266 338 338 362 336 462 506 794 968 1051 1044 833 534 761 964 862 810 584 87 0 4 0 0 2 27 144 669 1199 1303
121 55 52 30 46 52 136 189 109 92 81 0 1 16 4 73 12 55 115 190 156 159 224 231 217 378 767 981 1043 1057 840 221 535 849 994 624 199 407 171 0 0 130 224 290 367 370 686 1053 646
394 336 159 37 19 77 140 174 122 107 10 0 0 14 10 0 3 85 94 61 2 113 249 320 286 448 712 744 816 936 851 26 751 773 690 841 299 435 180 0 104 232 346 403 302 172 1 389 340
460 86 87 1 43 91 204 86 53 42 18 17 18 3 6 14 38 71 69 7 1 88 197 275 467 896 514 618 615 843 635 688 631 363 661 810 519 373 233 285 427 479 482 687 471 294 287 499 321
334 205 84 4 28 4 138 17 43 11 25 30 14 12 6 19 28 50 74 39 14 18 0 136 324 372 356 561 537 622 657 977 615 15 731 806 252 34 292 409 505 35 5 1064 1200 1082 1253 587 336
90 9 36 71 34 94 53 36 60 29 21 2 15 4 6 9 3 42 147 86 75 0 0 44 109 197 485 501 554 611 737 772 564 842 1099 1019 1182 1014 1298 1107 894 801 943 574 1127 770 1123 681 433
0 15 16 4 2 11 24 52 96 46 17 14 29 30 21 8 4 71 158 89 51 0 0 0 30 277 403 444 416 372 546 689 680 947 1149 1310 755 1181 1431 1118 609 147 1080 1409 1509 1504 1612 1365 381
0 9 15 3 0 1 15 0 55 81 62 33 17 18 4 20 5 12 110 39 41 37 52 0 60 322 194 388 423 210 427 778 775 1168 1107 985 1202 1409 1326 1224 191 640 975 1523 1499 1517 1447 707 744
30 45 5 0 0 0 1 0 0 52 48 30 30 3 15 48 19 21 14 0 2 64 76 0 67 148 161 352 447 412 466 751 634 692 1139 1144 927 1105 1115 1098 737 748 829 778 1211 1899 1525 1543 1390
67 33 22 0 0 7 0 0 0 50 45 35 25 12 5 6 18 1 0 0 0 95 132 105 42 126 360 418 350 362 510 560 565 852 847 923 1113 1143 971 790 707 551 416 111 734 1474 1839 1260 1348
114 162 38 0 0 0 1 0 7 2 23 23 31 16 22 1 18 1 3 0 11 26 112 82 99 231 386 315 316 246 332 341 363 472 513 622 427 948 1084 652 540 572 1 23 831 1007 1699 1360 1208
200 143 16 4 0 0 0 0 0 31 16 12 12 30 6 13 10 14 13 0 28 82 91 129 168 207 308 273 247 260 196 213 418 396 379 376 334 871 1152 415 763 634 423 654 900 1282 1303 1477 1079
173 87 28 2 0 4 0 0 0 17 1 2 21 43 34 42 15 45 26 19 23 45 103 122 107 132 171 261 355 343 206 179 267 263 396 298 352 579 840 1163 1055 600 535 327 344 1265 1376 1446 1150
178 51 1 0 0 1 0 0 0 6 0 25 13 16 50 89 80 44 22 46 42 38 6 0 92 107 122 288 415 289 289 335 295 252 143 415 384 397 509 735 876 586 409 4 148 970 890 1147 871
152 45 19 1 16 28 24 13 0 12 17 16 5 32 53 81 98 72 6 63 66 110 53 63 120 94 311 359 272 263 459 413 282 82 83 472 410 257 311 415 757 761 769 743 870 782 636 852 691
207 50 36 18 6 3 1 5 0 0 46 40 20 12 29 59 102 93 43 76 124 182 251 211 194 191 361 332 228 336 387 366 403 525 371 196 153 180 193 408 314 437 573 692 800 795 626 609 569
100 71 48 26 12 7 0 0 0 0 0 5 21 13 36 10 79 124 96 63 161 165 241 669 331 264 367 481 546 452 430 437 498 546 359 413 330 125 37 277 171 219 384 672 761 702 602 633 638
0 0 0 0 12 11 9 0 0 0 3 39 27 24 44 14 28 135 165 150 181 290 369 277 399 496 454 490 618 371 593 707 614 424 206 195 127 65 109 80 0 209 467 705 646 576 595 500 317
0 0 0 0 0 21 29 1 11 0 0 16 19 14 18 12 43 103 158 137 111 127 31 7 171 432 548 624 516 709 645 587 550 516 400 240 152 9 0 0 189 545 631 736 605 512 677 457 474

GFSSGP_con_mlcape_111.txt.gz
CAPE
0 2 5 179 75 12 1 1 9 0 0 1 0 28 8 43 11 0 79 53 80 88 700 1375 1410 1558 1506 1918 1861 1840 1566 1561 1465 1685 1567 1722 1639 1528 1592 1573 1578 1632 1451 1436 1552 1451 1127 1024 1099
0 0 0 0 0 2 10 35 12 9 66 15 60 41 97 43 115 90 35 149 76 310 1098 1110 1394 1439 1624 1830 1902 1914 1780 1376 1700 1482 1507 1712 1528 1644 1722 771 589 791 1392 1411 1481 1380 1214 1132 1236
0 21 37 10 2 0 0 14 21 56 78 85 76 140 136 39 118 43 215 327 276 831 1094 1185 1084 1762 1818 1920 1904 1879 1885 1518 1631 1780 1651 1667 1409 1003 1113 1419 1330 1326 1722 1299 1381 1529 1589 1459 1393
0 53 19 19 0 9 12 4 21 56 65 105 135 96 195 180 126 206 400 261 443 836 909 1696 1337 1799 1798 1914 1703 1776 1903 1901 1921 1830 1785 1841 1889 1841 1922 1920 1722 1627 1421 1369 1432 1649 1595 1766 1321
0 24 7 55 16 2 26 21 46 62 94 140 120 129 208 213 197 294 149 188 542 580 1210 1313 1749 1821 1781 1853 1702 1926 1977 1910 1878 1842 1708 1650 1645 1838 1905 2033 1923 1988 1667 1233 1255 1324 1408 1494 1464
37 0 0 29 4 7 29 51 88 85 118 122 109 134 171 188 114 116 212 425 332 987 1417 1450 1670 1735 1749 1802 1911 2009 1999 1859 1865 1820 1885 1883 1914 1963 1908 2110 2190 2019 1421 1013 1014 959 1013 1089 1566
39 0 18 5 0 20 23 77 68 82 30 71 85 62 160 194 209 369 467 412 875 1313 1394 1522 1582 1548 1666 1914 1924 1980 2080 2027 1953 1985 2097 2166 2178 2081 2077 1468 1259 1083 815 741 559 561 595 871 1168
40 8 12 2 0 11 18 69 93 51 64 116 85 13 113 243 352 420 441 578 654 896 1131 1238 1379 1607 1679 1961 2104 2047 2150 2200 2124 1920 2105 2153 2113 1956 1952 1863 1646 1311 989 627 327 308 415 539 766
51 9 3 3 0 16 84 52 100 162 84 47 117 22 114 178 284 264 269 444 479 763 1015 1219 1409 1390 1554 1796 1878 2004 2083 2121 2122 1916 1758 1792 1623 1687 1382 1776 1645 1666 1495 885 472 357 405 502 721
102 25 5 22 55 44 133 64 89 16 10 0 0 85 140 194 225 205 3 122 182 503 794 969 884 1137 1481 1685 1503 1522 1877 1895 1865 1519 1227 1037 1076 1126 1354 1622 1643 1292 723 633 873 644 827 300 130
92 85 23 6 61 37 70 93 92 13 11 2 1 110 165 162 180 184 55 140 92 310 664 704 735 1059 1300 1401 1234 1316 1400 1467 1319 1156 874 1034 958 708 388 256 188 164 155 0 40 72 234 901 847
107 68 7 6 28 42 90 172 68 49 62 0 38 112 180 164 168 142 149 203 220 360 448 555 603 833 1064 1074 794 946 825 666 528 806 1010 1034 768 345 131 26 0 0 0 9 125 220 298 542 910
152 81 47 31 20 86 105 83 194 60 29 58 56 107 124 139 181 163 191 231 247 284 347 352 358 433 459 613 871 866 821 638 489 795 923 731 665 274 7 0 1 49 153 238 273 337 232 102 319
233 133 101 96 20 64 63 114 158 94 21 14 33 78 85 108 161 171 223 229 207 196 230 230 239 252 502 747 732 760 548 200 572 740 862 511 144 297 79 6 219 377 393 518 448 321 300 238 282
410 134 163 82 17 51 111 113 99 51 6 11 17 78 80 96 85 160 203 105 89 144 191 212 239 329 594 529 652 701 543 174 617 535 694 625 226 294 128 214 305 261 92 773 893 807 686 695 539
75 158 65 23 109 63 79 42 78 68 8 11 30 14 52 0 72 99 158 69 92 149 199 178 419 323 497 581 575 669 429 463 443 243 558 597 294 184 303 352 268 1 1 669 553 722 717 710 355
31 12 37 29 52 26 64 23 72 8 0 4 41 0 0 2 16 48 96 20 97 182 216 316 411 466 347 494 371 504 510 771 457 272 744 405 69 409 936 778 444 531 881 1155 1056 1171 1063 563 338
0 10 21 0 3 12 18 17 66 36 4 38 36 0 0 10 11 58 61 26 72 87 85 153 262 347 477 380 319 513 527 629 227 647 751 832 915 1044 1160 741 316 658 1032 1350 1368 1442 1306 1053 347
0 8 32 3 1 24 0 4 36 54 43 35 11 0 0 0 43 67 83 40 7 0 0 68 213 234 278 287 307 398 455 515 574 868 918 1101 953 1044 1001 777 0 640 1016 1096 1729 1524 1069 791 713
1 10 27 4 0 0 3 21 0 0 53 56 21 0 0 0 23 84 82 55 16 0 0 20 122 177 220 252 187 317 450 613 547 746 902 953 921 1103 740 835 653 602 515 787 1505 1599 1163 1277 1132
120 105 20 5 1 1 0 1 27 0 58 65 41 4 2 0 1 86 85 50 0 0 0 0 91 111 207 300 269 285 443 466 547 566 691 743 1005 1131 929 730 491 442 178 382 984 1489 1198 1109 1045
59 197 116 20 1 0 0 0 2 0 14 48 38 3 4 0 9 90 71 38 39 6 44 0 120 114 208 220 234 217 254 322 412 425 542 631 478 695 1023 650 492 271 0 473 877 1064 1263 956 922
196 258 126 11 0 0 2 2 0 1 0 14 38 3 1 0 7 63 61 39 26 59 10 0 68 163 209 215 222 180 201 226 297 277 356 380 322 686 929 557 434 425 319 561 976 1060 996 1030 622
251 144 82 16 0 0 8 0 0 0 1 0 29 28 9 16 17 49 67 39 46 42 105 0 0 105 208 151 183 182 176 208 273 274 301 269 339 507 819 904 538 597 479 391 553 1033 1165 973 768
184 58 10 1 0 3 1 0 0 0 0 2 24 14 20 34 14 39 57 4 38 34 120 26 0 45 180 147 149 197 203 180 158 183 204 288 274 296 507 794 841 591 343 93 1 776 688 957 805
275 54 4 0 0 9 13 2 0 0 0 0 0 9 40 83 8 48 79 32 57 41 113 84 15 35 64 70 132 290 243 158 177 228 188 161 301 209 249 421 775 560 397 175 517 677 584 727 589
383 176 32 23 7 2 0 2 1 0 0 8 21 11 3 6 34 74 92 82 58 34 56 85 5 0 92 45 176 273 263 269 312 257 73 97 324 256 194 316 466 621 548 611 696 702 463 449 395
329 198 101 50 38 3 0 4 0 1 15 60 59 8 0 0 56 51 65 133 110 96 72 91 59 7 30 93 262 156 214 347 325 337 397 240 189 158 51 183 211 219 280 407 647 706 601 411 392
69 64 3 16 17 3 1 3 4 0 0 33 57 17 1 45 36 52 23 136 166 189 162 157 154 140 142 270 316 226 332 324 344 438 399 253 253 154 29 54 132 54 180 357 563 508 509 503 268
14 0 5 3 0 1 9 1 34 0 0 0 25 2 0 26 77 87 109 184 217 223 239 237 234 276 317 320 417 496 427 445 494 456 331 158 111 21 0 7 30 0 321 554 580 526 606 529 360

GFSSGP_con_mlcape_114.txt.gz
CAPE
0 77 12 200 21 0 0 0 0 0 0 0 0 6 14 66 9 0 22 3 12 39 379 452 573 601 1236 2042 1885 1760 1764 1823 1596 1250 1532 1562 1578 1738 1502 1412 1381 1351 1456 1436 1393 1322 1277 1320 1334
0 0 1 0 0 0 0 8 0 1 0 0 39 33 64 16 131 51 8 69 23 215 785 549 962 1153 1937 2055 1906 1821 1655 1799 1791 1531 1681 1698 1556 1534 893 763 1237 1419 1484 1376 1302 1367 1299 1229 1307
0 1 33 2 0 0 4 29 36 24 27 0 159 145 69 13 88 37 89 137 145 640 1046 1409 1243 1710 1845 1861 1875 1771 1406 1721 1607 1905 1714 1466 1502 1334 1055 1112 1209 1614 1378 1477 1536 1044 927 851 1394
0 37 10 4 4 0 28 40 66 94 96 90 34 1 85 185 17 176 274 292 317 788 968 1200 1375 1570 1730 1817 1887 1929 1786 1948 1890 1833 1819 1869 1640 1872 1657 1608 1682 1430 1374 1401 1655 1518 1503 1125 1740
0 44 4 13 13 0 22 37 107 68 61 35 6 20 56 166 289 401 286 312 388 750 1038 1343 1720 1772 1854 1780 1878 1956 1982 1947 1927 1950 1890 1768 1814 1831 1583 1438 1702 1468 1259 1400 1460 1461 1248 1519 1585
79 14 8 5 4 6 34 67 85 82 89 59 38 29 128 241 287 261 224 283 587 550 1186 1286 1296 1296 1804 1788 1933 1990 1952 1902 1789 1776 1767 1766 1883 1664 1836 2010 1894 1124 1120 1279 1229 1138 1278 1437 1728
74 7 34 1 2 7 35 91 58 74 54 36 66 32 142 179 161 197 245 537 598 1116 1095 1292 1464 1446 1656 1969 1995 2036 1969 1936 2034 2056 2016 1935 1889 1846 1412 1294 1086 816 846 920 907 853 1027 1330 1569
72 22 13 0 4 1 32 117 55 72 44 38 27 6 49 156 203 323 442 388 894 1022 1023 1248 1312 1465 1718 1794 1946 2093 2082 2066 1977 1990 1982 2112 2075 2047 1938 1600 1270 923 708 685 621 642 736 985 1370
49 8 5 0 8 13 39 53 64 119 23 0 78 8 107 235 353 303 226 476 790 922 1025 1100 1297 1319 1492 1564 1676 2061 2181 2210 1901 1975 2281 1703 1597 1579 1536 1574 1536 1593 1291 787 481 499 595 673 726
111 33 8 59 37 46 66 28 148 62 38 28 15 92 209 236 253 120 90 158 332 520 856 1059 1251 1240 1480 1505 1355 1589 2031 1632 1598 1405 1141 1129 1069 1297 1709 1849 1373 913 377 424 450 451 733 294 235
87 80 13 24 67 35 63 81 61 44 16 3 0 6 160 174 201 17 82 30 93 333 749 874 919 1155 1175 1289 1262 1518 1610 1411 1306 985 851 971 990 728 230 71 44 10 18 5 39 84 176 363 629
68 98 17 8 3 114 126 204 51 23 32 3 16 57 135 159 134 0 0 44 11 160 549 626 685 923 1008 1094 1114 1081 1173 961 803 833 976 904 655 180 25 0 0 0 5 102 189 306 321 213 264
27 125 111 105 80 101 100 116 168 9 44 26 79 80 109 125 103 31 37 82 82 109 360 351 511 676 849 802 819 739 580 376 520 798 910 722 717 217 0 4 30 111 248 320 333 220 258 230 196
168 148 174 196 54 55 62 92 184 91 35 19 70 77 78 89 92 70 97 96 97 146 234 341 242 410 515 513 683 755 606 486 503 717 760 501 481 290 43 23 316 366 286 489 450 407 353 417 257
251 98 75 147 38 54 88 40 55 84 25 11 49 82 73 77 75 91 123 86 70 92 154 195 170 227 303 530 643 679 438 199 463 602 708 567 68 142 129 27 259 115 74 732 534 556 618 681 436
218 137 56 69 92 92 36 47 122 111 10 20 53 62 88 51 109 116 127 93 70 59 121 165 197 223 390 470 512 541 477 104 522 413 614 658 425 242 240 249 133 16 392 933 785 761 544 417 289
5 0 28 68 31 107 35 72 87 27 4 24 30 68 73 72 92 112 123 54 2 64 90 141 175 263 365 409 443 470 444 182 366 141 489 287 135 192 501 574 371 690 1107 1069 1214 1136 730 381 221
0 2 13 29 15 9 0 1 47 12 0 11 13 38 78 63 97 101 86 26 0 61 97 114 143 274 257 353 332 339 422 476 438 112 654 235 294 897 996 584 244 802 1158 1387 1337 1011 1108 530 351
0 9 4 31 21 1 9 0 40 4 19 4 10 0 23 76 84 82 56 27 7 54 92 173 285 348 264 260 228 336 366 456 279 562 757 707 766 854 891 579 59 930 928 1330 1432 1031 885 866 530
0 14 48 19 13 0 0 0 22 3 16 17 14 1 4 34 70 90 68 36 21 73 64 119 183 221 250 188 170 278 306 421 473 685 821 795 800 889 612 427 374 742 499 1145 1374 1127 918 892 739
0 17 58 30 3 0 0 0 0 11 2 29 24 0 0 2 0 72 84 27 21 9 3 10 122 151 182 186 197 296 358 400 471 609 672 862 869 805 869 695 594 489 65 791 1066 1121 919 771 693
0 152 81 37 8 0 0 0 0 0 4 1 70 0 0 0 36 80 94 44 20 0 0 0 64 90 152 173 157 207 282 339 304 381 380 626 618 829 745 632 332 79 0 691 866 1054 953 711 637
0 298 159 63 1 0 0 0 0 5 0 0 17 0 2 0 19 63 77 82 35 0 0 0 0 43 128 171 174 147 180 218 239 322 363 485 388 524 855 677 445 162 99 600 909 809 838 664 353
243 258 114 46 5 0 3 0 0 0 0 0 2 4 0 0 2 74 103 107 64 1 0 0 0 50 108 126 122 139 143 150 221 251 212 294 291 367 661 781 54 481 310 307 676 880 882 691 394
284 133 1 28 0 0 0 0 0 4 0 0 7 17 0 0 3 39 70 63 46 17 0 0 0 68 95 114 131 130 133 148 184 188 196 242 241 290 430 626 631 611 425 166 12 586 648 803 631
275 126 23 9 0 1 25 0 0 0 0 0 15 33 9 0 0 10 16 50 57 61 75 89 0 42 105 145 120 118 125 134 135 146 164 211 198 237 209 374 680 614 399 40 0 537 453 560 610
407 203 73 95 27 45 33 1 0 0 0 0 13 26 14 8 0 0 20 46 69 84 81 99 85 33 67 125 116 121 187 165 108 124 169 115 120 228 168 195 453 566 495 411 485 606 327 320 282
546 366 187 75 5 22 3 1 0 0 0 0 17 26 22 9 0 9 28 32 43 84 96 102 113 39 0 115 87 65 153 199 174 233 233 120 140 187 137 129 210 365 352 365 432 561 579 422 290
209 314 107 15 42 1 0 0 0 0 0 24 16 35 26 2 16 14 8 24 23 61 73 108 126 78 67 113 106 108 211 151 271 250 252 241 197 157 138 61 75 134 113 192 337 450 533 412 306
94 276 148 46 0 0 0 0 32 4 6 32 28 44 25 29 7 34 29 59 38 80 87 94 119 122 113 133 132 197 209 231 298 301 269 148 131 80 73 58 98 67 0 206 380 411 413 432 446

GFSSGP_con_mlcape_117.txt.gz
CAPE
0 108 47 256 52 20 0 0 7 0 0 0 0 10 9 78 6 1 16 1 9 80 116 189 316 407 1236 1653 1738 1713 1751 1229 1157 1437 1521 1460 1428 1197 1230 1368 1454 1588 1466 1438 1349 1338 1414 1599 1513
0 0 21 30 20 0 0 14 4 0 0 4 34 40 78 44 183 12 32 16 12 291 314 321 558 763 774 1623 1630 1749 1764 1793 1736 1755 1661 1587 1444 919 1090 1415 1469 1440 1291 866 1299 1313 1231 1616 1685
0 0 32 22 13 9 21 26 19 13 0 34 148 118 31 4 19 11 90 69 210 664 700 790 1014 1238 1158 1911 1711 1636 1645 1425 1878 1653 1239 1192 987 694 732 1275 1535 1326 1336 646 552 908 939 1315 1591
0 80 32 28 25 40 55 35 46 49 23 100 16 0 57 44 7 245 222 241 499 869 808 1057 1869 1864 1785 1895 1822 1622 1753 1796 1761 1764 1403 1226 1711 1591 1512 1489 1274 1364 1416 1443 1547 1212 1589 1623 1504
0 80 44 39 31 49 76 69 116 107 118 52 0 0 0 339 441 319 326 317 606 803 875 697 1768 1617 1799 1845 1945 1904 1658 1869 1667 1487 1615 1573 1624 1563 1410 1612 1300 1240 1445 1203 1268 1385 1600 1441 1088
157 23 19 10 14 51 67 153 167 121 79 9 0 18 143 442 380 319 356 458 566 485 1195 1198 1530 1889 1782 1826 1836 1885 1758 1566 1640 1770 1611 1369 1608 1636 1519 1437 889 1252 1352 1234 1023 1336 1604 1811 1133
138 23 18 0 23 38 44 145 84 37 27 23 26 0 122 335 367 357 403 592 465 783 824 1380 1207 1442 1748 1987 2015 1933 1951 1861 1713 1922 1813 1605 1447 1334 1168 903 786 998 1085 999 1111 1158 1555 1624 1246
159 39 6 0 20 38 116 148 44 25 30 22 34 0 0 199 297 267 493 355 965 985 952 1519 1175 1494 1495 1690 2017 2065 2081 1924 1723 1703 1659 1586 1713 1601 1434 1089 878 782 857 734 841 886 1123 1425 1487
82 35 3 6 30 77 157 125 85 142 24 6 105 0 86 238 225 282 286 483 931 1051 921 1187 1269 1628 1752 1873 1819 1951 1657 1881 1949 1828 1704 1634 1333 1217 1050 1499 1279 1065 832 639 762 802 862 711 1037
183 39 3 67 54 75 160 120 154 40 31 41 94 139 176 269 275 346 232 355 633 675 916 939 1283 1366 1514 1670 1750 1894 1832 2121 2052 1809 1612 1507 1390 1644 1579 1296 876 533 446 631 519 506 542 520 816
69 32 19 18 83 69 153 158 168 41 27 47 0 87 250 387 380 223 122 203 285 481 731 1076 1352 1547 1765 1777 1605 1467 1655 1660 1726 1363 1409 1426 1515 798 448 235 150 160 135 317 330 486 718 1023 1163
72 39 13 0 0 80 115 239 130 39 42 28 0 179 257 260 215 96 155 150 216 447 658 1020 1055 1381 1587 1485 1819 1557 1263 1166 1088 1235 1497 1453 841 438 92 1 4 166 380 554 723 899 750 672 630
7 187 50 32 0 0 84 152 174 53 29 30 95 183 177 253 178 88 131 93 118 260 505 699 926 1299 1484 1395 1379 1338 1032 727 1015 1401 1545 1345 1173 463 77 265 492 713 889 914 965 804 863 981 613
324 393 280 177 90 48 103 142 243 57 67 45 28 78 160 234 200 59 139 99 75 114 326 547 763 1081 1326 1100 1079 1039 837 810 1008 1299 1443 1126 1154 714 340 353 963 965 910 1177 1184 1085 1057 1199 544
403 163 261 229 131 25 62 91 108 145 88 50 58 72 164 207 241 115 160 107 105 112 284 440 527 784 897 939 1217 1261 1053 796 997 1217 1334 992 523 562 652 385 786 605 483 1455 1244 1268 1255 1237 511
197 142 52 109 105 55 32 15 96 150 122 22 91 60 102 189 188 196 184 168 143 129 243 385 190 401 611 920 1131 1181 1022 558 1057 1125 1215 1252 792 771 682 752 660 503 1146 1702 1642 1466 1112 947 791
46 0 32 71 82 47 26 13 40 96 114 42 109 77 86 133 170 182 197 210 169 153 244 343 424 461 630 961 1047 1088 1026 453 1109 733 1179 1151 908 701 937 909 1071 1548 2097 2149 2082 1623 1189 876 741
0 0 23 33 52 24 32 7 20 22 124 118 112 87 88 63 126 176 208 216 174 208 265 377 411 578 700 967 916 932 1100 813 915 679 1217 648 665 1200 1651 1299 1024 1795 2173 2291 1814 1641 1439 1082 964
0 0 0 82 63 34 0 0 6 6 53 43 62 60 88 78 110 158 207 205 136 189 178 259 373 498 614 743 850 842 643 1015 963 689 1347 1018 1424 1631 1662 1172 797 1604 1797 2053 1924 1616 1737 1658 1188
0 0 15 67 63 15 10 0 0 0 10 28 1 0 72 84 94 119 201 164 183 140 188 246 291 493 615 690 701 805 935 1050 1003 1365 1455 1482 1328 1456 1515 1203 796 1354 1241 1934 1924 1820 1341 1534 1501
0 0 14 86 61 18 9 0 0 3 7 43 18 12 9 46 82 142 184 161 189 143 155 230 420 646 676 615 596 656 809 578 946 1181 1231 1345 1333 1533 1489 1298 1180 1092 702 1567 1831 1727 1534 1382 1155
0 0 74 138 57 28 13 0 0 0 0 16 24 44 16 1 72 141 187 153 174 139 175 238 429 564 531 518 606 402 508 632 719 656 1006 1345 1476 1293 1327 1196 961 885 264 1155 1628 1859 1633 1579 1275
0 176 249 191 90 52 14 6 0 0 4 0 0 8 45 0 11 64 161 161 159 137 134 194 314 411 473 477 547 291 273 612 572 757 475 1131 959 1338 1374 1210 969 576 385 1156 1581 1548 1604 1296 824
159 193 179 124 114 16 43 22 7 0 0 0 0 0 3 13 0 43 119 154 148 103 123 109 167 276 413 482 436 423 189 254 510 376 668 737 966 950 1181 1321 822 864 761 718 1434 1587 1633 1442 806
162 72 0 1 5 3 115 58 2 0 0 0 0 0 2 1 0 30 65 137 117 63 113 123 108 166 299 385 427 429 429 390 255 226 358 447 443 576 777 812 733 820 1030 734 543 1183 1427 1655 1386
177 27 0 0 18 75 133 15 22 0 0 0 0 0 33 5 0 3 53 94 93 39 112 109 77 116 257 330 377 436 482 446 492 523 450 641 725 739 800 804 778 775 929 802 388 569 1235 1153 1441
403 62 58 188 164 41 171 126 46 24 0 0 0 2 41 2 0 4 45 45 63 38 108 64 66 99 221 326 369 418 485 442 468 521 473 567 638 715 633 573 735 996 1084 804 708 590 875 960 1034
603 325 216 114 30 28 128 93 52 48 14 0 2 0 47 33 0 16 57 59 64 76 137 133 155 129 160 305 383 424 452 509 571 535 515 613 464 394 696 554 534 865 1088 1155 932 959 1215 1085 979
330 349 329 285 235 88 69 26 83 66 55 31 9 14 28 43 2 9 27 45 68 132 143 157 196 248 189 242 342 385 359 388 584 583 758 738 592 560 409 388 450 528 677 733 788 671 835 931 943
244 359 306 256 31 241 181 1 45 51 82 127 108 77 56 52 2 6 20 19 36 98 156 167 217 214 265 327 337 268 317 476 541 672 729 570 576 509 545 394 260 254 422 412 599 700 721 587 559

GFSSGP_con_mlcape_120.txt.gz
CAPE
0 192 130 965 367 63 5 17 33 15 17 14 0 16 21 220 61 46 9 62 14 47 142 229 333 918 800 763 1291 1394 1115 1340 1644 1538 1530 1263 1180 1444 1414 1618 1549 1435 1473 1355 1434 1576 1667 1463 1514
29 118 215 246 116 57 50 39 42 36 27 51 49 37 107 130 61 7 31 33 18 95 173 361 564 861 1158 1442 1727 1663 1638 1689 1724 1537 1547 1383 1342 1403 1620 1457 1346 776 1101 1348 1316 1571 1682 1750 1816
2 46 122 118 85 68 35 58 19 40 24 316 344 249 114 96 7 42 39 53 123 187 416 698 773 1007 1497 1729 1653 1701 1348 1701 1557 1219 1305 734 638 719 1597 1372 1106 637 735 993 1082 1340 1495 1736 1597
4 557 149 136 77 154 72 63 57 18 21 251 228 49 60 23 80 177 93 116 430 670 665 638 1316 1250 1659 1786 1530 1571 1781 1680 1510 1134 1364 1716 1699 1709 1584 1479 1296 1500 1474 1361 1396 1720 1510 1468 1311
23 388 188 164 111 129 98 124 139 129 207 194 0 0 122 408 193 146 182 306 544 530 644 563 1599 1628 1745 1584 1641 1592 1632 1732 1670 1676 1554 1623 1475 1494 1523 1268 1438 1510 1359 1386 1553 1529 1275 927 1041
455 219 151 53 127 139 206 268 289 293 270 69 0 0 295 375 131 148 180 315 306 340 377 791 1412 1672 1775 1371 1447 1462 1628 1259 1320 1596 1387 1549 1571 1520 1549 1060 1471 1495 1299 1288 1632 1836 1819 1127 637
429 211 199 93 121 112 215 276 227 231 157 14 33 72 180 249 138 177 230 254 156 598 653 826 1041 1437 1824 1563 1575 1511 1371 1325 1600 1571 1335 1525 1530 1405 937 965 1337 1352 1251 1400 1470 1688 1717 1404 1120
504 207 78 89 92 125 184 248 148 133 197 124 32 2 131 276 142 171 250 181 501 459 773 865 836 964 1092 1259 1467 1686 1626 1633 1764 1691 1599 1529 1198 926 849 776 1051 1145 1083 1230 1145 1355 1577 1440 1334
448 206 89 71 87 173 189 155 165 127 2 6 80 3 58 156 158 254 146 347 525 429 640 788 922 1276 1471 1296 1328 1261 1706 1586 1607 1236 1188 1073 402 512 912 960 890 964 909 910 914 925 874 1073 1094
477 319 260 213 127 120 158 159 173 37 19 115 75 43 116 104 215 213 83 227 313 214 226 650 740 818 1219 1225 1478 1473 1224 1127 1024 955 799 529 671 1078 605 764 936 1207 1040 855 850 690 359 604 648
116 100 196 61 41 96 221 183 200 38 53 90 57 44 85 98 237 209 124 152 180 156 268 675 777 1047 1165 1134 1140 1298 965 1055 1124 1134 687 883 667 671 502 482 393 435 358 441 423 690 844 1038 715
236 33 17 134 70 25 24 265 215 45 136 45 11 60 129 229 269 134 126 97 130 183 321 656 735 1206 1381 1184 1023 900 983 907 702 1021 1273 1145 625 701 377 216 471 635 520 763 1001 846 1261 1027 685
175 126 48 37 16 2 53 272 315 78 65 17 27 125 170 167 187 61 64 48 120 183 366 514 756 1307 1453 1225 937 815 738 812 955 1190 1485 1176 810 500 533 794 782 977 1036 1108 1227 1074 1115 851 506
369 512 619 338 282 57 23 216 321 111 26 20 95 90 174 169 163 144 14 39 68 129 341 457 705 1221 1341 1051 910 727 613 812 985 1162 1328 1631 830 991 807 1100 995 1197 1360 1218 1169 1184 1001 515 491
587 577 593 519 249 129 168 183 141 131 85 94 88 88 85 209 193 183 48 1 20 110 277 426 707 1049 1201 1139 1256 952 756 749 976 1212 1679 1461 1256 1379 1651 1013 1130 1099 1385 2143 1572 1330 957 498 419
427 221 196 451 389 236 210 89 98 200 161 94 64 27 97 254 313 243 167 0 0 69 217 350 376 794 1272 1286 1445 1001 869 977 1186 1402 1437 1745 1604 1706 1699 1127 1138 1513 2034 1523 1058 804 558 620 540
0 42 103 395 435 253 59 103 143 205 270 192 88 34 52 238 377 366 244 83 0 78 218 254 257 705 1083 1390 1209 1275 1378 1129 1352 1264 1363 1762 1542 1624 1570 1065 1495 2445 2096 2086 1585 1125 829 582 499
8 10 31 109 454 295 66 159 27 107 328 337 195 61 10 142 255 364 326 180 53 93 227 236 530 717 995 1214 1353 1145 1029 1024 1150 1234 1274 1391 1407 1754 2071 1284 1780 2352 1872 1891 1865 1811 1533 1138 867
0 0 0 308 294 302 249 164 43 28 85 330 252 82 47 76 164 303 333 225 159 191 290 565 665 883 961 970 915 839 803 1120 1060 1026 1696 1587 1945 2165 2287 1239 1443 2013 1949 2227 2274 1993 2091 1471 1724
0 0 5 211 223 156 118 78 18 100 21 182 312 110 53 67 109 245 329 295 202 183 316 543 683 899 1208 995 1023 904 724 974 912 1010 1324 1441 1912 1934 1934 1929 1322 2101 1562 2574 2442 2343 1345 1332 1740
0 0 4 32 155 108 79 31 40 29 30 69 155 192 30 62 67 178 288 323 213 223 230 423 711 803 869 897 930 1067 1255 1052 1175 1271 1176 1268 1580 1729 2096 1931 1483 1883 1423 1484 2543 2377 2074 1163 1767
0 0 0 166 56 66 97 13 129 57 89 57 26 91 20 1 41 75 207 309 242 244 296 289 587 821 695 827 895 734 405 547 835 1070 1053 1218 1336 1433 1749 1675 1725 1860 1200 1647 1783 1946 2443 1812 1328
0 0 0 134 97 77 90 41 2 79 117 77 79 121 31 4 4 65 131 229 240 237 304 314 582 906 876 1172 925 486 429 450 645 786 1079 1069 1442 1493 1178 1803 1822 1582 861 1365 2144 2099 2551 1772 1228
0 0 96 236 81 18 34 99 36 189 24 21 13 50 56 97 8 48 118 179 245 232 274 301 489 836 624 1166 557 668 519 561 655 632 722 793 760 903 1459 1553 1796 1526 1332 1215 1513 2178 2070 2238 1847
0 0 10 6 22 1 209 79 92 132 97 18 16 57 110 139 59 49 120 160 232 240 247 302 405 590 629 988 790 425 423 501 471 487 427 595 615 780 1000 1336 1407 1163 1504 1444 1238 1937 1973 1858 1737
0 0 7 25 19 56 300 78 200 230 137 72 120 127 151 126 136 67 95 181 213 291 273 294 315 464 523 642 414 717 585 554 428 405 527 418 529 538 560 781 936 991 1378 1326 1399 866 1002 1022 1369
28 22 4 31 40 28 63 227 287 238 135 89 28 5 0 0 57 126 92 228 262 313 298 331 330 397 347 425 602 786 1012 728 572 848 827 531 704 831 920 1044 966 803 929 920 1027 734 876 1229 1401
199 207 67 4 19 59 66 189 163 111 213 148 69 12 8 5 33 138 118 236 346 339 336 395 388 318 309 321 495 622 704 975 975 986 1058 831 922 1046 1095 1272 1193 1112 1137 1211 1383 889 1083 1164 935
136 160 188 130 217 100 173 200 164 119 231 272 164 94 42 92 73 117 147 261 368 361 341 481 446 301 322 352 454 478 547 678 898 820 1109 1208 1404 1346 1348 1467 1385 1280 1195 1257 1466 1302 931 1174 1006
1 114 127 142 47 191 103 10 326 230 322 351 287 100 68 86 65 47 200 336 345 352 364 591 535 492 453 390 537 723 688 775 589 791 926 1216 1315 1285 1472 1435 1320 1095 1185 1179 1304 1193 794 902 896

GFSSGP_con_mlcape_123.txt.gz
CAPE
0 212 382 948 1209 341 56 72 65 53 77 95 66 46 36 101 181 53 41 214 21 112 260 530 673 532 275 359 708 984 1211 1335 1322 1340 1328 1415 1522 1542 1508 1566 1553 1555 1480 1653 1541 1552 1509 1438 1544
16 420 440 534 371 19 48 81 70 68 100 168 157 192 36 8 31 86 35 3 38 84 208 349 901 852 567 581 833 1142 1285 1366 1477 1445 1314 1345 1459 1589 1472 938 1149 1444 1448 1488 1667 1639 1723 1586 1577
100 160 644 394 125 55 36 77 69 73 237 342 260 233 146 38 83 162 19 15 130 105 353 768 1263 1634 987 1099 936 1474 1576 1384 1451 1405 575 751 1536 1654 1187 845 956 1193 1287 1306 1428 1624 1530 1520 1570
59 547 402 152 89 80 66 84 104 109 203 264 147 56 26 69 148 104 54 52 191 555 769 952 1548 1808 1624 1482 1489 1235 1468 1169 1202 1625 1771 1551 1554 1811 1628 1346 1532 1518 1214 1482 1535 1471 1410 1129 1211
39 515 382 200 111 92 90 117 121 122 226 204 65 142 93 236 108 91 221 413 535 610 645 716 1568 1893 1644 1465 1583 1496 1633 1792 1789 1745 1681 1394 1768 1326 1431 1537 1503 1458 1495 1638 1252 855 697 1067 1191
231 468 155 75 101 122 159 204 169 223 201 65 71 188 304 152 69 131 248 425 423 383 650 627 1296 1750 1575 1630 1204 1247 1353 1150 1588 1534 1609 1484 1579 1708 1225 1600 1494 1285 1658 1756 1909 1395 862 604 838
234 155 35 85 114 165 214 170 265 146 76 67 57 175 196 101 121 131 196 242 252 319 470 432 672 1249 1626 1539 1455 1458 1276 1704 1413 1604 1678 1636 1679 1230 1104 1596 1447 1391 1497 1657 1639 1700 1374 1040 475
528 337 107 52 71 111 229 240 150 116 92 29 160 113 81 110 63 114 166 184 442 505 649 621 346 665 778 943 1485 1479 1518 1742 1714 1556 1571 1444 1047 789 999 1073 1300 1288 1432 1390 1504 1594 1345 1073 753
477 637 53 190 114 186 240 247 269 27 9 36 46 55 142 24 40 104 150 252 256 482 538 624 552 1245 1404 909 1037 1567 1537 1636 1105 931 1373 897 355 600 1089 884 1114 1034 1042 973 950 842 969 1296 1030
613 367 358 497 146 56 168 214 243 66 52 33 67 175 51 24 30 113 125 260 219 252 541 382 677 648 904 821 1294 1042 1281 1386 896 513 690 427 992 473 518 1121 1198 1089 1006 918 528 393 669 1126 1608
417 201 451 116 37 123 209 227 278 114 61 69 38 56 26 46 112 49 120 179 214 112 578 502 523 908 913 927 1188 1203 646 511 630 628 572 286 293 542 136 468 631 416 622 611 760 957 1170 662 674
444 366 240 181 40 2 9 108 228 103 93 70 6 48 29 119 176 79 73 131 98 143 400 558 626 901 934 982 764 921 821 501 464 643 648 738 341 497 396 452 612 577 280 548 950 389 685 584 500
417 305 84 373 69 0 0 21 293 162 137 38 19 72 101 195 152 87 88 98 42 144 441 381 1005 1144 1333 847 765 851 653 662 581 854 908 656 405 566 608 722 630 873 292 451 468 692 866 532 671
335 381 590 372 129 121 0 88 423 148 73 44 34 66 136 157 87 52 28 41 41 204 397 503 940 1157 945 1239 1076 689 728 846 897 894 1038 1402 769 926 749 876 651 579 706 526 527 1037 923 400 398
340 352 731 630 604 423 54 182 428 205 64 104 54 72 93 111 79 29 19 11 80 256 385 435 869 1051 1137 920 803 696 503 519 689 1372 1454 1252 1078 1560 997 777 909 517 1093 1253 797 1040 788 393 202
90 297 269 584 513 317 202 154 391 252 206 181 78 69 75 111 73 62 7 5 88 265 383 524 716 920 1071 1233 1254 569 724 599 970 979 1071 1309 1563 1551 1823 823 734 1035 1244 743 518 687 651 450 251
28 9 72 459 674 462 236 20 35 231 275 143 91 66 68 136 155 121 19 6 5 235 332 510 715 1009 1224 1244 1002 820 786 897 1016 949 999 1385 1412 1593 1719 1002 1243 2061 892 884 841 646 526 491 273
14 4 10 140 713 641 274 235 402 98 245 175 56 117 63 103 223 135 76 17 2 193 307 430 562 1027 1103 994 1364 1149 940 907 917 989 1600 1334 1255 1575 2106 1184 1539 2740 925 1287 2309 2108 1078 960 439
0 21 10 166 525 532 330 231 428 90 20 161 184 193 58 102 108 138 103 41 16 75 215 369 584 1016 1180 916 740 913 786 934 814 1138 1439 1518 1351 1741 2207 1228 1649 1600 1955 1801 1577 1548 1742 1106 865
0 0 9 168 351 344 170 218 275 386 39 32 98 273 66 77 92 195 120 69 36 81 218 358 643 1055 1159 994 1112 1135 721 1022 842 1138 1187 1342 1510 1808 1687 2000 1241 1599 1374 1920 2011 1968 1687 877 1067
0 1 13 35 286 211 108 27 140 200 408 86 168 246 125 70 63 141 100 95 81 70 229 511 680 1122 1247 1195 1039 1409 1411 1542 911 993 1082 1210 1552 1705 1820 1809 1829 1807 1694 1952 2021 2347 1549 910 860
0 0 0 1 31 38 199 4 164 234 194 299 92 387 259 72 75 74 109 196 87 202 174 419 711 915 1145 1334 1011 833 974 669 489 847 1316 1102 1337 1475 1469 1595 1749 1992 1829 1835 1489 1334 2218 1310 1561
0 0 0 0 15 55 68 64 1 116 345 204 112 110 393 50 98 113 92 166 194 222 333 244 676 1060 983 1069 1073 1044 725 711 1089 881 1320 1258 1299 1416 1075 1491 1647 1793 1219 1268 2151 2057 1898 2009 1045
0 0 0 6 47 45 10 39 31 105 319 290 176 189 176 84 66 99 116 188 316 218 414 357 572 917 1082 1042 886 1059 752 836 788 855 1144 923 897 1018 1028 1264 1623 1721 1398 1559 1623 1844 2048 2119 2176
0 0 1 20 22 1 37 51 28 1 179 126 171 231 171 236 60 56 114 166 331 334 410 384 575 810 861 1239 823 954 1109 964 992 1262 661 641 645 655 1392 1312 1614 1495 1697 1750 1530 1838 1908 1886 1661
0 0 5 13 40 125 55 41 92 30 82 66 92 149 204 214 100 45 104 159 447 420 407 488 550 754 738 955 826 933 828 825 666 972 612 579 594 514 1095 1520 1216 1244 1515 1367 1494 1251 1085 720 912
2 0 0 16 13 11 104 50 87 5 18 119 119 169 52 92 157 103 116 108 409 417 442 646 626 704 643 791 813 842 946 754 482 905 974 1020 922 805 1167 1104 1339 1291 1161 1139 1198 1160 844 940 1442
0 18 4 8 7 36 59 20 174 63 0 12 172 189 190 196 278 251 142 137 202 319 596 554 711 747 609 526 630 734 740 904 817 1146 1260 816 953 1412 1287 1446 1233 1336 1221 1261 1300 990 1062 985 992
28 4 0 15 26 21 65 196 10 5 19 329 212 156 114 54 67 149 79 147 228 426 531 668 749 747 630 465 601 654 727 901 971 985 1159 1209 1280 1382 1362 1414 1229 1434 1377 1350 1457 1135 1456 1173 1109
49 6 37 52 46 0 0 41 0 87 0 413 309 101 133 138 106 155 209 153 279 549 620 726 773 733 588 449 685 752 764 693 731 876 753 1317 1304 1201 1276 1592 1549 1495 1479 1361 1287 1544 1045 856 858

GFSSGP_con_mlcape_126.txt.gz
CAPE
0 0 216 771 414 409 6 44 40 13 36 58 53 20 3 58 90 5 26 56 96 148 351 685 504 269 331 281 151 854 1439 1357 1168 1116 1409 1499 1611 1553 1463 1385 1409 1405 1488 1553 1240 1520 1358 1637 1533
0 3 402 459 86 57 35 39 51 29 220 262 139 21 1 36 39 268 170 119 132 149 291 580 485 338 468 407 732 1130 1299 1478 1327 1396 1567 1655 1596 1304 1123 1414 1573 1484 1522 1618 1402 1537 1643 1699 1763
0 155 632 7 25 32 27 22 13 67 68 70 73 3 0 70 71 1 0 23 108 192 403 870 1008 915 544 852 1176 1304 1503 1571 1444 1172 1357 1634 1496 1032 1090 1307 1483 1415 1472 1619 1583 1644 1645 1650 1372
26 272 651 133 61 29 37 31 22 105 227 84 6 13 42 148 7 0 37 39 355 576 664 1541 1522 1185 657 1198 1135 1344 1324 1260 1133 927 874 1639 1650 1129 1389 1265 1318 1531 1500 1464 1737 1400 1291 1265 935
143 390 241 35 76 49 21 35 33 105 57 44 10 13 111 57 1 8 116 388 282 22 869 1414 1702 1502 1351 1457 712 1180 1284 1504 1555 1542 1541 1516 1582 1438 1531 1515 1527 1599 1389 869 669 1175 1234 1090 806
99 0 0 187 83 33 36 72 67 96 29 60 41 37 48 18 91 110 171 647 550 378 509 1110 1723 1556 1386 1451 1400 1583 1577 1632 1617 1620 1538 1760 1522 1463 1535 1460 1517 1540 1696 1622 997 516 608 538 303
75 5 0 109 41 35 69 92 85 29 49 27 91 6 23 40 21 105 124 353 499 619 353 748 1092 1375 1403 1245 1247 1105 1538 1496 1560 1576 1640 1675 1375 1346 1576 1541 1491 1644 1628 1565 1533 1074 504 101 0
492 35 74 38 1 90 132 62 130 63 41 64 101 13 18 38 21 22 50 223 307 327 293 342 772 827 823 1018 1185 1228 1657 1270 1564 1726 1526 1456 966 1261 1484 1274 1420 1479 1554 1555 1355 1177 964 500 0
376 271 15 26 80 49 190 183 3 2 4 53 45 26 12 11 28 31 49 224 379 93 448 233 582 975 958 1062 1365 1539 1703 1578 1367 1410 976 668 574 852 1170 999 1170 1311 1079 827 739 1100 988 712 436
370 11 47 39 35 0 10 187 25 42 17 106 85 38 1 8 36 39 89 123 263 449 205 361 463 940 854 571 1375 1184 1150 1013 826 1126 944 951 777 1055 936 881 842 763 713 523 467 844 1168 1296 1035
438 178 354 188 55 1 37 113 250 67 67 69 120 1 0 9 44 34 105 18 318 181 27 274 800 596 735 912 1229 129 816 1019 511 472 351 544 74 82 155 267 480 438 513 591 685 828 986 1157 1338
303 443 314 210 39 47 0 15 161 101 73 66 0 0 2 19 55 34 84 54 347 537 356 400 645 68 339 898 1204 1340 876 500 555 876 485 582 795 678 472 867 962 719 842 1080 639 934 699 441 564
385 405 136 406 39 0 0 0 105 139 112 44 1 27 12 36 51 46 67 55 120 334 493 735 916 55 307 798 583 741 666 551 399 406 741 765 576 275 551 395 557 686 64 624 563 959 554 488 317
289 293 488 390 143 19 0 54 47 187 66 23 35 43 49 57 64 48 83 51 55 348 423 1001 989 1037 1094 794 1299 970 563 570 664 892 1099 1105 549 852 629 891 651 521 1104 762 471 1099 1084 575 167
352 252 571 617 597 324 40 66 78 117 153 19 52 68 114 86 48 62 49 34 43 378 613 950 768 1050 1337 1256 800 688 245 1038 864 1057 1163 1222 863 1354 1296 1020 797 930 679 748 396 755 888 347 352
37 37 269 725 562 430 199 67 14 28 244 72 74 96 56 49 26 38 24 41 114 292 517 681 645 1091 970 736 671 1189 307 1287 1210 1182 1179 1205 1636 1157 1220 530 545 277 843 577 652 635 786 280 119
23 19 30 17 690 555 148 10 60 27 313 92 112 65 58 44 45 10 27 41 80 384 406 530 848 682 1331 762 1345 1143 1095 502 205 567 1327 1521 1411 1467 1705 1376 1190 318 957 1142 719 576 488 246 109
7 20 12 179 676 493 255 202 0 93 307 308 221 143 84 46 38 12 11 28 80 303 429 702 824 1058 808 1369 1330 614 967 657 611 858 1538 1338 1399 1195 1688 680 1530 1970 1430 316 427 1975 736 347 325
0 1 118 415 327 193 250 277 500 264 151 360 81 147 115 127 84 79 17 21 76 214 347 627 746 902 967 1568 1210 894 1169 1193 753 176 1787 1363 1152 1432 1798 1888 1245 306 1 326 596 1958 1871 1391 637
0 0 0 60 174 21 15 159 265 540 182 67 0 16 161 130 115 62 40 18 12 210 299 541 1046 981 793 1184 1299 1102 951 865 1021 1719 1458 1236 1365 1777 1881 1338 1725 265 0 257 924 107 603 132 1273
0 0 3 49 322 110 17 19 21 433 549 143 107 79 60 173 84 62 67 30 14 120 287 491 946 808 1384 1385 914 1186 1452 844 368 1290 1161 1303 1307 1311 1474 1867 1599 813 985 1586 535 0 753 115 101
0 0 0 1 1 1 49 0 25 86 631 424 63 107 5 237 142 102 49 47 39 121 347 442 1016 855 1101 1109 1299 976 1058 906 918 1213 1287 1134 1036 1360 1354 1340 1515 1687 1616 403 2053 2008 815 196 179
0 0 0 0 0 0 64 61 7 48 255 428 279 187 307 225 67 69 26 30 55 147 326 775 1064 1030 938 981 1082 969 873 1010 815 448 1042 1463 1149 1296 876 1361 1287 1582 1636 1420 1342 1542 1637 1619 1142
0 0 0 0 0 0 2 22 0 83 315 483 342 273 269 151 48 76 29 87 97 148 105 731 904 887 705 748 628 1026 763 926 138 863 703 1022 1146 778 1177 1147 1577 1573 1430 1439 1049 1403 1764 1660 1742
0 0 0 0 0 1 28 1 38 92 0 222 318 335 220 48 67 90 31 60 94 260 211 568 883 722 811 878 1164 871 1327 759 749 813 746 1034 850 1242 1086 1070 1318 1378 1250 1525 1643 1433 1797 1295 1756
0 0 0 0 0 0 60 34 188 233 229 128 67 128 224 245 134 112 64 21 264 304 298 566 856 925 540 833 1221 1181 1082 911 1086 679 879 610 730 413 418 1136 1557 1268 1301 1599 1480 1474 1261 1105 1082
0 0 0 0 0 0 27 241 215 12 0 0 119 376 343 306 256 94 87 98 121 510 550 574 914 977 1192 747 992 889 756 903 847 1225 760 966 885 1053 1017 1396 1453 1332 1552 1201 1361 1377 1062 1122 949
0 0 5 0 0 0 7 88 70 1 16 209 197 243 358 384 354 230 136 85 336 429 474 626 940 866 948 843 741 601 494 910 833 1064 976 1048 1174 1070 1128 1351 1323 1397 1551 1515 1379 1211 901 942 994
0 0 0 0 0 14 30 76 0 0 21 311 199 101 253 274 337 377 214 99 62 289 673 765 841 900 814 688 1140 865 729 1042 918 752 907 788 808 1009 1025 1199 1482 1423 1381 1136 1078 1301 1168 732 738
0 1 15 1 0 36 38 16 11 59 14 329 12 23 283 191 99 248 167 4 99 243 628 797 778 1015 819 739 940 783 932 761 934 865 1092 879 983 1116 1667 1778 1710 1549 1258 1222 1275 1226 1315 1130 1000